[[{"header":{"parameterUnit":"m.s-1","parameterCategory":1,"la1":30.6,"la2":29.2853,"lo1":-89.7004,"lo2":-87.6739,"dy":0.0162,"dx":0.0183,"nx":112,"ny":82,"refTime":"2026-05-22T00:00:00:Z","depth":0,"parameterNumber":2,"parameterNumberName":"U-component_of_WINDS"},"data":[0.0,0.0,0.0,0.0,0.0,0.0,0.0,0.0,0.0,0.0,0.0,0.0,0.0,0.0,0.0,0.0,0.0,0.0,0.0,0.0,0.0,0.0,0.0,0.0,0.0,0.0,0.0,0.0,0.0,0.0,0.0,0.0,0.0,0.0,0.0,0.0,0.0,0.0,0.0,0.0,0.0,0.0,0.0,0.0,0.0,0.0,0.0,0.0,0.0,0.0,0.0,0.0,0.0,0.0,0.0,0.0,0.0,0.0,0.0,0.0,0.0,0.0,0.0,0.0,0.0,0.0,0.0,0.0,0.0,0.0,0.0,0.0,0.0,0.0,0.0,0.0,0.0,0.0,0.0,0.0,0.0,0.0,0.0,0.0,0.0,0.0,0.0,0.0,0.0,0.0,-1.8602,-2.0703,-2.3645,-2.5058,-2.4071,-2.3242,-2.1572,-1.8733,0.0,0.0,0.0,0.0,0.0,0.0,0.0,0.0,0.0,0.0,0.0,0.0,0.0,0.0,0.0,0.0,0.0,0.0,0.0,0.0,0.0,0.0,0.0,0.0,0.0,0.0,0.0,0.0,0.0,0.0,0.0,0.0,0.0,0.0,0.0,0.0,0.0,0.0,0.0,0.0,0.0,0.0,0.0,0.0,0.0,0.0,0.0,0.0,0.0,0.0,0.0,0.0,0.0,0.0,0.0,0.0,0.0,0.0,0.0,0.0,0.0,0.0,0.0,0.0,0.0,0.0,0.0,0.0,0.0,0.0,0.0,0.0,0.0,0.0,0.0,0.0,0.0,0.0,0.0,0.0,0.0,0.0,0.0,0.0,0.0,0.0,0.0,0.0,0.0,0.0,0.0,0.0,0.0,0.0,0.0,0.0,0.0,0.0,0.0,0.0,0.0,0.0,0.0,0.0,-1.9691,-2.3838,-2.5206,-2.5673,-2.5351,-2.4233,-2.2459,-1.9895,0.0,0.0,0.0,0.0,0.0,0.0,0.0,0.0,0.0,0.0,0.0,0.0,0.0,0.0,0.0,0.0,0.0,0.0,0.0,0.0,0.0,0.0,0.0,0.0,0.0,0.0,0.0,0.0,0.0,0.0,0.0,0.0,0.0,0.0,0.0,0.0,0.0,0.0,0.0,0.0,0.0,0.0,0.0,0.0,0.0,0.0,0.0,0.0,0.0,0.0,0.0,0.0,0.0,0.0,0.0,0.0,0.0,0.0,0.0,0.0,0.0,0.0,0.0,0.0,0.0,0.0,0.0,0.0,0.0,0.0,0.0,0.0,0.0,0.0,0.0,0.0,0.0,0.0,0.0,0.0,0.0,0.0,0.0,0.0,0.0,0.0,0.0,0.0,0.0,0.0,0.0,0.0,0.0,0.0,0.0,0.0,0.0,0.0,0.0,0.0,0.0,0.0,0.0,-1.9838,-2.1894,-2.4598,-2.5727,-2.5902,-2.4963,-2.3945,-2.2175,-1.9349,-1.6238,0.0,0.0,0.0,0.0,0.0,0.0,0.0,0.0,0.0,0.0,0.0,0.0,0.0,0.0,0.0,0.0,0.0,0.0,0.0,0.0,0.0,0.0,0.0,0.0,0.0,0.0,0.0,0.0,0.0,0.0,0.0,0.0,0.0,0.0,0.0,0.0,0.0,0.0,0.0,0.0,0.0,0.0,0.0,0.0,0.0,0.0,0.0,0.0,0.0,0.0,0.0,0.0,0.0,0.0,0.0,0.0,0.0,0.0,0.0,0.0,0.0,0.0,0.0,0.0,0.0,0.0,0.0,0.0,0.0,0.0,0.0,0.0,0.0,0.0,0.0,0.0,0.0,0.0,0.0,0.0,0.0,0.0,0.0,0.0,0.0,0.0,0.0,0.0,0.0,0.0,0.0,0.0,0.0,0.0,0.0,0.0,0.0,0.0,0.0,0.0,0.0,0.0,-2.2618,-2.4035,-2.5168,-2.6061,-2.6008,-2.4584,-2.3401,-2.1599,-1.8883,-1.6011,0.0,0.0,0.0,0.0,0.0,0.0,0.0,0.0,0.0,0.0,0.0,0.0,0.0,0.0,0.0,0.0,0.0,0.0,0.0,0.0,0.0,0.0,0.0,0.0,0.0,0.0,0.0,0.0,0.0,0.0,0.0,0.0,0.0,0.0,0.0,0.0,0.0,0.0,0.0,0.0,0.0,0.0,0.0,0.0,0.0,0.0,0.0,0.0,0.0,0.0,0.0,0.0,0.0,0.0,0.0,0.0,0.0,0.0,0.0,0.0,0.0,0.0,0.0,0.0,0.0,0.0,0.0,0.0,0.0,0.0,0.0,0.0,0.0,0.0,0.0,0.0,0.0,0.0,0.0,0.0,0.0,0.0,0.0,0.0,0.0,0.0,0.0,0.0,0.0,0.0,0.0,0.0,0.0,0.0,0.0,0.0,0.0,0.0,0.0,0.0,0.0,0.0,-2.3984,-2.5497,-2.6619,-2.6616,-2.6071,-2.5036,-2.2967,-2.1016,-1.944,-1.5898,0.0,0.0,0.0,0.0,0.0,0.0,0.0,0.0,0.0,0.0,0.0,0.0,0.0,0.0,0.0,0.0,0.0,0.0,0.0,0.0,0.0,0.0,0.0,0.0,0.0,0.0,0.0,0.0,0.0,0.0,0.0,0.0,0.0,0.0,0.0,0.0,0.0,0.0,0.0,0.0,0.0,0.0,0.0,0.0,0.0,0.0,0.0,0.0,0.0,0.0,0.0,0.0,0.0,0.0,0.0,0.0,0.0,0.0,0.0,0.0,0.0,0.0,0.0,0.0,0.0,0.0,0.0,0.0,0.0,0.0,0.0,0.0,0.0,0.0,0.0,0.0,0.0,0.0,0.0,0.0,0.0,0.0,0.0,0.0,0.0,0.0,0.0,0.0,0.0,0.0,0.0,0.0,0.0,0.0,0.0,0.0,0.0,0.0,0.0,0.0,0.0,0.0,-2.5322,-2.6832,-2.7159,-2.7363,-2.6698,-2.4836,-2.2871,-2.0771,-1.8542,0.0,0.0,0.0,0.0,0.0,0.0,0.0,0.0,0.0,0.0,0.0,0.0,0.0,0.0,0.0,0.0,0.0,0.0,0.0,0.0,0.0,0.0,0.0,0.0,0.0,0.0,0.0,0.0,0.0,0.0,0.0,0.0,0.0,0.0,0.0,0.0,0.0,0.0,0.0,0.0,0.0,0.0,0.0,0.0,0.0,0.0,0.0,0.0,0.0,0.0,0.0,0.0,0.0,0.0,0.0,0.0,0.0,0.0,0.0,0.0,0.0,0.0,0.0,0.0,0.0,0.0,0.0,0.0,0.0,0.0,0.0,0.0,0.0,0.0,0.0,0.0,0.0,0.0,0.0,0.0,0.0,0.0,0.0,0.0,0.0,0.0,0.0,0.0,0.0,0.0,0.0,0.0,0.0,0.0,0.0,0.0,0.0,0.0,0.0,0.0,0.0,0.0,-2.3604,-2.6273,-2.78,-2.7665,-2.8018,-2.7365,-2.5156,-2.3082,-2.0854,-1.831,0.0,0.0,0.0,0.0,0.0,0.0,0.0,0.0,0.0,0.0,0.0,0.0,0.0,0.0,0.0,0.0,0.0,0.0,0.0,0.0,0.0,0.0,0.0,0.0,0.0,0.0,0.0,0.0,0.0,0.0,0.0,0.0,0.0,0.0,0.0,0.0,0.0,0.0,0.0,0.0,0.0,0.0,0.0,0.0,0.0,0.0,0.0,0.0,0.0,0.0,0.0,0.0,0.0,0.0,0.0,0.0,0.0,0.0,0.0,0.0,0.0,0.0,0.0,0.0,0.0,0.0,0.0,0.0,0.0,0.0,0.0,0.0,0.0,0.0,0.0,0.0,0.0,0.0,0.0,0.0,0.0,0.0,0.0,0.0,0.0,0.0,0.0,0.0,0.0,0.0,0.0,0.0,0.0,0.0,0.0,0.0,0.0,0.0,0.0,0.0,0.0,0.0,-2.3871,-2.6718,-2.8363,-2.821,-2.8571,-2.8049,-2.6167,-2.3674,-2.1271,0.0,0.0,0.0,0.0,0.0,0.0,0.0,0.0,0.0,0.0,0.0,0.0,0.0,0.0,0.0,0.0,0.0,0.0,0.0,0.0,0.0,0.0,0.0,0.0,0.0,0.0,0.0,0.0,0.0,0.0,0.0,0.0,0.0,0.0,0.0,0.0,0.0,0.0,0.0,0.0,0.0,0.0,0.0,0.0,0.0,0.0,0.0,0.0,0.0,0.0,0.0,0.0,0.0,0.0,0.0,0.0,0.0,0.0,0.0,0.0,0.0,0.0,0.0,0.0,0.0,0.0,0.0,0.0,0.0,0.0,0.0,0.0,0.0,0.0,0.0,0.0,0.0,0.0,0.0,0.0,0.0,0.0,0.0,0.0,0.0,0.0,0.0,0.0,0.0,0.0,0.0,0.0,0.0,0.0,0.0,0.0,0.0,0.0,0.0,0.0,0.0,0.0,0.0,-2.3933,-2.7534,-2.9433,-2.8455,-2.9119,-2.8776,-2.6618,-2.4336,-2.2154,-2.009,0.0,0.0,0.0,0.0,0.0,0.0,0.0,0.0,0.0,0.0,0.0,0.0,0.0,0.0,0.0,0.0,0.0,0.0,0.0,0.0,0.0,0.0,0.0,0.0,0.0,0.0,0.0,0.0,0.0,0.0,0.0,0.0,0.0,0.0,0.0,0.0,0.0,0.0,0.0,0.0,0.0,0.0,0.0,0.0,0.0,0.0,0.0,0.0,0.0,0.0,0.0,0.0,0.0,0.0,0.0,0.0,0.0,0.0,0.0,0.0,0.0,0.0,0.0,0.0,0.0,0.0,0.0,0.0,0.0,0.0,0.0,0.0,0.0,0.0,0.0,0.0,0.0,0.0,0.0,0.0,0.0,0.0,0.0,0.0,0.0,0.0,0.0,0.0,0.0,0.0,0.0,0.0,0.0,0.0,0.0,0.0,0.0,0.0,0.0,0.0,0.0,0.0,-2.3948,-2.7634,-2.9587,-2.8519,-2.9225,-2.9012,-2.7229,-2.5194,-2.3096,-2.0967,0.0,0.0,0.0,0.0,0.0,0.0,0.0,0.0,0.0,0.0,0.0,0.0,0.0,0.0,0.0,0.0,0.0,0.0,0.0,0.0,0.0,0.0,0.0,0.0,0.0,0.0,0.0,0.0,0.0,0.0,0.0,0.0,0.0,0.0,0.0,0.0,0.0,0.0,0.0,0.0,0.0,0.0,0.0,0.0,0.0,0.0,0.0,0.0,0.0,0.0,0.0,0.0,0.0,0.0,0.0,0.0,0.0,0.0,0.0,0.0,0.0,0.0,0.0,0.0,0.0,0.0,0.0,0.0,0.0,0.0,0.0,0.0,0.0,0.0,0.0,0.0,0.0,0.0,0.0,0.0,0.0,0.0,0.0,0.0,0.0,0.0,0.0,0.0,0.0,0.0,0.0,0.0,0.0,0.0,0.0,0.0,0.0,0.0,0.0,0.0,0.0,0.0,-2.3963,-2.7349,-2.9202,-2.8488,-2.9073,-2.9046,-2.7926,-2.6041,-2.4007,-2.1782,0.0,0.0,0.0,0.0,0.0,0.0,0.0,0.0,0.0,0.0,0.0,0.0,0.0,0.0,0.0,0.0,0.0,0.0,0.0,0.0,0.0,0.0,0.0,0.0,0.0,0.0,0.0,0.0,0.0,0.0,0.0,0.0,0.0,0.0,0.0,0.0,0.0,0.0,0.0,0.0,0.0,0.0,0.0,0.0,0.0,0.0,0.0,0.0,0.0,0.0,0.0,0.0,0.0,0.0,0.0,0.0,0.0,0.0,0.0,0.0,-2.2509,-2.1283,0.0,0.0,0.0,0.0,0.0,0.0,0.0,0.0,0.0,0.0,0.0,0.0,0.0,0.0,0.0,0.0,0.0,0.0,0.0,0.0,0.0,0.0,0.0,0.0,0.0,0.0,0.0,0.0,0.0,0.0,0.0,0.0,0.0,0.0,0.0,0.0,0.0,0.0,0.0,0.0,-2.4025,-2.7741,-2.9725,-2.8535,-2.9464,-2.9628,-2.8244,-2.6324,-2.4517,-2.2855,-1.9091,0.0,0.0,0.0,0.0,0.0,0.0,0.0,0.0,0.0,0.0,0.0,0.0,0.0,0.0,0.0,0.0,0.0,0.0,0.0,0.0,0.0,0.0,0.0,0.0,0.0,0.0,0.0,0.0,0.0,0.0,0.0,0.0,0.0,0.0,0.0,0.0,0.0,0.0,0.0,0.0,0.0,0.0,0.0,0.0,0.0,0.0,0.0,0.0,0.0,0.0,0.0,0.0,0.0,0.0,0.0,0.0,0.0,0.0,0.0,-2.6411,-2.4415,0.0,0.0,0.0,0.0,0.0,0.0,0.0,0.0,0.0,0.0,0.0,0.0,0.0,0.0,0.0,0.0,0.0,0.0,0.0,0.0,0.0,0.0,0.0,0.0,0.0,0.0,0.0,0.0,0.0,0.0,0.0,0.0,0.0,0.0,0.0,0.0,0.0,0.0,0.0,0.0,-2.4487,-2.7787,-2.9525,-2.8519,-2.9294,-2.9444,-2.8302,-2.6865,-2.5378,-2.3806,-2.0436,0.0,0.0,0.0,0.0,0.0,0.0,0.0,0.0,0.0,0.0,0.0,0.0,0.0,0.0,0.0,0.0,0.0,0.0,0.0,0.0,0.0,0.0,0.0,0.0,0.0,0.0,0.0,0.0,0.0,0.0,0.0,0.0,0.0,0.0,0.0,0.0,0.0,0.0,0.0,0.0,0.0,0.0,0.0,0.0,0.0,0.0,0.0,0.0,0.0,0.0,0.0,0.0,0.0,-3.0818,-3.1833,-3.2002,-3.3237,-3.4153,-3.4583,-3.083,-2.8582,-2.7511,-2.6746,0.0,0.0,0.0,0.0,0.0,0.0,0.0,0.0,0.0,0.0,0.0,0.0,0.0,0.0,0.0,0.0,0.0,0.0,0.0,0.0,0.0,0.0,-2.875,-2.8088,-2.7919,-2.7149,-2.4317,0.0,0.0,0.0,0.0,0.0,0.0,0.0,0.0,0.0,0.0,0.0,-2.4989,-2.7787,-2.9264,-2.8488,-2.9119,-2.9208,-2.8311,-2.7376,-2.6169,-2.4596,-2.184,-1.9276,0.0,0.0,0.0,0.0,0.0,0.0,0.0,0.0,0.0,0.0,0.0,0.0,0.0,0.0,0.0,0.0,0.0,0.0,0.0,0.0,0.0,0.0,0.0,0.0,0.0,0.0,0.0,0.0,0.0,0.0,0.0,0.0,-1.3737,-1.4671,0.0,0.0,0.0,0.0,0.0,0.0,0.0,0.0,0.0,0.0,0.0,0.0,0.0,-2.8214,-2.84,-3.0499,-3.1938,-3.2679,-3.3609,-3.4404,-3.5025,-3.5211,-3.569,-3.6272,-3.5559,0.0,-3.2439,-2.9904,0.0,0.0,0.0,0.0,0.0,0.0,0.0,0.0,0.0,0.0,0.0,0.0,0.0,0.0,0.0,0.0,0.0,0.0,0.0,0.0,0.0,0.0,-3.0828,-3.0156,-3.0002,-2.9879,-2.9417,-2.7503,-2.5463,-2.404,-2.3163,-2.2209,0.0,0.0,0.0,0.0,0.0,0.0,-2.5096,-2.8203,-2.9787,-2.8535,-2.951,-2.9756,-2.8479,-2.7511,-2.6372,-2.4911,-2.2934,-2.0843,-1.8669,-1.7348,0.0,0.0,0.0,0.0,0.0,0.0,0.0,0.0,0.0,0.0,0.0,0.0,0.0,0.0,0.0,0.0,0.0,0.0,0.0,0.0,0.0,0.0,0.0,0.0,0.0,0.0,0.0,0.0,0.0,-1.4615,-1.6724,-1.7141,-1.831,-1.879,0.0,0.0,0.0,0.0,0.0,0.0,0.0,0.0,0.0,-2.7552,-2.9719,-3.1244,-3.209,-3.3918,-3.5182,-3.5943,-3.7094,-3.7804,-3.8142,-3.8565,-3.8913,-3.9167,-3.8679,-3.8008,-3.695,-3.3068,-3.1117,-3.0309,0.0,0.0,0.0,0.0,-2.7681,-2.7635,-2.8039,-2.7991,-2.7767,-2.8057,0.0,0.0,0.0,0.0,0.0,0.0,0.0,-2.8319,-2.9264,-3.1028,-3.2259,-3.1213,-3.1259,-3.1336,-3.0555,-2.9464,-2.8242,-2.6872,-2.5426,-2.4117,-2.3148,-2.1874,0.0,0.0,0.0,-2.5072,-2.6826,-2.9002,-3.0017,-2.9073,-2.9817,-2.9848,-2.8519,-2.8023,-2.733,-2.626,-2.4611,-2.2857,-2.1008,-1.9432,-1.766,0.0,0.0,0.0,0.0,0.0,0.0,0.0,0.0,0.0,0.0,0.0,0.0,0.0,0.0,0.0,0.0,0.0,0.0,0.0,0.0,0.0,0.0,0.0,0.0,0.0,0.0,0.0,0.0,-1.7401,-1.9366,-1.966,-2.1123,-2.1803,0.0,0.0,0.0,0.0,0.0,0.0,-2.7199,-2.8029,-2.9231,-3.0903,-3.2601,-3.4007,-3.5064,-3.6632,-3.7767,-3.8529,-3.9849,-4.0586,-4.0807,-4.1358,-4.1612,-4.1578,-4.1044,-4.079,-4.0468,-3.6091,-3.4003,-3.3449,-3.1668,-3.0985,-3.0995,-3.0937,-3.0807,-3.0656,-3.0879,-3.0949,-3.0964,-3.1316,-3.0751,-2.9735,-2.8719,0.0,0.0,0.0,0.0,-3.0335,-3.0986,-3.2428,-3.3413,-3.2441,-3.2552,-3.2613,-3.1401,-3.1017,-3.0448,-2.8965,-2.7265,-2.5887,-2.521,-2.3963,0.0,-2.4656,-2.5426,-2.6472,-2.8181,-2.9735,-3.0325,-2.9479,-3.0002,-2.9848,-2.8519,-2.8411,-2.7994,-2.7049,-2.5857,-2.4391,-2.2629,-2.1073,-1.9234,-1.7082,0.0,0.0,0.0,0.0,0.0,0.0,0.0,0.0,0.0,0.0,0.0,0.0,0.0,0.0,0.0,0.0,0.0,0.0,0.0,0.0,0.0,0.0,0.0,0.0,0.0,0.0,0.0,0.0,0.0,-2.205,-2.3585,0.0,0.0,0.0,0.0,-2.5389,-2.7469,-2.8773,-2.8874,-3.1667,-3.3247,-3.3237,-3.5535,-3.6741,-3.6677,-3.8279,-3.9431,-4.0203,-4.1102,-4.192,-4.2672,-4.2706,-4.274,-4.2723,-4.2689,-4.2672,-4.2381,-3.8715,-3.7225,-3.7081,-3.5402,-3.4655,-3.4589,-3.4971,-3.4836,-3.4531,-3.4591,-3.4558,-3.4446,-3.4347,-3.2949,-3.1301,-3.1224,-3.0258,0.0,0.0,-3.1674,-3.2398,-3.3075,-3.3829,-3.4428,-3.4366,-3.4366,-3.4197,-3.3413,-3.2752,-3.1705,-2.9735,-2.8765,-2.8042,-2.7349,0.0,-2.5426,-2.6187,-2.6857,-2.7565,-2.8304,-3.012,-3.0843,-2.955,-3.0002,-2.9848,-2.8519,-2.8411,-2.7842,-2.6518,-2.6146,-2.4963,-2.2774,-2.2044,-2.0689,-1.8539,-1.6798,0.0,0.0,0.0,0.0,0.0,0.0,0.0,0.0,0.0,0.0,0.0,0.0,0.0,0.0,0.0,0.0,0.0,0.0,0.0,0.0,0.0,0.0,0.0,0.0,0.0,0.0,0.0,0.0,-2.5185,-2.6733,0.0,-2.7263,-2.7828,-2.8525,-2.927,-3.0453,-3.1791,-3.3294,-3.4406,-3.5487,-3.653,-3.7761,-3.8425,-3.8472,-3.9428,-4.032,-4.1153,-4.1929,-4.2723,-4.3492,-4.3492,-4.3492,-4.3501,-4.3022,-4.2843,-4.2817,-4.1545,-4.0331,-3.9114,-3.741,-3.6719,-3.6657,-3.653,-3.6301,-3.6009,-3.5899,-3.5768,-3.5625,-3.5271,-3.4351,-3.3319,-3.2813,-3.2351,-3.2074,-3.2552,-3.3198,-3.3812,-3.4058,-3.4628,-3.5044,-3.4597,-3.4828,-3.4828,-3.3644,-3.3213,-3.2705,-3.1551,-3.0443,-2.9602,-2.9356,-2.891,-2.8664,-2.8925,-2.9196,-2.9581,-3.0243,-3.0582,-3.0582,-3.0079,-2.9863,-2.9371,-2.8488,-2.8411,-2.8011,-2.7088,-2.6543,-2.5626,-2.4236,-2.3274,-2.1902,-2.0035,-1.856,-1.6772,0.0,0.0,0.0,0.0,0.0,0.0,0.0,0.0,0.0,0.0,0.0,0.0,0.0,0.0,0.0,0.0,0.0,0.0,0.0,0.0,0.0,0.0,0.0,0.0,0.0,-2.3925,-2.6477,-2.7997,-2.9574,-3.05,-3.0481,-3.0835,-3.1496,-3.2497,-3.3186,-3.4338,-3.6144,-3.6768,-3.7581,-3.8647,-3.9327,-3.972,-3.9775,-4.0478,-4.1237,-4.209,-4.2869,-4.364,-4.4394,-4.4394,-4.4394,-4.4386,-4.3906,-4.3735,-4.3795,-4.3537,-4.2739,-4.1501,-4.0107,-3.9532,-3.94,-3.8782,-3.8301,-3.789,-3.7045,-3.6548,-3.6253,-3.5952,-3.5552,-3.509,-3.4583,-3.4445,-3.4445,-3.4445,-3.4783,-3.5183,-3.5183,-3.5506,-3.5737,-3.529,-3.5521,-3.5507,-3.4352,-3.3921,-3.3567,-3.2859,-3.1659,-3.0751,-3.0751,-3.054,-3.0402,-3.0402,-3.0586,-3.0905,-3.132,-3.1213,-3.0894,-3.0448,-3.0002,-2.9356,-2.8488,-2.8411,-2.8027,-2.7119,-2.6641,-2.5898,-2.4783,-2.3827,-2.2673,-2.1239,-1.9412,-1.7225,-1.4616,0.0,0.0,0.0,0.0,0.0,0.0,0.0,0.0,0.0,0.0,0.0,0.0,0.0,0.0,0.0,0.0,0.0,0.0,0.0,0.0,0.0,0.0,0.0,-2.3608,-2.6402,-2.8939,-3.0434,-3.2021,-3.2969,-3.2941,-3.2938,-3.3516,-3.4907,-3.5672,-3.639,-3.7125,-3.8717,-3.954,-3.9433,-4.0271,-4.0648,-4.0568,-4.1386,-4.2207,-4.3057,-4.3889,-4.4682,-4.5397,-4.5397,-4.5397,-4.5397,-4.5397,-4.5397,-4.5328,-4.463,-4.4328,-4.4259,-4.35,-4.3131,-4.2894,-4.1844,-4.109,-4.032,-3.8232,-3.7106,-3.6584,-3.6584,-3.6584,-3.6584,-3.6569,-3.6522,-3.6522,-3.6492,-3.6492,-3.6492,-3.6492,-3.6492,-3.6492,-3.6492,-3.6492,-3.6307,-3.563,-3.4998,-3.432,-3.3552,-3.2336,-3.147,-3.1413,-3.0905,-3.0463,-3.0463,-3.1012,0.0,-3.1439,-3.1967,-3.1874,-3.0571,-3.0386,-2.9833,-2.855,-2.8396,-2.7796,-2.6472,-2.6387,-2.5705,-2.4248,-2.3696,-2.2958,-2.2004,-1.9314,-1.6658,-1.4023,0.0,0.0,0.0,0.0,0.0,0.0,0.0,0.0,0.0,0.0,0.0,0.0,0.0,0.0,0.0,0.0,0.0,0.0,0.0,0.0,0.0,-2.493,-2.665,-2.6258,-2.8372,-3.0762,-3.2867,-3.3973,-3.5007,-3.6107,-3.6109,-3.644,-3.7362,-3.7581,-3.8043,-3.8854,-3.9347,-3.9875,-4.0466,-4.0642,-4.0978,-4.1567,-4.1717,-4.2515,-4.3967,-4.4182,-4.4682,-4.5397,-4.5397,-4.5397,-4.5397,-4.5397,-4.5397,-4.538,-4.5173,-4.5113,-4.4975,-4.3707,-4.3182,-4.3097,-4.2544,-4.1735,-4.0766,-3.993,-3.9255,-3.8732,-3.8576,-3.845,-3.8198,-3.7622,-3.7341,-3.7123,-3.663,-3.6492,-3.6492,-3.6492,-3.6492,-3.6492,-3.6492,-3.6492,-3.6307,-3.563,-3.5367,-3.4845,-3.3644,-3.3106,-3.269,-3.2198,-3.1967,-3.1859,-3.1859,-3.2013,-3.2121,-3.2121,-3.1844,-3.152,-3.1151,-3.0274,-2.9525,-2.9156,-2.8242,-2.7288,-2.6373,-2.5865,-2.5182,-2.4233,-2.3861,-2.3038,-2.167,-1.9796,-1.8105,0.0,0.0,0.0,0.0,0.0,0.0,0.0,0.0,0.0,0.0,0.0,0.0,0.0,0.0,0.0,0.0,0.0,0.0,0.0,0.0,0.0,0.0,-2.7835,-2.9886,-3.0075,-3.1229,-3.2693,-3.4352,-3.5508,-3.6529,-3.7409,-3.7705,-3.8143,-3.8883,-3.8917,-3.9261,-4.0111,-4.0145,-4.0375,-4.0894,-4.1109,-4.1488,-4.2016,-4.2555,-4.3355,-4.4311,-4.4596,-4.4992,-4.5397,-4.5397,-4.5397,-4.5397,-4.5397,-4.5397,-4.5397,-4.5397,-4.5397,-4.5311,0.0,0.0,0.0,0.0,-4.2453,-4.1415,-4.1087,-4.0564,-4.0041,-3.9874,-3.9534,-3.9093,-3.8607,-3.7995,-3.7415,-3.703,-3.6707,-3.6492,-3.6492,-3.6492,-3.6492,-3.6492,-3.6492,-3.6384,-3.5984,-3.5722,-3.5245,-3.4429,-3.3798,0.0,-3.289,-3.2582,-3.2398,-3.2398,-3.2398,-3.2398,-3.2398,-3.2044,-3.1705,-3.1439,-3.0458,-2.9694,-2.9417,-2.8427,0.0,0.0,0.0,-2.5391,-2.4567,-2.46,0.0,0.0,0.0,0.0,0.0,-1.8232,0.0,0.0,-1.6336,-1.6977,0.0,0.0,0.0,0.0,0.0,0.0,0.0,0.0,0.0,0.0,0.0,0.0,0.0,0.0,0.0,0.0,-3.0196,-3.2645,-3.4044,-3.4303,-3.4576,-3.5249,-3.6615,-3.753,-3.7616,-3.8306,-3.9026,-3.9767,-3.9836,-4.017,-4.086,-4.0912,0.0,0.0,0.0,-4.205,-4.2137,-4.3569,-4.4345,-4.4432,-4.5096,-4.5397,-4.5397,-4.5397,-4.5397,-4.5397,-4.5397,-4.5397,-4.5397,-4.5397,-4.5397,-4.5397,-4.5397,-4.5397,-4.5284,-4.4386,-4.335,-4.2338,-4.2032,0.0,0.0,-4.0909,-4.0401,-3.9833,-3.9582,-3.8653,-3.7664,-3.7555,-3.7046,-3.6492,-3.6492,-3.6492,-3.6492,-3.6492,-3.6492,-3.6492,-3.6492,-3.6014,-3.5598,-3.5521,-3.4414,-3.3506,-3.3413,-3.2844,-3.2398,-3.2398,-3.2398,-3.2398,-3.2398,-3.2398,-3.2167,-3.1593,-3.0859,0.0,-2.9556,-2.8765,-2.8042,-2.7442,-2.6765,-2.6036,-2.5187,-2.5606,-2.5054,-2.3362,-2.3091,-2.203,-2.0152,-2.0489,-2.0476,-2.0165,-1.9015,-1.9326,0.0,0.0,0.0,0.0,0.0,0.0,0.0,0.0,0.0,0.0,0.0,0.0,0.0,0.0,0.0,-2.9765,-3.2559,-3.4645,-3.4938,-3.549,-3.5921,-3.6059,-3.6904,-3.7737,-3.8341,-3.9043,-3.9819,-4.0618,-4.067,-4.0739,-4.0894,-4.0912,-4.0912,-4.0912,-4.1619,-4.2327,-4.2965,-4.3845,-4.4596,-4.5173,-4.5328,0.0,-4.5397,-4.5397,-4.5397,-4.5397,-4.5397,-4.5397,-4.5397,-4.5397,-4.5397,-4.5397,-4.5397,-4.5397,-4.5353,-4.5049,-4.4636,-4.4183,-4.399,-4.3709,-4.3319,-4.3072,-4.2638,-4.2004,-4.1037,-3.9803,0.0,-3.7933,-3.7141,-3.6492,-3.6492,-3.6492,-3.6492,-3.6492,-3.6492,-3.6492,-3.6492,-3.6384,-3.6138,-3.5614,-3.4844,-3.412,-3.3506,-3.2844,-3.2398,-3.2398,-3.2398,-3.2398,-3.2398,-3.2398,-3.2336,-3.2213,-3.1136,-3.034,-3.0217,-2.8611,-2.7534,-2.7411,-2.6765,-2.6334,-2.6135,-2.613,-2.5849,-2.5265,-2.4838,-2.411,-2.302,-2.2756,-2.2616,-2.2504,-2.1355,-2.1028,0.0,0.0,0.0,0.0,0.0,0.0,0.0,0.0,0.0,0.0,0.0,-2.4319,-2.6287,0.0,-3.1041,-3.2215,-3.4283,-3.5749,-3.5749,-3.6059,-3.6439,-3.6853,-3.7577,-3.8336,-3.9077,-3.9859,-4.048,-4.0877,-4.0912,-4.0912,-4.0912,-4.0912,-4.1067,-4.1447,-4.2206,-4.2965,-4.3741,-4.4475,-4.5044,-4.5397,-4.5397,-4.5397,-4.5397,-4.5397,-4.5397,-4.5397,-4.5397,-4.5397,-4.5397,-4.5397,-4.5397,-4.5397,-4.5397,-4.5397,-4.5397,-4.5327,-4.5177,-4.5042,-4.4961,-4.478,-4.4586,-4.4361,-4.3898,-4.3267,-4.2456,-4.0891,-3.9235,-3.8717,-3.7545,-3.6492,-3.6492,-3.6492,-3.6492,-3.6492,-3.6492,-3.6492,-3.6492,-3.6492,-3.6384,-3.6061,-3.5198,-3.4382,-3.3998,-3.3075,-3.2398,-3.2398,-3.2398,-3.2398,-3.2398,-3.2398,-3.2398,-3.2398,-3.1505,-3.074,-3.0432,-2.8873,-2.7765,-2.7411,-2.7396,-2.7242,-2.6903,-2.7164,-2.7024,-2.6425,-2.6031,-2.5393,-2.4446,-2.4123,-2.4041,-2.4189,-2.3625,-2.3321,0.0,0.0,0.0,0.0,0.0,0.0,0.0,-2.1536,-2.2494,-2.4299,-2.6255,-2.7939,-2.8885,-3.1282,-3.3386,-3.4199,-3.5421,-3.6301,-3.6301,-3.6301,-3.6646,-3.7616,-3.8254,-3.8888,-3.9629,-4.0446,-4.0912,-4.0912,-4.0912,-4.0912,-4.0912,-4.0912,-4.124,-4.1999,-4.2775,-4.3552,-4.4294,-4.5044,-4.5397,-4.5397,-4.5397,-4.5397,-4.5397,-4.5397,-4.5397,-4.5397,-4.5397,-4.5397,-4.5397,-4.5397,-4.5397,-4.5397,-4.5397,-4.5397,-4.5397,-4.5397,-4.5397,-4.5397,-4.5397,-4.5344,-4.522,-4.5086,-4.4597,-4.3997,-4.3515,-4.1768,-3.9894,-3.944,-3.8028,-3.6661,-3.6522,-3.6492,-3.6492,-3.6492,-3.6492,-3.6492,-3.6492,-3.6492,-3.6492,-3.6492,-3.5429,-3.4505,-3.4505,-3.3349,-3.2398,-3.2398,-3.2398,-3.2398,-3.2398,-3.2398,-3.2398,-3.2398,-3.1782,-3.1074,-3.0263,-2.9227,-2.8319,-2.7642,-2.8104,-2.8165,-2.7611,-2.8242,-2.8238,-2.7479,-2.7303,-2.6735,-2.5777,-2.5458,-2.5326,-2.5435,-2.548,-2.5389,-1.8758,-1.9599,-2.0716,-2.0801,-2.1363,-2.2307,0.0,-2.4313,-2.5054,-2.7342,-2.8577,-2.9679,-3.1145,-3.28,-3.4217,-3.4956,-3.5766,-3.6301,-3.6301,-3.6301,-3.6835,-3.8284,-3.8565,-3.8888,-3.9629,-4.0446,-4.0912,-4.0912,-4.0912,-4.0912,-4.0912,-4.0912,-4.124,-4.1999,-4.2775,-4.3552,-4.4294,-4.5044,-4.5397,-4.5397,-4.5397,-4.5397,-4.5397,-4.5397,-4.5397,-4.5397,-4.5397,-4.5397,-4.5397,-4.5397,-4.5397,-4.5397,-4.5397,-4.5397,-4.5397,-4.5397,-4.5397,-4.5397,-4.5397,-4.5397,-4.5371,-4.522,-4.4835,-4.4316,-4.3739,-4.2341,-4.0704,-3.9614,-3.837,-3.7246,-3.6645,-3.6492,-3.6492,-3.6492,-3.6492,-3.6492,-3.6492,-3.6492,-3.6492,-3.6492,-3.5429,-3.4505,-3.4505,-3.3349,-3.2398,-3.2398,-3.2398,-3.2398,-3.2398,-3.2398,-3.2398,-3.2398,-3.1782,-3.0889,-2.9602,-2.9356,-2.9012,-2.8334,-2.8365,-2.8365,-2.8288,-2.8925,-2.9248,-2.9131,-2.934,-2.9015,-2.8204,-2.7641,-2.6957,-2.6184,-2.6546,-2.6362,-2.0856,-2.1651,-2.2697,-2.3545,-2.4323,-2.5167,-2.6397,-2.7384,-2.8494,-3.0022,-3.1661,-3.3007,-3.3662,-3.4645,-3.5473,-3.5783,-3.6094,-3.6301,-3.6301,-3.6301,-3.6715,-3.784,-3.8336,-3.906,-4.0267,-4.0705,-4.0912,-4.0912,-4.0912,-4.0912,-4.0912,-4.1309,-4.1912,-4.2672,-4.3448,-4.4207,-4.4941,-4.5242,-4.5638,-4.6086,-4.6086,-4.631,-4.6724,-4.6724,-4.65,-4.6069,-4.5604,-4.5397,-4.5397,-4.5397,-4.5397,-4.5397,-4.5397,-4.5397,-4.5397,-4.5397,-4.5397,-4.5397,-4.5397,-4.5397,-4.5371,-4.523,-4.4961,-4.4513,-4.3914,-4.2542,-4.1067,-4.0293,-3.8824,-3.7446,-3.7153,-3.6784,-3.6492,-3.6492,-3.6492,-3.6492,-3.6492,-3.6492,-3.6492,-3.6492,-3.5429,-3.4505,-3.4505,-3.3349,-3.2398,-3.2398,-3.2398,-3.2398,-3.2398,-3.2398,-3.2398,-3.2398,-3.1782,-3.1166,-3.0612,-3.0212,-2.9848,-2.9571,-2.9556,-2.9556,-2.9556,-2.9833,-2.9971,-2.9971,-3.0014,-2.9654,-2.89,-2.8552,-2.8064,-2.7417,-2.7569,-2.7512,-2.2395,-2.3475,-2.4623,-2.5692,-2.669,-2.7658,-2.8562,-2.9623,-3.0688,-3.1609,-3.3266,-3.4559,-3.4559,-3.5352,-3.599,-3.599,-3.6163,-3.6301,-3.6301,-3.649,-3.6904,-3.7719,-3.8439,-3.9422,-4.0774,-4.0912,-4.0912,-4.0912,-4.0912,-4.0998,-4.1205,-4.1723,-4.2465,-4.3465,-4.4018,-4.4647,-4.5397,-4.5397,-4.5793,-4.6613,-4.6613,-4.6993,-4.7689,-4.7689,-4.732,-4.6579,-4.5966,-4.5604,-4.5397,-4.5397,-4.5397,-4.5397,-4.5397,-4.5397,-4.5397,-4.5397,-4.5397,-4.5397,-4.5397,-4.5397,-4.5371,-4.523,-4.4944,-4.4541,-4.3943,-4.2703,-4.1372,-4.0721,-3.9183,-3.7738,-3.7554,-3.6999,-3.6492,-3.6492,-3.6492,-3.6492,-3.6492,-3.6492,-3.6492,-3.6492,-3.5583,-3.472,-3.4536,-3.3503,-3.2613,-3.2428,-3.2398,-3.2398,-3.2398,-3.2398,-3.2398,-3.2398,-3.1951,-3.1609,-3.1424,-3.0951,-3.0586,-3.0402,-3.0402,-3.0402,-3.0402,-3.0571,-3.0689,-3.0689,-3.0742,-3.0455,-2.9822,-2.9642,-2.9276,-2.8822,-2.8731,-2.8643,-2.3173,-2.5028,-2.6791,-2.6842,-2.8049,-2.9434,-3.0244,-3.045,-3.0744,-3.1609,-3.2421,-3.2972,-3.2972,-3.4214,-3.5232,-3.5232,-3.5835,-3.6301,-3.6301,-3.6956,-3.7754,-3.8496,-3.9215,-3.9974,-4.0825,-4.0912,-4.0912,-4.0912,-4.0912,-4.1222,-4.1947,-4.1999,-4.2706,-4.4225,-4.4294,-4.4647,-4.5397,-4.5397,-4.5793,-4.6613,-4.6613,-4.6993,-4.7689,-4.7689,-4.732,-4.6613,-4.6579,-4.6104,-4.5397,-4.5397,-4.5397,-4.5397,-4.5397,-4.5397,-4.5397,-4.5397,-4.5397,-4.5397,-4.5397,-4.5397,-4.5371,-4.523,-4.4906,-4.439,-4.3785,-4.2896,-4.1837,-4.0638,-3.9428,-3.8323,-3.7677,-3.6999,-3.6492,-3.6492,-3.6492,-3.6492,-3.6492,-3.6492,-3.6492,-3.6492,-3.5922,-3.5275,-3.4613,-3.386,-3.3152,-3.249,-3.2398,-3.2398,-3.2398,-3.2398,-3.2398,-3.2398,-3.2382,-3.2105,-3.147,-3.1366,-3.1089,-3.0432,-3.0402,-3.0402,-3.0402,-3.1028,-3.1378,-3.1378,-3.1876,-3.1962,-3.1622,-3.1289,-3.0881,-3.0435,-3.0119,-2.969,-2.5366,-2.6672,-2.7896,-2.8971,-2.9638,-3.0238,-3.1049,-3.1634,-3.1981,-3.1833,-3.2386,-3.2904,-3.2904,-3.3317,-3.4007,-3.5025,-3.5404,-3.5921,-3.696,-3.734,-3.7771,-3.8491,-3.925,-3.9802,-4.0077,-4.0601,-4.0912,-4.0912,-4.136,-4.1757,-4.1999,-4.2982,-4.3759,-4.4276,-4.4768,-4.5139,-4.5397,-4.5397,-4.6052,-4.7355,-4.781,-4.8189,-4.8396,-4.7414,-4.6837,-4.6579,-4.6035,-4.5656,-4.5397,-4.5397,-4.5397,-4.5397,-4.5397,-4.5397,-4.5397,-4.5397,-4.5397,-4.5397,-4.5397,-4.5397,-4.5371,-4.514,-4.4642,-4.4059,-4.3459,-4.257,-4.1545,-4.0457,-3.9361,-3.8354,-3.7677,-3.6999,-3.6492,-3.6492,-3.6492,-3.6492,-3.6492,-3.6492,-3.6492,-3.6492,-3.5953,-3.5306,-3.4628,-3.3875,-3.3167,-3.249,-3.2398,-3.2398,-3.2398,-3.2398,-3.2398,-3.2398,-3.2398,-3.2305,-3.2074,-3.2044,-3.1967,-3.1751,-3.1736,-3.1736,-3.1736,-3.1936,-3.2044,-3.2044,-3.2247,-3.2191,-3.1896,-3.1796,-3.1495,-3.1029,-3.0925,-3.0539,-2.6944,-2.8288,-2.9502,-3.0239,-3.0876,-3.1358,-3.162,-3.1879,-3.1932,-3.1507,-3.1351,-3.1369,-3.1645,-3.1921,-3.261,-3.4128,-3.4835,-3.5732,-3.7288,-3.7737,-3.8185,-3.8905,-3.9664,-4.0112,-4.0112,-4.0601,-4.0912,-4.0912,-4.1585,-4.2137,-4.2413,-4.3621,-4.4432,-4.4665,-4.5139,-4.5397,-4.5397,-4.5397,-4.6035,-4.7338,-4.8034,-4.8396,-4.8361,-4.7441,-4.6855,-4.6579,-4.6035,-4.5656,-4.5397,-4.5397,-4.5397,-4.5397,-4.5397,-4.5397,-4.5397,-4.5397,-4.5397,-4.5397,-4.5397,-4.5397,-4.5344,-4.5103,-4.4502,-4.381,-4.3279,-4.2349,-4.1329,-4.0638,-3.9497,-3.8415,-3.7984,-3.7184,-3.6492,-3.6492,-3.6492,-3.6492,-3.6492,-3.6492,-3.6492,-3.6492,-3.6138,-3.5583,-3.4659,-3.3675,-3.2906,-3.2459,-3.2398,-3.2398,-3.2398,-3.2398,-3.2398,-3.2398,-3.2398,-3.2398,-3.2398,-3.2398,-3.2398,-3.2398,-3.2398,-3.2398,-3.2398,-3.2398,-3.2398,-3.2398,-3.2398,-3.233,-3.215,-3.215,-3.1994,-3.1695,-3.1653,-3.1336,-2.7964,-2.993,-3.1568,-3.0812,-3.1779,-3.2697,-3.1921,-3.1162,-3.061,-3.0524,-2.9317,-2.8506,-2.9248,-3.0041,-3.1093,-3.2645,-3.4162,-3.5697,-3.7288,-3.8112,-3.887,-3.9612,-4.0405,-4.0912,-4.0912,-4.0912,-4.0912,-4.0912,-4.1619,-4.2396,-4.3155,-4.3931,-4.4665,-4.538,-4.5397,-4.5397,-4.5397,-4.5432,-4.5828,-4.6613,-4.7293,-4.762,-4.762,-4.7586,-4.7189,-4.6544,-4.6544,-4.6104,-4.5397,-4.5432,-4.5466,-4.5466,-4.55,-4.5483,-4.5466,-4.5466,-4.5432,-4.5397,-4.5397,-4.5397,-4.5344,-4.5086,-4.4429,-4.3693,-4.3218,-4.2238,-4.1256,-4.1088,-3.9838,-3.8554,-3.8477,-3.7507,-3.6538,-3.6507,-3.6492,-3.6492,-3.6492,-3.6492,-3.6492,-3.6492,-3.643,-3.5984,-3.472,-3.3349,-3.2398,-3.2398,-3.2398,-3.2398,-3.2398,-3.2398,-3.2398,-3.2398,-3.2398,-3.2398,-3.2398,-3.2398,-3.2398,-3.2398,-3.2398,-3.2398,-3.2398,-3.2398,-3.2398,-3.2398,-3.2398,-3.2398,-3.2398,-3.2398,-3.2398,-3.2398,-3.2274,-3.2023,-3.0189,-3.1634,-3.2479,-3.233,-3.2591,-3.2559,-3.1265,-3.0368,-2.9489,-2.8385,-2.7385,-2.6937,-2.7713,-2.8472,-2.9851,-3.2472,-3.3731,-3.5114,-3.7219,-3.8112,-3.887,-3.9612,-4.0405,-4.0912,-4.0912,-4.0912,-4.0912,-4.0912,-4.2137,-4.2982,-4.3189,-4.4423,-4.5207,-4.5397,-4.5397,-4.5397,-4.5397,-4.5983,-4.6406,-4.6613,-4.6803,-4.6889,-4.6872,-4.6259,-4.588,-4.5707,-4.5707,-4.5587,-4.5449,-4.6035,-4.6276,-4.6345,-4.6896,-4.6776,-4.6276,-4.6276,-4.5897,-4.5397,-4.5397,-4.5397,-4.5344,-4.4968,-4.4259,-4.3469,-4.288,-4.1981,-4.0995,-4.0313,-3.9691,-3.9031,-3.8015,-3.7507,-3.7123,-3.6615,-3.6492,-3.6492,-3.6492,-3.6492,-3.6492,-3.6492,-3.5706,-3.4905,-3.4566,-3.3349,-3.2398,-3.2398,-3.2398,-3.2398,-3.2398,-3.2398,-3.2398,-3.2398,-3.2398,-3.2398,-3.2398,-3.2398,-3.2398,-3.2398,-3.2398,-3.2398,-3.2398,-3.2398,-3.2398,-3.2398,-3.2398,-3.2398,-3.2398,-3.2398,-3.2398,-3.2398,-3.237,-3.2191,-3.1617,-3.2773,-3.3294,-3.2971,-3.2904,-3.2421,-3.0593,-2.9317,-2.8109,-2.6592,-2.5402,-2.4836,-2.5626,-2.6385,-2.7902,-3.092,-3.2628,-3.4369,-3.6646,-3.7905,-3.887,-3.9612,-4.0405,-4.0912,-4.0912,-4.0912,-4.1032,-4.136,-4.2516,-4.3189,-4.3189,-4.4613,-4.5397,-4.5397,-4.5397,-4.5397,-4.5397,-4.5845,-4.6069,-4.6069,-4.6414,-4.6613,-4.6596,-4.6121,-4.5914,-4.5914,-4.5914,-4.5914,-4.5983,-4.6741,-4.7096,-4.7103,-4.7562,-4.7269,-4.6613,-4.6613,-4.6086,-4.5397,-4.5397,-4.5397,-4.5344,-4.4995,-4.4333,-4.3529,-4.2972,-4.2061,-4.1078,-4.0518,-3.9957,-3.9339,-3.8585,-3.7938,-3.74,-3.703,-3.6707,-3.6492,-3.6492,-3.6492,-3.6492,-3.6492,-3.566,-3.4859,-3.4551,-3.3567,-3.2736,-3.2444,-3.2398,-3.2398,-3.2398,-3.2398,-3.2398,-3.2398,-3.2398,-3.2398,-3.2398,-3.2398,-3.2398,-3.2398,-3.2398,-3.2398,-3.2398,-3.2398,-3.2398,-3.2398,-3.2398,-3.2398,-3.2398,-3.2398,-3.2398,-3.2398,-3.2398,-3.2315,-3.2391,-3.3449,-3.3889,-3.2972,-3.2835,-3.2248,-2.9782,-2.8058,-2.6557,-2.5023,-2.3457,-2.2647,-2.3509,-2.4301,-2.5833,-2.8868,-3.1179,-3.3404,-3.568,-3.7404,-3.8715,-3.9457,-4.0359,-4.0912,-4.0912,-4.0998,-4.1309,-4.1964,-4.2844,-4.3345,-4.3345,-4.4665,-4.5397,-4.5397,-4.5397,-4.5397,-4.5397,-4.55,-4.5552,-4.5569,-4.6362,-4.6751,-4.6751,-4.6648,-4.6613,-4.6613,-4.6613,-4.6613,-4.6665,-4.7482,-4.7844,-4.7872,-4.7948,-4.7562,-4.6889,-4.6786,-4.6224,-4.5535,-4.5432,-4.5397,-4.5344,-4.5103,-4.4485,-4.3752,-4.3262,-4.2301,-4.1323,-4.1153,-4.0396,-3.9598,-3.9505,-3.8585,-3.7615,-3.7523,-3.6984,-3.6492,-3.6492,-3.6492,-3.6492,-3.6492,-3.5953,-3.5306,-3.4628,-3.3875,-3.3167,-3.249,-3.2398,-3.2398,-3.2398,-3.2398,-3.2398,-3.2398,-3.2398,-3.2398,-3.2398,-3.2398,-3.2398,-3.2398,-3.2398,-3.2398,-3.2398,-3.2398,-3.2398,-3.2398,-3.2398,-3.2398,-3.2398,-3.2398,-3.2398,-3.2398,-3.2398,-3.2398,-3.2452,-3.349,-3.3768,-3.2334,-3.2455,-3.199,-2.8472,-2.6506,-2.4971,-2.3405,-2.1871,-2.1234,-2.263,-2.3509,-2.5008,-2.8092,-2.9989,-3.1869,-3.4145,-3.6339,-3.7961,-3.8698,-4.0049,-4.0912,-4.0912,-4.1464,-4.1861,-4.1999,-4.331,-4.4121,-4.4121,-4.4941,-4.5397,-4.5397,-4.5397,-4.5397,-4.5397,-4.6052,-4.6379,-4.6406,-4.7165,-4.75,-4.751,-4.6889,-4.6613,-4.6613,-4.6613,-4.6613,-4.6717,-4.8034,-4.8603,-4.8672,-4.9355,-4.9131,-4.8327,-4.7724,-4.7044,-4.632,-4.5621,-4.5397,-4.5344,-4.5103,-4.4625,-4.4021,-4.3456,-4.2522,-4.164,-4.1357,-4.0808,-4.0197,-3.9628,-3.8923,-3.82,-3.7631,-3.6984,-3.6492,-3.6492,-3.6492,-3.6492,-3.6492,-3.5953,-3.5306,-3.4628,-3.3875,-3.3167,-3.249,-3.2398,-3.2398,-3.2398,-3.2398,-3.2398,-3.2398,-3.2398,-3.2398,-3.2398,-3.2398,-3.2398,-3.2398,-3.2398,-3.2398,-3.2398,-3.2398,-3.2398,-3.2398,-3.2398,-3.2398,-3.2398,-3.2398,-3.2398,-3.2398,-3.2398,-3.2398,-3.2591,-3.3179,-3.3197,-3.2076,-3.1783,-3.0851,-2.7454,-2.5473,-2.3836,-2.1906,-2.0613,-2.005,-2.0785,-2.1871,-2.3526,-2.6195,-2.8575,-3.0869,-3.3145,-3.5804,-3.7771,-3.8491,-3.9963,-4.0912,-4.0912,-4.1585,-4.2189,-4.2603,-4.3672,-4.4311,-4.4311,-4.501,-4.5397,-4.5397,-4.5397,-4.5397,-4.5397,-4.619,-4.6613,-4.6613,-4.7724,-4.8051,-4.77,-4.731,-4.6975,-4.6631,-4.7027,-4.7182,-4.7303,-4.8821,-4.9441,-4.9476,-4.9855,-4.9528,-4.8758,-4.8396,-4.7551,-4.6544,-4.6155,-4.5742,-4.5371,-4.5264,-4.4889,-4.4367,-4.3735,-4.2863,-4.1965,-4.1573,-4.0987,-4.0428,-4.009,-3.9244,-3.8431,-3.8108,-3.723,-3.6492,-3.6492,-3.6492,-3.6492,-3.6492,-3.623,-3.5799,-3.5152,-3.4736,-3.426,-3.3596,-3.3167,-3.2921,-3.2921,-3.2613,-3.2398,-3.2398,-3.2398,-3.2398,-3.2398,-3.2398,-3.2398,-3.2398,-3.2398,-3.2398,-3.2398,-3.2398,-3.2398,-3.2398,-3.2398,-3.2398,-3.2398,-3.2398,-3.2398,-3.2398,-3.2398,-3.2398,-3.2472,-3.2783,-3.2645,-3.1576,-3.0869,-2.9644,-2.6575,-2.4543,-2.2767,-2.0791,-1.97,-1.9114,-1.9269,-2.0286,-2.1854,-2.4143,-2.6782,-2.9455,-3.2059,-3.5059,-3.7387,-3.8456,-3.9963,-4.0912,-4.0912,-4.1723,-4.2516,-4.3155,-4.4035,-4.4552,-4.4552,-4.5096,-4.5397,-4.5397,-4.5397,-4.5397,-4.5397,-4.6345,-4.6855,-4.6855,-4.8355,-4.8654,-4.7913,-4.7758,-4.732,-4.6648,-4.7217,-4.7534,-4.7793,-4.92,-4.9855,-5.0011,-5.0011,-4.9631,-4.9034,-4.8844,-4.7965,-4.682,-4.6665,-4.6069,-4.5397,-4.5397,-4.515,-4.4735,-4.4128,-4.3259,-4.2332,-4.1835,-4.1122,-4.0489,-4.0489,-3.9524,-3.8431,-3.8138,-3.7261,-3.6492,-3.6492,-3.6492,-3.6492,-3.6492,-3.6492,-3.6276,-3.5629,-3.5506,-3.5275,-3.4597,-3.4027,-3.3583,-3.3413,-3.2936,-3.2552,-3.2413,-3.2398,-3.2398,-3.2398,-3.2398,-3.2398,-3.2398,-3.2398,-3.2398,-3.2398,-3.2398,-3.2398,-3.2398,-3.2398,-3.2398,-3.2398,-3.2398,-3.2459,-3.2613,-3.2613,-3.269,-3.1661,-3.2386,-3.2386,-3.0248,-2.9661,-2.8816,-2.5799,-2.3402,-2.1544,-2.0584,-1.9286,-1.851,-1.9183,-1.9424,-2.0268,-2.2543,-2.4319,-2.6695,-3.0368,-3.3507,-3.6197,-3.8336,-3.9963,-4.0912,-4.0912,-4.2223,-4.312,-4.3189,-4.4509,-4.5294,-4.5294,-4.5363,-4.5397,-4.5397,-4.5397,-4.5397,-4.5397,-4.6845,-4.7614,-4.7631,-4.9166,-4.9476,-4.8672,-4.8,-4.732,-4.6613,-4.6682,-4.7096,-4.7741,-4.8568,-4.9327,-5.0011,-5.0011,-4.9959,-4.9804,-4.9051,-4.8275,-4.7482,-4.6837,-4.6069,-4.5397,-4.5397,-4.5371,-4.522,-4.4614,-4.3718,-4.2831,-4.2206,-4.129,-4.0489,-4.0489,-3.9524,-3.82,-3.6969,-3.6584,-3.6492,-3.6492,-3.6492,-3.6492,-3.6492,-3.6492,-3.6276,-3.5629,-3.5506,-3.5275,-3.4597,-3.4443,-3.4166,-3.349,-3.3352,-3.3075,-3.2459,-3.2398,-3.2398,-3.2398,-3.2398,-3.2398,-3.2398,-3.2398,-3.2398,-3.2398,-3.2398,-3.2398,-3.2398,-3.2398,-3.2398,-3.2398,-3.2398,-3.2705,-3.3306,-3.3306,-3.366,-3.0902,-3.1679,-3.18,-2.9972,-2.9179,-2.804,-2.4974,-2.2888,-2.1251,-2.001,-1.8924,-1.8286,-1.8579,-1.901,-1.9906,-2.1733,-2.3698,-2.6178,-2.9506,-3.261,-3.5197,-3.6991,-3.8957,-4.0164,-4.0164,-4.2016,-4.3569,-4.4458,-4.5052,-4.5397,-4.5397,-4.5397,-4.5397,-4.5397,-4.5397,-4.5397,-4.5397,-4.6483,-4.7044,-4.7034,-4.8114,-4.8234,-4.7476,-4.7182,-4.6603,-4.5897,-4.6406,-4.6786,-4.7113,-4.781,-4.8338,-4.8665,-4.9114,-4.9275,-4.9223,-4.8913,-4.8327,-4.7569,-4.6872,-4.6069,-4.5397,-4.5397,-4.5344,-4.5194,-4.4642,-4.3806,-4.2876,-4.2269,-4.1323,-4.0489,-4.0489,-3.9524,-3.8169,-3.6815,-3.6492,-3.6492,-3.6492,-3.6492,-3.6492,-3.6492,-3.6492,-3.6415,-3.6138,-3.6091,-3.5999,-3.5722,-3.5367,-3.5013,-3.4691,-3.4291,-3.3966,-3.3704,-3.2906,-3.2398,-3.2398,-3.2398,-3.2398,-3.2398,-3.2398,-3.2398,-3.2398,-3.2398,-3.2398,-3.2398,-3.2398,-3.2398,-3.2398,-3.2798,-3.3136,-3.3413,-3.3844,-3.4227,-3.0334,-3.1076,-3.1162,-2.9834,-2.8782,-2.7316,-2.4456,-2.2474,-2.0872,-1.9579,-1.8717,-1.82,-1.82,-1.8614,-1.9476,-2.0992,-2.2974,-2.5385,-2.842,-3.1489,-3.3955,-3.5473,-3.7646,-3.9129,-3.9353,-4.1688,-4.3724,-4.4992,-4.5276,-4.5397,-4.5397,-4.5397,-4.5397,-4.5397,-4.5397,-4.5397,-4.5397,-4.619,-4.6613,-4.6613,-4.7345,-4.7293,-4.6613,-4.6613,-4.6155,-4.5432,-4.5983,-4.6389,-4.6648,-4.7155,-4.7482,-4.7741,-4.8258,-4.8465,-4.8465,-4.8465,-4.8,-4.732,-4.6786,-4.6069,-4.5397,-4.5371,-4.5274,-4.5096,-4.4603,-4.3735,-4.2831,-4.2254,-4.1323,-4.0397,-3.9997,-3.9198,-3.8169,-3.6815,-3.6492,-3.6492,-3.6492,-3.6492,-3.6492,-3.6492,-3.6492,-3.6492,-3.6492,-3.6492,-3.6492,-3.6492,-3.6091,-3.5707,-3.5537,-3.5106,-3.472,-3.452,-3.3627,-3.3013,-3.3013,-3.2813,-3.269,-3.269,-3.2505,-3.2398,-3.2398,-3.2398,-3.249,-3.269,-3.269,-3.2798,-3.3013,-3.349,-3.3829,-3.4029,-3.4566,-3.4905,-3.0023,-3.0714,-3.0506,-2.9696,-2.8403,-2.6695,-2.4336,-2.2031,-2.0205,-1.9458,-1.8717,-1.82,-1.82,-1.82,-1.87,-2.017,-2.1716,-2.3798,-2.6885,-2.992,-3.2386,-3.3941,-3.6149,-3.7823,-3.8525,-4.1395,-4.35,-4.4259,-4.4992,-4.5397,-4.5397,-4.5397,-4.5397,-4.5397,-4.5397,-4.5397,-4.5397,-4.619,-4.6613,-4.6613,-4.7345,-4.7293,-4.6613,-4.6613,-4.6155,-4.5397,-4.5414,-4.5845,-4.6613,-4.6613,-4.7044,-4.7689,-4.7717,-4.7707,-4.7707,-4.7707,-4.7251,-4.6613,-4.6613,-4.6069,-4.5371,-4.5247,-4.5203,-4.5096,-4.4491,-4.3604,-4.2693,-4.2222,-4.1323,-4.0182,-3.8877,-3.8523,-3.8169,-3.6815,-3.6492,-3.6492,-3.6492,-3.6492,-3.6492,-3.6492,-3.6492,-3.6492,-3.6492,-3.6492,-3.6492,-3.6492,-3.6492,-3.6245,-3.5598,-3.5476,-3.5244,-3.4582,-3.4489,-3.4474,-3.4474,-3.3798,-3.3398,-3.3398,-3.2767,-3.2398,-3.2398,-3.2398,-3.2705,-3.3383,-3.3398,-3.3737,-3.4474,-3.4489,-3.4828,-3.5491,-3.5506,-3.583,-2.7043,-2.8334,-2.8816,-2.7506,-2.6833,-2.5747,-2.294,-2.132,-2.005,-1.8803,-1.8355,-1.82,-1.82,-1.82,-1.8683,-2.0153,-2.1686,-2.3781,-2.6868,-2.9903,-3.2369,-3.3923,-3.6563,-3.8962,-4.0733,-4.2309,-4.35,-4.4242,-4.4992,-4.5397,-4.5397,-4.5397,-4.5397,-4.5397,-4.5397,-4.5397,-4.5397,-4.5656,-4.5776,-4.5776,-4.6017,-4.6,-4.5776,-4.5776,-4.5638,-4.5397,-4.5397,-4.5535,-4.5776,-4.5776,-4.5914,-4.6173,-4.6724,-4.6958,-4.6958,-4.6958,-4.6803,-4.6527,-4.5966,-4.5551,-4.5247,-4.5203,-4.5086,-4.4841,-4.4423,-4.3604,-4.2537,-4.1325,-4.0749,-4.0182,-3.8862,-3.8508,-3.8169,-3.6815,-3.6492,-3.6492,-3.6492,-3.6492,-3.6492,-3.6492,-3.6492,-3.6492,-3.6492,-3.6492,-3.6492,-3.6492,-3.6492,-3.6415,-3.6199,-3.6168,-3.6091,-3.5876,-3.5891,-3.5506,-3.4582,-3.4289,-3.3921,-3.3429,-3.3198,-3.2875,-3.2413,-3.2844,-3.3183,-3.3398,-3.3891,-3.4274,-3.4505,-3.4967,-3.5537,-3.6168,-3.6168,-3.6292,-2.4937,-2.6514,-2.7168,-2.5913,-2.5397,-2.4468,-2.1734,-2.0501,-1.9579,-1.8392,-1.8162,-1.8162,-1.82,-1.82,-1.8683,-2.0153,-2.1686,-2.3664,-2.6454,-2.9713,-3.2679,-3.5114,-3.7305,-3.9272,-4.0957,-4.2396,-4.3379,-4.3845,-4.4837,-4.5397,-4.5397,-4.5397,-4.5397,-4.5397,-4.5397,-4.5397,-4.5397,-4.5397,-4.5397,-4.5397,-4.5397,-4.5397,-4.5397,-4.5397,-4.5397,-4.5397,-4.5397,-4.5397,0.0,-4.5397,-4.5397,-4.5449,-4.5949,-4.6165,-4.6165,-4.6165,-4.6165,-4.6069,-4.5516,-4.5274,-4.5177,-4.5086,-4.4814,-4.4423,-4.3827,-4.3108,-4.2237,-4.087,-4.0489,-4.0182,-3.8862,-3.8508,-3.8169,-3.6815,-3.6492,-3.6492,-3.6492,-3.6492,-3.6492,-3.6492,-3.6492,-3.6492,-3.6492,-3.6492,-3.6492,-3.6492,-3.6492,-3.6492,-3.6492,-3.6492,-3.6492,-3.6492,-3.6492,-3.6153,-3.5337,-3.5028,-3.469,-3.4214,-3.3937,-3.3614,-3.3198,-3.3583,-3.3921,-3.4183,-3.4659,-3.5013,-3.526,-3.566,-3.6076,-3.6492,-3.6492,-3.6492,0.0,-2.5039,-2.5483,-2.4797,-2.4127,-2.3031,-2.0797,-1.9674,0.0,-1.8246,-1.8102,-1.814,-1.8258,-1.8321,-1.8838,-2.0308,-2.1906,-2.3733,-2.6008,-2.9679,-3.349,-3.7219,-3.8249,-3.8957,-3.9698,-4.1861,-4.3189,-4.3189,-4.4578,-4.5397,-4.5397,-4.5397,-4.5397,-4.5397,-4.5397,-4.5397,-4.5397,-4.5397,-4.5397,-4.5397,-4.5397,-4.5397,-4.5397,-4.5397,-4.5397,-4.5397,-4.5397,-4.5397,-4.5397,-4.5397,-4.5397,-4.5397,-4.5397,-4.5397,-4.5397,-4.5397,-4.5371,-4.5344,-4.5247,-4.5177,-4.514,-4.4886,-4.4468,-4.3906,-4.2816,-4.2301,-4.1883,-4.0783,-4.0489,-4.0182,-3.8862,-3.8508,-3.8169,-3.6815,-3.6492,-3.6492,-3.6492,-3.6492,-3.6492,-3.6492,-3.6492,-3.6492,-3.6492,-3.6492,-3.6492,-3.6492,-3.6492,-3.6492,-3.6492,-3.6492,-3.6492,-3.6492,-3.6492,-3.6492,-3.6492,-3.5953,-3.5568,-3.5506,-3.4921,-3.4551,-3.4505,-3.4551,-3.4874,-3.5506,-3.5568,-3.5891,-3.6492,-3.6492,-3.6492,-3.6492,-3.6492,-3.6492,-2.0738,0.0,-2.326,-2.3092,-2.2918,-2.2337,0.0,-1.9692,-1.8973,-1.8257,-1.8151,-1.8345,-1.893,-1.9499,-2.0377,-2.1906,-2.3922,-2.6094,-2.8369,-3.2472,-3.6215,-3.887,-3.9336,-3.975,-4.0549,-4.2189,-4.3189,-4.3189,-4.4578,-4.5397,-4.5397,-4.5397,-4.5397,-4.5397,-4.5397,-4.5397,-4.5397,-4.5397,-4.5397,-4.5397,-4.5397,-4.5397,-4.5397,-4.5397,-4.5397,-4.5397,-4.5397,-4.5397,-4.5397,-4.5397,-4.5397,-4.5397,-4.5397,-4.5344,-4.5247,-4.5247,-4.5194,-4.5086,-4.5059,-4.4978,-4.4858,-4.4709,-4.44,-4.3906,-4.2816,-4.2301,-4.1883,-4.0783,-4.0489,-4.0182,-3.8862,-3.8508,-3.8169,-3.6815,-3.6492,-3.6492,-3.6492,-3.6492,-3.6492,-3.6492,-3.6492,-3.6492,-3.6492,-3.6492,-3.6492,-3.6492,-3.6492,-3.6492,-3.6492,-3.6492,-3.6492,-3.6492,-3.6492,-3.6492,-3.6492,-3.6353,-3.6045,-3.5522,-3.5367,-3.5044,-3.452,-3.4998,-3.5352,-3.5506,-3.5984,-3.6322,-3.6492,-3.6492,-3.6492,-3.6492,-3.6492,-3.6492,-1.971,-2.1179,-2.2317,-2.1993,-2.1905,-2.1509,-1.9977,-1.9121,-1.8499,-1.8177,-1.8366,-1.8858,-1.9671,-2.068,-2.1919,-2.3509,-2.5678,-2.8437,-3.211,-3.5059,-3.7698,-3.9974,-4.0233,-4.0429,-4.086,-4.1964,-4.2654,-4.2654,-4.3716,-4.4389,-4.4389,-4.4389,-4.4389,-4.4389,-4.4716,-4.5061,-4.5397,-4.5397,-4.5397,-4.5397,-4.5397,-4.5397,-4.5397,-4.5397,-4.5397,-4.5397,-4.5397,-4.5397,-4.5397,-4.5397,-4.5397,-4.5397,-4.5327,-4.5274,-4.5177,-4.514,-4.5059,-4.4978,-4.494,-4.4759,-4.4564,-4.4497,-4.4155,-4.3611,-4.2678,-4.2158,-4.1608,-4.0377,-4.0028,-3.9721,-3.84,-3.8046,-3.7784,-3.6738,-3.6492,-3.6492,-3.6492,-3.6492,-3.6492,-3.6492,-3.6492,-3.6492,-3.6492,-3.6492,-3.6492,-3.6492,-3.6492,-3.6492,-3.6492,-3.6492,-3.6492,-3.6492,-3.6492,-3.6492,-3.6492,-3.6492,-3.6338,-3.5968,-3.5953,-3.5784,-3.5414,-3.5783,-3.5953,-3.5953,-3.6307,-3.6492,-3.6492,-3.6492,-3.6492,-3.6492,-3.6492,-3.6492,-1.9596,-2.113,-2.2192,-2.1664,-2.1444,-2.1034,-1.9801,-1.8852,-1.8279,-1.8424,-1.8899,-1.9578,-2.0572,-2.1962,-2.3512,-2.5249,-2.7713,-3.1093,-3.5818,-3.7249,-3.8651,-4.0825,-4.1067,-4.1119,-4.124,-4.193,-4.2361,-4.2361,-4.3103,-4.3552,-4.3552,-4.3431,-4.3362,-4.3362,-4.3966,-4.4596,-4.5225,-4.5328,-4.5397,-4.5397,-4.5397,-4.5397,-4.5397,-4.5397,-4.5397,-4.5397,-4.5397,-4.5397,-4.5397,-4.5397,-4.5397,-4.5371,-4.523,-4.5177,-4.514,-4.5005,-4.4968,-4.4923,-4.4803,-4.4564,-4.431,-4.4207,-4.3802,-4.3204,-4.2412,-4.1884,-4.1281,-3.991,-3.9551,-3.9385,-3.8138,-3.7738,-3.7477,-3.6799,-3.6569,-3.6492,-3.6492,-3.6492,-3.6492,-3.6492,-3.6492,-3.6492,-3.6492,-3.6492,-3.6492,-3.6492,-3.6492,-3.6492,-3.6492,-3.6492,-3.6492,-3.6492,-3.6492,-3.6492,-3.6492,-3.6492,-3.6492,-3.6492,-3.6492,-3.6492,-3.6492,-3.6492,-3.6492,-3.6492,-3.6492,-3.6492,-3.6492,-3.6492,-3.6492,-3.6492,-3.6492,-3.6492,-1.9596,-2.113,-2.2429,-2.2919,-2.2581,-2.2087,-2.1919,-2.0828,-1.9879,-2.0025,-2.0088,-2.0568,-2.2082,-2.354,-2.5279,-2.7507,-3.1403,-3.4887,-3.7029,-3.8491,-3.9974,-4.1636,-4.1843,-4.2102,-4.2775,-4.3517,-4.3949,-4.3949,-4.4647,-4.5052,-4.5052,-4.4458,-4.4138,-4.4138,-4.4242,-4.4363,-4.4483,-4.5096,-4.5397,-4.5397,-4.5397,-4.5397,-4.5397,-4.5397,-4.5397,-4.5397,-4.5397,-4.5397,-4.5397,-4.5397,-4.5327,-4.5247,-4.522,-4.5059,-4.4858,-4.4831,-4.4748,-4.4654,-4.4626,-4.4497,-4.4236,-4.3781,-4.3396,-4.2943,-4.1917,-4.1491,-4.1082,-3.9843,-3.9905,-4.0151,-3.9382,-3.8785,-3.8185,-3.7507,-3.6907,-3.6492,-3.6492,-3.6492,-3.6492,-3.6492,-3.6492,-3.6492,-3.6492,-3.6492,-3.6492,-3.6492,-3.6492,-3.6492,-3.6492,-3.6492,-3.6492,-3.6492,-3.6492,-3.6492,-3.6492,-3.6492,-3.6492,-3.6492,-3.6492,-3.6492,-3.6492,-3.6492,-3.6492,-3.6492,-3.6492,-3.6492,-3.6492,-3.6492,-3.6492,-3.6492,-3.6492,-3.6492,-1.9596,-2.113,-2.2567,-2.3712,-2.3731,-2.3405,-2.3113,-2.2231,-2.1481,-2.1614,-2.1872,-2.2582,-2.4236,-2.6052,-2.8459,-3.2074,-3.4421,-3.6473,-3.8427,-3.9267,-4.0112,-4.1274,-4.1412,-4.155,-4.1912,-4.2258,-4.2465,-4.2465,-4.2768,-4.2975,-4.2975,-4.3009,-4.3069,-4.3069,-4.388,-4.4311,-4.4311,-4.5044,-4.5397,-4.5397,-4.5397,-4.5397,-4.5397,-4.5397,-4.5397,-4.5397,-4.5397,-4.5397,-4.5397,-4.5397,-4.53,-4.5177,-4.5113,-4.4951,-4.4776,-4.4737,-4.4654,-4.4615,-4.4615,-4.4412,-4.4109,-4.3575,-4.308,-4.2555,-4.1655,-4.1207,-4.0891,-4.0223,-3.9982,-3.9797,-3.9121,-3.8739,-3.8338,-3.7661,-3.7261,-3.6938,-3.6569,-3.6492,-3.6492,-3.6492,-3.6492,-3.6492,-3.6492,-3.6492,-3.6492,-3.6492,-3.6492,-3.6492,-3.6492,-3.6492,-3.6492,-3.6492,-3.6492,-3.6492,-3.6492,-3.6492,-3.6492,-3.6492,-3.6492,-3.6492,-3.6492,-3.6492,-3.6492,-3.6492,-3.6492,-3.6492,-3.6492,-3.6492,-3.6492,-3.6492,-3.6492,-3.6492,-1.9389,-2.0859,-2.2361,-2.3661,-2.4372,-2.4691,-2.4452,-2.383,-2.3394,-2.3705,-2.4116,-2.4878,-2.6354,-2.8561,-3.1498,-3.5625,-3.6594,-3.7508,-3.9422,-3.9853,-4.0267,-4.1067,-4.117,-4.124,-4.1429,-4.1447,-4.1447,-4.1447,-4.1447,-4.1447,-4.1447,-4.1809,-4.2102,-4.2292,-4.3431,-4.4121,-4.4311,-4.5044,-4.5397,-4.5397,-4.5397,-4.5397,-4.5397,-4.5397,-4.5397,-4.5397,-4.5397,-4.5397,-4.5397,-4.5397,-4.53,-4.5123,-4.5032,-4.4913,-4.4737,-4.4626,-4.4615,-4.4615,-4.4615,-4.4372,-4.3993,-4.3336,-4.2772,-4.2174,-4.1357,-4.0919,-4.0696,-4.0524,-4.012,-3.9598,-3.9108,-3.8862,-3.8616,-3.8092,-3.7738,-3.7353,-3.6846,-3.6599,-3.6492,-3.6492,-3.6492,-3.6492,-3.6492,-3.6492,-3.6492,-3.6492,-3.6492,-3.6492,-3.6492,-3.6492,-3.6492,-3.6492,-3.6492,-3.6492,-3.6492,-3.6492,-3.6492,-3.6492,-3.6492,-3.6492,-3.6492,-3.6492,-3.6492,-3.6492,-3.6492,-3.6492,-3.6492,-3.6492,-3.6492,-3.6492,-3.6492,-3.6492,-1.8758,-2.0107,-2.1478,-2.226,-2.4003,-2.5725,-2.6566,-2.617,-2.5908,-2.6785,-2.6908,-2.7135,-2.8059,-3.0644,-3.3436,-3.5904,-3.7491,-3.8715,-3.9577,-4.0359,-4.1101,-4.1843,-4.1905,-4.2223,-4.2965,-4.3034,-4.3034,-4.3034,-4.3034,-4.3034,-4.3034,-4.2378,-4.2344,-4.3086,-4.3224,-4.3603,-4.4294,-4.5044,-4.5397,-4.5397,-4.5397,-4.5397,-4.5397,-4.5397,-4.5397,-4.5397,-4.5397,-4.5397,-4.5397,-4.5397,-4.5264,-4.5005,-4.5005,-4.4831,-4.4598,-4.4598,-4.4615,-4.4615,-4.4615,-4.4372,-4.3935,-4.2878,-4.238,-4.1916,-4.0885,-4.0524,-4.0524,-4.0489,-4.0459,-4.0413,-4.0366,-3.989,-3.9431,-3.9385,-3.8415,-3.7492,-3.7446,-3.6938,-3.6492,-3.6492,-3.6492,-3.6492,-3.6492,-3.6492,-3.6492,-3.6492,-3.6492,-3.6492,-3.6492,-3.6492,-3.6492,-3.6492,-3.6492,-3.6492,-3.6492,-3.6492,-3.6492,-3.6492,-3.6492,-3.6492,-3.6492,-3.6492,-3.6492,-3.6492,-3.6492,-3.6492,-3.6492,-3.6492,-3.6492,-3.6492,-3.6492,-3.6492,-1.9372,-2.072,-2.2175,-2.3359,-2.4983,-2.6402,-2.6889,-2.7536,-2.8271,-2.9214,-2.9713,-3.0193,-3.0986,-3.2902,-3.4921,-3.6749,-3.7905,-3.9026,-4.0273,-4.0722,-4.1015,-4.1291,-4.1326,-4.1447,-4.174,-4.1774,-4.1774,-4.1774,-4.1774,-4.1774,-4.1774,-4.193,-4.2154,-4.2447,-4.2948,-4.3327,-4.3603,-4.3897,-4.4027,-4.4027,-4.4949,-4.5397,-4.5397,-4.5397,-4.5397,-4.5397,-4.5397,-4.5397,-4.5397,-4.53,-4.5167,-4.4978,-4.4803,-4.4682,-4.4615,-4.4615,-4.4615,-4.4615,-4.4615,-4.4372,-4.3935,-4.2847,-4.2301,-4.1916,-4.0833,-4.0489,-4.0489,-4.0489,-4.0489,-4.0489,-4.0489,-4.0305,-4.0013,-3.9582,-3.9123,-3.8523,-3.7677,-3.7292,-3.6999,-3.6569,-3.6492,-3.6492,-3.6492,-3.6492,-3.6492,-3.6492,-3.6846,-3.7123,-3.7123,-3.7492,-3.7584,-3.7169,-3.6738,-3.6492,-3.6492,-3.6492,-3.6492,-3.6492,-3.6492,-3.6492,-3.6492,-3.6492,-3.6492,-3.6492,-3.6492,-3.6492,-3.6492,-3.6492,-3.6492,-3.6492,-3.6492,-3.6492,-1.9811,-2.0961,-2.226,-2.3509,-2.5084,-2.6589,-2.747,-2.8869,-3.0239,-3.1175,-3.1951,-3.2672,-3.3412,-3.447,-3.5766,-3.7564,-3.8272,-3.9152,-4.0687,-4.0912,-4.0912,-4.0912,-4.0912,-4.0912,-4.0912,-4.0912,-4.0912,-4.0912,-4.0912,-4.0912,-4.0912,-4.1395,-4.1774,-4.1974,-4.2534,-4.2948,-4.3189,-4.3189,-4.3189,-4.3207,-4.4458,-4.5061,-4.5061,-4.5276,-4.5397,-4.5397,-4.5397,-4.5371,-4.5344,-4.5247,-4.5113,-4.4896,-4.4682,-4.4615,-4.4615,-4.4615,-4.4615,-4.4615,-4.4615,-4.4372,-4.3935,-4.2847,-4.2301,-4.1916,-4.0833,-4.0489,-4.0489,-4.0489,-4.0489,-4.0489,-4.0489,-4.0489,-4.0382,-3.9905,-3.9644,-3.9228,-3.8338,-3.7969,-3.7615,-3.6953,-3.6984,-3.7061,-3.6846,-3.6984,-3.7138,-3.7138,-3.7523,-3.7815,-3.7815,-3.8231,-3.8323,-3.7861,-3.74,-3.7046,-3.683,-3.6815,-3.6722,-3.6507,-3.6492,-3.6492,-3.6492,-3.6492,-3.6492,-3.6492,-3.6492,-3.6492,-3.6492,-3.6492,-3.6492,-3.6492,-3.6492,-3.6492,-1.9828,-2.0619,-2.141,-2.2158,-2.4003,-2.6234,-2.8592,-3.037,-3.1762,-3.2662,-3.3535,-3.4372,-3.5076,-3.5232,-3.5956,-3.8215,-3.8617,-3.9146,-4.0687,-4.0912,-4.0912,-4.0912,-4.0912,-4.0912,-4.0912,-4.0912,-4.0912,-4.0912,-4.0912,-4.0912,-4.0912,-4.0912,-4.124,-4.1981,-4.1999,-4.2378,-4.3172,-4.3172,-4.3172,-4.3189,-4.3931,-4.4294,-4.4328,-4.5079,-4.5397,-4.5397,-4.5397,-4.5327,-4.5203,-4.5194,-4.5032,-4.4776,-4.4654,-4.4615,-4.4615,-4.4615,-4.4615,-4.4615,-4.4615,-4.4372,-4.3906,-4.2847,-4.2317,-4.1916,-4.0817,-4.0489,-4.0489,-4.0489,-4.0489,-4.0489,-4.0489,-4.0489,-4.0489,-4.0489,-3.9982,-3.949,-3.949,-3.8985,-3.8323,-3.7631,-3.8046,-3.8292,-3.7615,-3.8061,-3.8508,-3.8508,-3.8523,-3.8523,-3.8523,-3.8523,-3.8523,-3.8523,-3.8508,-3.8231,-3.7569,-3.7507,-3.7215,-3.6538,-3.6492,-3.6492,-3.6492,-3.6492,-3.6492,-3.6492,-3.6492,-3.6492,-3.6492,-3.6492,-3.6492,-3.6492,-3.6507,-3.6507,-2.1265,-2.2175,-2.3171,-2.4949,-2.6691,-2.8451,-3.0182,-3.1431,-3.2932,-3.5441,-3.6255,-3.6521,-3.6659,-3.7167,-3.7779,-3.8379,-3.8957,-3.9715,-4.0774,-4.0912,-4.0912,-4.0912,-4.0912,-4.0912,-4.0912,-4.0912,-4.0912,-4.0912,-4.0912,-4.0912,-4.0912,-4.0912,-4.0998,-4.1222,-4.124,-4.1343,-4.1585,-4.1585,-4.1585,-4.1602,-4.2896,-4.3793,-4.4328,-4.5079,-4.5397,-4.5397,-4.5397,-4.5327,-4.5194,-4.5005,-4.4803,-4.4654,-4.4615,-4.4615,-4.4615,-4.4615,-4.4514,-4.4395,-4.4395,-4.4051,-4.3492,-4.2632,-4.2061,-4.1588,-4.0749,-4.0489,-4.0489,-4.0489,-4.0489,-4.0489,-4.0489,-4.0489,-4.0489,-4.0489,-4.0336,-4.0059,-3.9582,-3.9321,-3.8877,-3.7723,-3.8046,-3.8292,-3.7615,-3.8061,-3.8508,-3.8508,-3.8908,-3.9351,-3.9844,-3.949,-3.9216,-3.9216,-3.88,-3.8431,-3.8231,-3.7769,-3.7415,-3.7215,-3.6753,-3.6492,-3.6492,-3.6492,-3.6492,-3.6492,-3.6492,-3.6492,-3.6492,-3.6492,-3.6492,-3.6507,-3.6984,-3.72,-2.1874,-2.3054,-2.4305,-2.6218,-2.8078,-3.004,-3.2408,-3.3409,-3.4474,-3.683,-3.7605,-3.7856,-3.7811,-3.8257,-3.8675,-3.8877,-3.9359,-3.9974,-4.0791,-4.0912,-4.0912,-4.0912,-4.0912,-4.0912,-4.0912,-4.0912,-4.0912,-4.0912,-4.0912,-4.0912,-4.0912,-4.0912,-4.0912,-4.0912,-4.0912,-4.0912,-4.0912,-4.0912,-4.0912,-4.0929,-4.2465,-4.3431,-4.3897,-4.4941,-4.5397,-4.5397,-4.5291,-4.5211,-4.5113,-4.4831,-4.4682,-4.4615,-4.4615,-4.4615,-4.4615,-4.4615,-4.4468,-4.4265,-4.4076,-4.3667,-4.3143,-4.2285,-4.1754,-4.1357,-4.0696,-4.0489,-4.0489,-4.0489,-4.0489,-4.0489,-4.0489,-4.0489,-4.0489,-4.0489,-4.0489,-4.0382,-3.9967,-3.989,-3.9567,-3.8508,-3.8846,-3.9059,-3.8415,-3.8862,-3.9275,-3.9275,-3.9628,-4.0028,-4.0443,-4.0136,-3.989,-3.989,-3.9521,-3.92,-3.8939,-3.8539,-3.8185,-3.7923,-3.7523,-3.7292,-3.7292,-3.6784,-3.6492,-3.6492,-3.6492,-3.6492,-3.6492,-3.6492,-3.663,-3.6907,-3.7307,-3.7646,-2.1958,-2.3477,-2.4982,-2.6623,-2.8772,-3.1427,-3.4906,-3.5859,-3.627,-3.7266,-3.8014,-3.8574,-3.8739,-3.8801,-3.9026,-3.9675,-3.9778,-4.0037,-4.0744,-4.0871,-4.0888,-4.0888,-4.0894,-4.0912,-4.0912,-4.0912,-4.0912,-4.0912,-4.0912,-4.0912,-4.0912,-4.0912,-4.0912,-4.0912,-4.0912,-4.0912,-4.0912,-4.0912,-4.0912,-4.0929,-4.2396,-4.3086,-4.3138,-4.4699,-4.5397,-4.5371,-4.5113,-4.4978,-4.4951,-4.4709,-4.4615,-4.4615,-4.4615,-4.4598,-4.457,-4.457,-4.4412,-4.415,-4.3647,-4.3246,-4.282,-4.1787,-4.1392,-4.1156,-4.0662,-4.0489,-4.0489,-4.0489,-4.0489,-4.0489,-4.0489,-4.0489,-4.0489,-4.0489,-4.0489,-4.0489,-4.0489,-4.0489,-4.029,-3.9613,-4.0028,-4.0274,-3.9598,-4.0043,-4.0489,-4.0489,-4.0489,-4.0489,-4.0489,-4.0489,-4.0489,-4.0489,-4.0489,-4.0243,-3.9628,-3.9582,-3.9339,-3.8739,-3.8585,-3.8508,-3.8508,-3.7323,-3.6676,-3.6676,-3.6676,-3.6676,-3.6676,-3.6676,-3.6999,-3.7584,-3.7646,-3.8015,-2.2598,-2.4239,-2.6015,-2.8704,-3.1478,-3.4066,-3.6101,-3.7015,-3.7706,-3.8618,-3.9023,-3.9414,-4.0007,-4.0253,-4.0393,-4.0333,-4.0415,-4.0508,-4.059,-4.0697,-4.0745,-4.0745,-4.084,-4.0912,-4.0912,-4.0912,-4.0912,-4.0912,-4.0912,-4.0912,-4.0912,-4.0912,-4.0912,-4.0912,-4.0912,-4.0912,-4.0912,-4.0912,-4.0912,-4.0912,-4.1826,-4.2275,-4.2344,-4.4458,-4.5344,-4.523,-4.5059,-4.4923,-4.4831,-4.4654,-4.4615,-4.4615,-4.4615,-4.4497,-4.4367,-4.4367,-4.4051,-4.3535,-4.3279,-4.2726,-4.2077,-4.1507,-4.1156,-4.0867,-4.0593,-4.0489,-4.0489,-4.0489,-4.0489,-4.0489,-4.0489,-4.0489,-4.0489,-4.0489,-4.0489,-4.0489,-4.0489,-4.0489,-4.029,-3.9613,-4.0028,-4.0274,-3.9598,-4.0043,-4.0489,-4.0489,-4.0489,-4.0489,-4.0489,-4.0489,-4.0489,-4.0489,-4.0489,-4.0428,-4.029,-4.0274,-4.0213,-4.0074,-3.9059,-3.8508,-3.8508,-3.8231,-3.8077,-3.8077,-3.8077,-3.8077,-3.8077,-3.8077,-3.8154,-3.8308,-3.8831,-3.917,-2.2361,-2.4475,-2.7029,-3.0751,-3.3102,-3.4895,-3.6457,-3.7364,-3.8132,-3.895,-3.9521,-4.0031,-4.0514,-4.0655,-4.068,-4.0607,-4.0583,-4.0583,-4.051,-4.0558,-4.0624,-4.0697,-4.0769,-4.084,-4.0894,-4.0912,-4.0912,-4.0912,-4.0912,-4.0912,-4.0912,-4.0912,-4.0912,-4.0912,-4.0912,-4.0912,-4.0912,-4.0912,-4.0912,-4.0912,-4.1654,-4.2206,-4.262,-4.3751,-4.4208,-4.413,-4.3885,-4.3973,-4.4249,-4.4084,-4.4248,-4.4615,-4.4615,-4.4468,-4.4265,-4.4001,-4.3638,-4.3174,-4.2554,-4.2029,-4.1538,-4.1055,-4.0799,-4.0627,-4.0524,-4.0489,-4.0489,-4.0489,-4.0489,-4.0489,-4.0489,-4.0489,-4.0489,-4.0489,-4.0489,-4.0489,-4.0489,-4.0489,-4.0397,-4.0043,-4.0259,-4.0382,-4.0028,-4.0259,-4.0489,-4.0489,-4.0489,-4.0489,-4.0489,-4.0489,-4.0489,-4.0489,-4.0489,-4.0489,-4.0489,-4.0489,-4.0489,-4.0489,-3.9828,-3.9444,-3.9444,-3.9444,-3.917,-3.8523,-3.8508,-3.8508,-3.8508,-3.8508,-3.8677,-3.9,-3.9354,-3.9659,-2.184,-2.4831,-2.8416,-3.2408,-3.4049,-3.5047,-3.6491,-3.7263,-3.7956,-3.8819,-3.9679,-4.0379,-4.06,-4.0558,-4.0534,-4.0624,-4.0534,-4.0461,-4.0419,-4.0461,-4.051,-4.0624,-4.0648,-4.0721,-4.0823,-4.0847,-4.0864,-4.0864,-4.0888,-4.0912,-4.0912,-4.0912,-4.0912,-4.0912,-4.0912,-4.0912,-4.0912,-4.0912,-4.0912,-4.0912,-4.1533,-4.2171,-4.2792,-4.2635,-4.2697,-4.2886,-4.2602,-4.2887,-4.3579,-4.3409,-4.3793,-4.4514,-4.4514,-4.4355,-4.4093,-4.3604,-4.3185,-4.2758,-4.1803,-4.1358,-4.1122,-4.0662,-4.0489,-4.0489,-4.0489,-4.0489,-4.0489,-4.0489,-4.0489,-4.0489,-4.0489,-4.0489,-4.0489,-4.0489,-4.0489,-4.0489,-4.0489,-4.0489,-4.0489,-4.0489,-4.0489,-4.0489,-4.0489,-4.0489,-4.0489,-4.0489,-4.0489,-4.0489,-4.0489,-4.0489,-4.0489,-4.0489,-4.0489,-4.0489,-4.0489,-4.0489,-4.0489,-4.0489,-4.0489,-4.0489,-4.0489,-4.0489,-3.9967,-3.8877,-3.8862,-3.8862,-3.8862,-3.8862,-3.9139,-3.9659,-3.9659,-3.9967,-2.1718,-2.637,-3.1055,-3.2933,-3.4416,-3.5707,-3.6592,-3.688,-3.7354,-3.8717,-3.9679,-4.0305,-4.0355,-4.0436,-4.0461,-4.0379,-4.0355,-4.0288,-4.0171,-4.0238,-4.033,-4.0355,-4.0461,-4.0534,-4.0558,-4.0673,-4.0721,-4.0721,-4.084,-4.0912,-4.0912,-4.0912,-4.0912,-4.0912,-4.0912,-4.0912,-4.0912,-4.0912,-4.0912,-4.0912,-4.0998,-4.1101,-4.1181,-4.0964,-4.1468,-4.2576,-4.2392,-4.2618,-4.3105,-4.306,-4.3484,-4.4155,-4.4155,-4.3894,-4.3492,-4.3248,-4.268,-4.198,-4.1489,-4.1122,-4.0833,-4.0593,-4.0489,-4.0489,-4.0489,-4.0489,-4.0489,-4.0489,-4.0489,-4.0489,-4.0489,-4.0489,-4.0489,-4.0489,-4.0489,-4.0489,-4.0489,-4.0489,-4.0489,-4.0489,-4.0489,-4.0489,-4.0489,-4.0489,-4.0489,-4.0489,-4.0489,-4.0489,-4.0489,-4.0489,-4.0489,-4.0489,-4.0489,-4.0489,-4.0489,-4.0489,-4.0489,-4.0489,-4.0489,-4.0489,-4.0489,-4.0489,-4.0413,-4.0228,-4.0228,-4.0228,-4.0228,-4.0228,-4.0274,-4.0366,-4.0366,-4.0397,-2.3192,-2.6996,-3.0431,-3.2327,-3.388,-3.5081,-3.5419,-3.6186,-3.6981,-3.7642,-3.8715,-3.9738,-4.0195,-4.0288,-4.0288,-4.0305,-4.0238,-4.0163,-4.0113,-4.0163,-4.0213,-4.0288,-4.0337,-4.0412,-4.0493,-4.0558,-4.0624,-4.0697,-4.0745,-4.0817,-4.0912,-4.0912,-4.0912,-4.0912,-4.0912,-4.0912,-4.0912,-4.0912,-4.0912,-4.0912,-4.0912,-4.0864,-4.0793,-4.0583,-4.0794,-4.1231,-4.0774,-4.1088,-4.1917,-4.1655,-4.2196,-4.3199,-4.3199,-4.3033,-4.2741,-4.2349,-4.1916,-4.1505,-4.1037,-4.0765,-4.0627,-4.0524,-4.0489,-4.0489,-4.0489,-4.0489,-4.0489,-4.0489,-4.0489,-4.0489,-4.0489,-4.0489,-4.0489,-4.0489,-4.0489,-4.0489,-4.0489,-4.0489,-4.0489,-4.0489,-4.0489,-4.0489,-4.0489,-4.0489,-4.0489,-4.0489,-4.0489,-4.0489,-4.0489,-4.0489,-4.0489,-4.0489,-4.0489,-4.0489,-4.0489,-4.0489,-4.0489,-4.0489,-4.0489,-4.0489,-4.0489,-4.0489,-4.0489,-4.0489,-4.0489,-4.0489,-4.0489,-4.0489,-4.0489,-4.0489,-4.0489,-4.0489,-2.3733,-2.6539,-2.8908,-3.0956,-3.2716,-3.3981,-3.4167,-3.5272,-3.6338,-3.6728,-3.7692,-3.8766,-3.9772,-4.0027,-4.0121,-4.0238,-4.0163,-4.0096,-4.0096,-4.0096,-4.0138,-4.0238,-4.0238,-4.0288,-4.0387,-4.0436,-4.0485,-4.06,-4.0624,-4.0697,-4.0776,-4.084,-4.0864,-4.0864,-4.0888,-4.0912,-4.0912,-4.0912,-4.0912,-4.0912,-4.0864,-4.0793,-4.0697,-4.051,-4.0387,-4.0213,-3.9566,-3.9968,-4.1005,-4.0596,-4.1243,-4.249,-4.2411,-4.2269,-4.2061,-4.1607,-4.1325,-4.1122,-4.0662,-4.0489,-4.0489,-4.0489,-4.0489,-4.0489,-4.0489,-4.0489,-4.0489,-4.0489,-4.0489,-4.0489,-4.0489,-4.0489,-4.0489,-4.0489,-4.0489,-4.0489,-4.0489,-4.0489,-4.0489,-4.0489,-4.0489,-4.0489,-4.0489,-4.0489,-4.0489,-4.0489,-4.0489,-4.0489,-4.0489,-4.0489,-4.0489,-4.0489,-4.0489,-4.0489,-4.0489,-4.0489,-4.0489,-4.0489,-4.0489,-4.0489,-4.0489,-4.0489,-4.0489,-4.0489,-4.0489,-4.0489,-4.0489,-4.0489,-4.0489,-4.0489,-4.0489,-4.0489,-2.2009,-2.4611,-2.7199,-2.879,-3.0804,-3.2598,-3.3305,-3.4066,-3.5013,-3.6508,-3.6863,-3.7354,-3.8809,-3.9639,-4.0096,-4.0113,-4.0096,-4.0096,-4.0096,-4.0096,-4.0096,-4.0113,-4.0096,-4.0096,-4.0121,-4.0238,-4.0313,-4.033,-4.0436,-4.051,-4.0534,-4.0631,-4.0697,-4.0697,-4.084,-4.0912,-4.0912,-4.0912,-4.0912,-4.0912,-4.0769,-4.0697,-4.0697,-4.0429,-4.0238,-4.0087,-3.9668,-4.0029,-4.0889,-4.0629,-4.1247,-4.2381,-4.2206,-4.1916,-4.1621,-4.1374,-4.1088,-4.0799,-4.0558,-4.0489,-4.0489,-4.0489,-4.0489,-4.0489,-4.0489,-4.0489,-4.0489,-4.0489,-4.0489,-4.0489,-4.0489,-4.0489,-4.0489,-4.0489,-4.0489,-4.0489,-4.0489,-4.0489,-4.0489,-4.0489,-4.0489,-4.0489,-4.0489,-4.0489,-4.0489,-4.0489,-4.0489,-4.0489,-4.0489,-4.0489,-4.0489,-4.0489,-4.0489,-4.0489,-4.0489,-4.0489,-4.0489,-4.0489,-4.0489,-4.0489,-4.0489,-4.0489,-4.0489,-4.0489,-4.0489,-4.0489,-4.0489,-4.0489,-4.0489,-4.0489,-4.0489,-4.0489,-2.1042,-2.2716,-2.4357,-2.6336,-2.8129,-2.9753,-3.1004,-3.2577,-3.4083,-3.5098,-3.6118,-3.6965,-3.7506,-3.8589,-3.9554,-4.0028,-4.0096,-4.0096,-4.0096,-4.0096,-4.0096,-4.0096,-4.0096,-4.0096,-4.0096,-4.0121,-4.0213,-4.0288,-4.0337,-4.0412,-4.051,-4.0558,-4.0607,-4.0697,-4.0745,-4.0817,-4.0912,-4.0912,-4.0864,-4.0769,-4.0721,-4.06,-4.0453,-4.0337,-4.0138,-3.9833,-3.959,-3.9764,-4.0132,-3.9429,-3.9864,-4.0941,-4.0598,-4.0631,-4.0885,-4.0817,-4.073,-4.0593,-4.0524,-4.0489,-4.0489,-4.0489,-4.0489,-4.0489,-4.0489,-4.0489,-4.0489,-4.0489,-4.0489,-4.0489,-4.0489,-4.0489,-4.0489,-4.0489,-4.0489,-4.0489,-4.0489,-4.0489,-4.0489,-4.0489,-4.0489,-4.0489,-4.0489,-4.0489,-4.0489,-4.0489,-4.0489,-4.0489,-4.0489,-4.0489,-4.0489,-4.0489,-4.0489,-4.0489,-4.0489,-4.0489,-4.0489,-4.0489,-4.0489,-4.0489,-4.0489,-4.0489,-4.0489,-4.0489,-4.0489,-4.0489,-4.0489,-4.0489,-4.0489,-4.0489,-4.0489,-4.0489,-1.9955,-2.0974,-2.2009,-2.4003,-2.5592,-2.7165,-2.8922,-3.0869,-3.2645,-3.388,-3.5131,-3.6186,-3.6711,-3.7608,-3.8565,-3.9571,-3.9943,-4.0096,-4.0096,-4.0096,-4.0096,-4.0096,-4.0096,-4.0096,-4.0096,-4.0096,-4.0138,-4.0213,-4.0238,-4.0263,-4.0345,-4.0412,-4.051,-4.0697,-4.0697,-4.0769,-4.0912,-4.0864,-4.0793,-4.0697,-4.06,-4.0478,-4.0305,-4.0238,-4.0062,-3.9755,-3.9494,-3.949,-3.9613,-3.8822,-3.9157,-4.0091,-3.9676,-3.9905,-4.0489,-4.0489,-4.0489,-4.0489,-4.0489,-4.0489,-4.0489,-4.0489,-4.0489,-4.0489,-4.0489,-4.0489,-4.0489,-4.0489,-4.0489,-4.0489,-4.0489,-4.0674,-4.0858,-4.0858,-4.094,-4.0986,-4.0986,-4.0705,-4.0489,-4.0489,-4.0489,-4.0489,-4.0489,-4.0489,-4.0489,-4.0489,-4.0489,-4.0489,-4.0489,-4.0489,-4.0489,-4.0489,-4.0489,-4.0489,-4.0489,-4.0489,-4.0489,-4.0489,-4.0489,-4.0489,-4.0489,-4.0489,-4.0489,-4.0489,-4.0489,-4.0489,-4.0489,-4.0489,-4.0489,-4.0489,-4.0489,-4.0489,0.0,0.0,0.0,-2.1823,-2.3308,-2.4982,-2.7164,-2.8889,-3.0647,-3.2848,-3.3914,-3.4934,-3.6457,-3.6778,-3.7269,-3.8684,-3.9571,-4.0079,-4.0096,-4.0096,-4.0096,-4.0096,-4.0096,-4.0096,-4.0096,-4.0096,-4.0096,-4.0096,-4.0096,-4.0096,-4.0096,-4.0213,-4.0429,-4.0697,-4.0697,-4.0769,-4.0912,-4.0769,-4.0697,-4.0697,-4.0429,-4.0305,-4.0305,-4.0163,-4.0037,-3.9875,-3.9408,-3.9276,-3.9321,-3.8852,-3.9188,-3.9928,-3.9612,-3.9874,-4.0489,-4.0489,-4.0489,-4.0489,-4.0489,-4.0489,-4.0489,-4.0489,-4.0489,-4.0489,-4.0489,-4.0489,-4.0489,-4.0489,-4.0489,-4.0489,-4.0489,-4.1063,-4.1586,-4.1571,-4.1724,-4.1878,-4.1909,-4.117,-4.0489,-4.0489,-4.0489,-4.0489,-4.0489,-4.0489,-4.0489,-4.0489,-4.0489,-4.0489,-4.0489,-4.0489,-4.0489,-4.0489,-4.0489,-4.0489,-4.0489,-4.0489,-4.0489,-4.0489,-4.0489,-4.0489,-4.0489,-4.0489,-4.0489,-4.0489,-4.0489,-4.0489,-4.0489,-4.0489,-4.0489,-4.0489,-4.0489,-4.0489,-1.7896,0.0,0.0,0.0,0.0,0.0,-2.4239,-2.659,-2.8922,-3.0666,-3.2459,-3.3998,-3.4945,-3.6051,-3.6931,-3.7354,-3.8488,-3.9503,-4.0028,-4.0096,-4.0096,-4.0096,-4.0096,-4.0096,-4.0096,-4.0096,-4.0096,-4.0096,-4.0096,-4.0096,-4.0096,-4.0213,-4.0362,-4.0558,-4.0648,-4.0769,-4.0912,-4.0769,-4.0648,-4.0558,-4.0362,-4.0238,-4.0163,-4.0138,-3.9986,-3.9729,-3.9537,-3.9193,-3.8764,-3.8057,-3.8416,-3.9373,-3.895,-3.9474,-4.0489,-4.0489,-4.0489,-4.0489,-4.0489,-4.0489,-4.0489,-4.0489,-4.0489,-4.0489,-4.0489,-4.0489,-4.0489,-4.0489,-4.0489,-4.0489,-4.0489,-4.1063,-4.1463,-4.094,-4.137,-4.1971,-4.2325,-4.1417,-4.0489,-4.0489,-4.0489,-4.0489,-4.0489,-4.0489,-4.0489,-4.0489,-4.0489,-4.0489,-4.0489,-4.0489,-4.0489,-4.0489,-4.0489,-4.0489,-4.0489,-4.0489,-4.0489,-4.0489,-4.0489,-4.0489,-4.0489,-4.0489,-4.0489,-4.0489,-4.0489,-4.0489,-4.0489,-4.0489,-4.0489,-4.0489,-4.0489,-4.0489,-1.8594,-1.8729,-1.8899,-1.9667,0.0,0.0,-2.3054,-2.522,-2.73,-2.8821,-3.092,-3.2713,-3.3461,-3.4578,-3.547,-3.5797,-3.6823,-3.7956,-3.9022,-3.9174,-3.9174,-3.9174,-3.9445,-3.9656,-3.9656,-3.9926,-4.0096,-4.0096,-4.0096,-4.0096,-4.0096,-4.0163,-4.0313,-4.0493,-4.0583,-4.0721,-4.0912,-4.0704,-4.0583,-4.051,-4.0313,-4.0188,-4.0096,-4.0096,-3.9969,-3.9755,-3.9494,-3.9158,-3.8733,-3.8055,-3.8374,-3.9298,-3.8883,-3.949,-4.0627,-4.0524,-4.0489,-4.0489,-4.0489,-4.0489,-4.0489,-4.0489,-4.0489,-4.0489,-4.0489,-4.0489,-4.0489,-4.0489,-4.0489,-4.0489,-4.0489,-4.1263,-4.1863,-4.1232,-4.2078,-4.3079,-4.3371,-4.2786,-4.1878,-4.0705,-4.0489,-4.0489,-4.0489,-4.0489,-4.0489,-4.0489,-4.0489,-4.0489,-4.0489,-4.0489,-4.0489,-4.0489,-4.0489,-4.0489,-4.0489,-4.0489,-4.0489,-4.0489,-4.0489,-4.0489,-4.0489,-4.0489,-4.0489,-4.0489,-4.0489,-4.0489,-4.0489,-4.0489,-4.0489,-4.0489,-4.0489,-4.0489,-2.0268,-2.0268,-2.042,-2.1038,-2.1258,0.0,-2.2883,-2.4306,-2.5745,-2.7148,-2.9178,-3.0937,-3.1785,-3.2527,-3.3271,-3.3998,-3.4759,-3.5819,-3.755,-3.7855,-3.7905,-3.7905,-3.8481,-3.887,-3.887,-3.9529,-3.9977,-3.9977,-4.0045,-4.0096,-4.0096,-4.0096,-4.0238,-4.0485,-4.0485,-4.0607,-4.0847,-4.0631,-4.0493,-4.0485,-4.0221,-4.0096,-4.0096,-4.0096,-4.0037,-3.9875,-3.9435,-3.9179,-3.899,-3.8546,-3.8801,-3.9424,-3.9156,-3.9741,-4.0724,-4.0562,-4.0489,-4.0489,-4.0489,-4.0489,-4.0489,-4.0489,-4.0489,-4.0489,-4.0489,-4.0489,-4.0489,-4.0489,-4.0489,-4.0489,-4.0489,-4.1524,-4.2432,-4.2048,-4.331,-4.461,-4.461,-4.461,-4.3864,-4.1447,-4.0951,-4.0951,-4.0951,-4.0951,-4.0951,-4.0951,-4.0951,-4.0843,-4.0536,-4.0489,-4.0489,-4.0489,-4.0489,-4.0489,-4.0489,-4.0489,-4.0489,-4.0489,-4.0489,-4.0536,-4.0643,-4.0628,-4.0659,-4.072,-4.0674,-4.0597,-4.0489,-4.0489,-4.0489,-4.0489,-4.0597,-4.0628,-2.1857,-2.1857,-2.1752,-2.1309,-2.1647,0.0,-2.1698,-2.2767,-2.4069,-2.4965,-2.6437,-2.7994,-2.9399,-3.0243,-3.0987,-3.1715,-3.2459,-3.3901,-3.6643,-3.7533,-3.7905,-3.7905,-3.8041,-3.8125,-3.8125,-3.8768,-3.9208,-3.9208,-3.9774,-4.0096,-4.0096,-4.0096,-4.0171,-4.0337,-4.0436,-4.0534,-4.0583,-4.0534,-4.0436,-4.0355,-4.0188,-4.0096,-4.0096,-4.0096,-4.0037,-3.9901,-3.9703,-3.9468,-3.9228,-3.8969,-3.8987,-3.9198,-3.9265,-3.9722,-4.0324,-4.0446,-4.0489,-4.0489,-4.0489,-4.0489,-4.0489,-4.0489,-4.0489,-4.0489,-4.0489,-4.0489,-4.0489,-4.0489,-4.0489,-4.0489,-4.0489,-4.1278,-4.2094,-4.2402,-4.3556,-4.461,-4.461,-4.461,-4.4456,-4.3879,-4.3787,-4.3787,-4.3787,-4.3787,-4.3787,-4.3787,-4.3787,-4.3002,-4.0766,-4.0489,-4.0489,-4.0489,-4.0489,-4.0489,-4.0489,-4.0489,-4.0489,-4.0489,-4.0489,-4.0863,-4.1586,-4.1463,-4.1648,-4.2186,-4.1817,-4.1263,-4.0489,-4.0489,-4.0489,-4.0505,-4.1278,-4.154,-2.4492,-2.4239,-2.3765,-2.3035,-2.2849,0.0,0.0,-2.2598,-2.3494,-2.3881,-2.5422,-2.6945,-2.7723,-2.8772,-2.9668,-3.0042,-3.0717,-3.185,-3.3749,-3.5267,-3.6349,-3.6721,-3.711,-3.7347,-3.7347,-3.8024,-3.8599,-3.8954,-3.9326,-3.9723,-4.0079,-4.0096,-4.0163,-4.0305,-4.0379,-4.0436,-4.051,-4.0436,-4.0379,-4.0305,-4.0163,-4.0096,-4.0096,-4.0096,-4.0045,-3.9986,-3.9935,-3.9781,-3.959,-3.9239,-3.904,-3.8974,-3.9398,-3.9771,-4.0136,-4.0399,-4.0489,-4.0489,-4.0489,-4.0489,-4.0489,-4.0489,-4.0489,-4.0489,-4.0489,-4.0489,-4.0489,-4.0489,-4.0489,-4.0489,-4.0489,-4.1386,-4.2309,-4.254,-4.3618,-4.461,-4.461,-4.461,-4.461,-4.461,-4.461,-4.461,-4.461,-4.461,-4.461,-4.461,-4.461,-4.3602,-4.0843,-4.0489,-4.0489,-4.0489,-4.0489,-4.0489,-4.0489,-4.0489,-4.0489,-4.0489,-4.0489,-4.094,-4.1848,-4.1709,-4.1801,-4.2232,-4.1555,-4.0986,-4.0489,-4.1894,-4.2217,-4.155,-4.2032,-4.2202,-2.7131,-2.6607,-2.5812,-2.4931,-2.4169,-2.3376,0.0,0.0,0.0,-2.3393,-2.4932,-2.6319,-2.6454,-2.7402,-2.818,-2.8333,-2.8839,-2.955,-3.0412,-3.2222,-3.3863,-3.5025,-3.5757,-3.6203,-3.6338,-3.7026,-3.777,-3.8514,-3.8565,-3.8911,-3.9656,-3.9808,-3.9943,-4.0034,-4.0195,-4.0337,-4.0436,-4.0337,-4.0305,-4.0263,-4.0163,-4.0096,-4.0096,-4.0096,-4.0096,-4.0096,-4.0096,-4.0011,-3.9824,-3.9355,-3.9045,-3.8909,-3.9455,-3.974,-3.9899,-4.0334,-4.0489,-4.0489,-4.0489,-4.0489,-4.0489,-4.0489,-4.0489,-4.0489,-4.0489,-4.0489,-4.0489,-4.0489,-4.0489,-4.0489,-4.0489,-4.132,-4.2279,-4.254,-4.3618,-4.461,-4.461,-4.461,-4.461,-4.461,-4.461,-4.461,-4.461,-4.461,-4.444,-4.3879,-4.3802,-4.3002,-4.0782,-4.0489,-4.0489,-4.0489,-4.0489,-4.0489,-4.0489,-4.0489,-4.0489,-4.0489,-4.0489,-4.0863,-4.1601,-4.1971,-4.2248,-4.2438,-4.1678,-4.1274,-4.1274,-4.351,-4.4033,-4.2987,-4.2987,-4.2925,-2.8739,-2.8163,-2.7215,-2.5812,-2.4915,-2.4017,-2.2632,0.0,-2.3393,-2.3393,0.0,-2.4948,-2.5609,0.0,0.0,-2.5879,-2.6065,-2.659,-2.7993,-2.9025,-3.0635,-3.3339,-3.3744,-3.4049,-3.4692,-3.5436,-3.6197,-3.6998,-3.7049,-3.7364,-3.8108,-3.8768,-3.9148,-3.9148,-3.9915,-4.0238,-4.0163,-4.0238,-4.0238,-4.0138,-4.0113,-4.0096,-4.0096,-4.0096,-4.0096,-4.0096,-4.0096,-3.9961,-3.9677,-3.9206,-3.9021,-3.9084,-3.934,-3.9393,-3.9405,-4.0217,-4.0489,-4.0489,-4.0489,-4.0489,-4.0489,-4.0489,-4.0489,-4.0489,-4.0489,-4.0489,-4.0489,-4.0489,-4.0489,-4.0489,-4.0489,-4.0612,-4.1043,-4.2309,-4.3618,-4.461,-4.461,-4.461,-4.461,-4.461,-4.461,-4.461,-4.461,-4.461,-4.3756,-4.132,-4.0951,-4.0843,-4.0536,-4.0489,-4.0489,-4.0489,-4.0489,-4.0489,-4.0489,-4.0489,-4.0489,-4.0489,-4.0489,-4.0536,-4.0643,-4.2971,-4.4249,-4.4302,-4.4172,-4.411,-4.4125,-4.4471,-4.4533,-4.4356,-4.4356,-4.4071,-3.1041,-3.004,-2.8669,-2.6725,-2.5371,-2.422,-2.3173,-2.3173,-2.3511,-2.3949,0.0,0.0,0.0,0.0,0.0,0.0,-2.5592,-2.5812,-2.6438,-2.681,-2.8281,-3.1715,-3.2493,-3.2865,-3.319,-3.3119,-3.3541,-3.4742,-3.4827,-3.5537,-3.7161,-3.8362,-3.8988,-3.8988,-3.9773,-4.0163,-4.0096,-4.0163,-4.0163,-4.0096,-4.0096,-4.0096,-4.0096,-4.0096,-4.0096,-4.0096,-4.0096,-3.9961,-3.9635,-3.8892,-3.876,-3.896,-3.8905,-3.9148,-3.9613,-4.0272,-4.0489,-4.0489,-4.0489,-4.0489,-4.0489,-4.0489,-4.0489,-4.0489,-4.0489,-4.0489,-4.0489,-4.0489,-4.0489,-4.0489,-4.0489,-4.1089,-4.1817,-4.2109,-4.3417,-4.461,-4.461,-4.461,-4.461,-4.461,-4.461,-4.461,-4.461,-4.461,-4.4225,-4.3048,-4.2879,-4.2309,-4.0705,-4.0489,-4.0489,-4.0489,-4.0489,-4.0489,-4.0489,-4.1971,-4.2879,-4.2879,-4.2879,-4.254,-4.1771,-4.3571,-4.461,-4.461,-4.461,-4.461,-4.461,-4.461,-4.461,-4.461,-4.461,-4.4471,-3.2513,-3.1207,-2.9567,-2.7266,-2.5591,-2.4305,-2.3577,-2.3562,-2.3983,-2.4914,-2.5693,0.0,0.0,0.0,-2.6454,-2.5711,0.0,-2.5,-2.5,-2.5,-2.6234,-2.9567,-3.0987,-3.1616,-3.1413,-3.1295,-3.163,-3.273,-3.2983,-3.3998,-3.6068,-3.7608,-3.8481,-3.8684,-3.9394,-3.991,-4.0096,-4.0096,-4.0096,-4.0096,-4.0096,-4.0096,-4.0096,-4.0096,-4.0096,-4.0096,-4.0096,-3.9961,-3.9635,-3.8684,-3.8644,-3.9111,-3.8681,-3.9113,-4.0013,-4.0389,-4.0489,-4.0489,-4.0489,-4.0489,-4.0489,-4.0489,-4.0489,-4.0489,-4.0489,-4.0489,-4.0489,-4.0489,-4.0489,-4.0489,-4.0489,-4.1397,-4.2309,-4.2263,-4.3248,-4.4279,-4.4526,-4.461,-4.461,-4.461,-4.461,-4.461,-4.461,-4.461,-4.461,-4.461,-4.461,-4.3602,-4.0843,-4.0489,-4.0489,-4.0489,-4.0489,-4.0489,-4.0489,-4.3017,-4.461,-4.461,-4.461,-4.4141,-4.3187,-4.4064,-4.461,-4.461,-4.461,-4.461,-4.461,-4.461,-4.461,-4.461,-4.461,-4.461,-3.2513,-3.1207,-2.9567,-2.7266,-2.5591,-2.4305,-2.3577,-2.3949,-2.488,-2.6336,-2.7232,-2.7959,-2.8756,-2.769,0.0,0.0,0.0,0.0,0.0,-2.346,-2.4306,-2.6573,-2.8805,-2.9888,-2.9179,-3.0381,-3.1207,-3.1258,-3.1938,-3.2987,-3.4472,-3.6034,-3.7218,-3.7922,-3.865,-3.9377,-4.0096,-4.0096,-4.0096,-4.0096,-4.0096,-4.0096,-4.0096,-4.0096,-4.0096,-4.0096,-4.0096,-3.9961,-3.9635,-3.8684,-3.8934,-3.9796,-3.8867,-3.9323,-4.0474,-4.0489,-4.0489,-4.0489,-4.0489,-4.0489,-4.0489,-4.0489,-4.0489,-4.0489,-4.0489,-4.0489,-4.0489,-4.0489,-4.0489,-4.0489,-4.0489,-4.1078,-4.1894,-4.2888,-4.3181,-4.351,-4.4387,-4.461,-4.461,-4.461,-4.461,-4.461,-4.461,-4.461,-4.461,-4.461,-4.461,-4.3602,-4.0843,-4.0489,-4.0489,-4.0489,-4.0489,-4.0489,-4.0489,-4.3017,-4.461,-4.461,-4.461,-4.4594,-4.4548,-4.4594,-4.461,-4.461,-4.461,-4.461,-4.461,-4.461,-4.461,-4.461,-4.461,-4.461,-3.4104,-3.3034,-3.1765,-2.9516,-2.8197,-2.7148,-2.5862,-2.615,-2.6979,-2.8011,-2.8805,-2.9567,-3.0311,-2.923,0.0,0.0,0.0,0.0,0.0,-2.2682,-2.3139,-2.4374,-2.6488,-2.774,-2.7486,-2.7926,-2.8654,-2.967,-2.9974,-3.1193,-3.3643,-3.5199,-3.6366,-3.7168,-3.8345,-3.9106,-3.9385,-3.9859,-4.0096,-4.0096,-4.0096,-4.0096,-4.0096,-4.0096,-4.0096,-4.0096,-4.0096,-3.9961,-3.9635,-3.8684,-3.8934,-3.9828,-3.8883,-3.9305,-4.0489,-4.0489,-4.0489,-4.0489,-4.0489,-4.0489,-4.0489,-4.0489,-4.0489,-4.0489,-4.0489,-4.0489,-4.0489,-4.0489,-4.0489,-4.0489,-4.0489,-4.1401,-4.2355,-4.2725,-4.3479,-4.4202,-4.4548,-4.461,-4.461,-4.461,-4.461,-4.461,-4.461,-4.461,-4.461,-4.461,-4.461,-4.4249,-4.3325,-4.3202,-4.3202,-4.3202,-4.3202,-4.3202,-4.3202,-4.4048,-4.461,-4.461,-4.461,-4.461,-4.461,-4.461,-4.461,-4.461,-4.461,-4.461,-4.461,-4.461,-4.461,-4.461,-4.461,-4.461,-3.5678,-3.4759,-3.3706,-3.1745,-3.0514,-2.9467,-2.8197,-2.828,-2.8838,-2.9617,-3.0362,-3.1106,-3.185,-3.0768,-2.9297,0.0,0.0,0.0,0.0,-2.253,-2.2784,-2.2987,-2.4729,-2.6031,-2.6285,-2.6539,-2.7215,-2.8467,-2.884,-3.0076,-3.2493,-3.4032,-3.5301,-3.6332,-3.7821,-3.8734,-3.8988,-3.974,-4.0096,-4.0096,-4.0096,-4.0096,-4.0096,-4.0096,-4.0096,-4.0096,-4.0096,-3.9961,-3.9642,-3.8935,-3.913,-3.9813,-3.9115,-3.9521,-4.0489,-4.0489,-4.0489,-4.0489,-4.0489,-4.0489,-4.0489,-4.0489,-4.0489,-4.0489,-4.0489,-4.0489,-4.0489,-4.0489,-4.0489,-4.0489,-4.0489,-4.1386,-4.2309,-4.254,-4.3433,-4.4317,-4.4564,-4.461,-4.461,-4.461,-4.461,-4.461,-4.461,-4.461,-4.461,-4.461,-4.461,-4.461,-4.461,-4.461,-4.461,-4.461,-4.461,-4.461,-4.461,-4.461,-4.461,-4.461,-4.461,-4.461,-4.461,-4.461,-4.461,-4.461,-4.461,-4.461,-4.461,-4.461,-4.461,-4.461,-4.461,-4.461]},{"header":{"parameterUnit":"m.s-1","parameterCategory":1,"la1":30.6,"la2":29.2853,"lo1":-89.7004,"lo2":-87.6739,"dy":0.0162,"dx":0.0183,"nx":112,"ny":82,"refTime":"2026-05-22T00:00:00:Z","depth":0,"parameterNumber":3,"parameterNumberName":"V-component_of_WINDS"},"data":[0.0,0.0,0.0,0.0,0.0,0.0,0.0,0.0,0.0,0.0,0.0,0.0,0.0,0.0,0.0,0.0,0.0,0.0,0.0,0.0,0.0,0.0,0.0,0.0,0.0,0.0,0.0,0.0,0.0,0.0,0.0,0.0,0.0,0.0,0.0,0.0,0.0,0.0,0.0,0.0,0.0,0.0,0.0,0.0,0.0,0.0,0.0,0.0,0.0,0.0,0.0,0.0,0.0,0.0,0.0,0.0,0.0,0.0,0.0,0.0,0.0,0.0,0.0,0.0,0.0,0.0,0.0,0.0,0.0,0.0,0.0,0.0,0.0,0.0,0.0,0.0,0.0,0.0,0.0,0.0,0.0,0.0,0.0,0.0,0.0,0.0,0.0,0.0,0.0,0.0,1.9559,2.2008,2.5246,2.6813,2.5757,2.5088,2.3439,2.0399,0.0,0.0,0.0,0.0,0.0,0.0,0.0,0.0,0.0,0.0,0.0,0.0,0.0,0.0,0.0,0.0,0.0,0.0,0.0,0.0,0.0,0.0,0.0,0.0,0.0,0.0,0.0,0.0,0.0,0.0,0.0,0.0,0.0,0.0,0.0,0.0,0.0,0.0,0.0,0.0,0.0,0.0,0.0,0.0,0.0,0.0,0.0,0.0,0.0,0.0,0.0,0.0,0.0,0.0,0.0,0.0,0.0,0.0,0.0,0.0,0.0,0.0,0.0,0.0,0.0,0.0,0.0,0.0,0.0,0.0,0.0,0.0,0.0,0.0,0.0,0.0,0.0,0.0,0.0,0.0,0.0,0.0,0.0,0.0,0.0,0.0,0.0,0.0,0.0,0.0,0.0,0.0,0.0,0.0,0.0,0.0,0.0,0.0,0.0,0.0,0.0,0.0,0.0,0.0,2.0082,2.4739,2.6215,2.6877,2.6832,2.5873,2.4189,2.1665,0.0,0.0,0.0,0.0,0.0,0.0,0.0,0.0,0.0,0.0,0.0,0.0,0.0,0.0,0.0,0.0,0.0,0.0,0.0,0.0,0.0,0.0,0.0,0.0,0.0,0.0,0.0,0.0,0.0,0.0,0.0,0.0,0.0,0.0,0.0,0.0,0.0,0.0,0.0,0.0,0.0,0.0,0.0,0.0,0.0,0.0,0.0,0.0,0.0,0.0,0.0,0.0,0.0,0.0,0.0,0.0,0.0,0.0,0.0,0.0,0.0,0.0,0.0,0.0,0.0,0.0,0.0,0.0,0.0,0.0,0.0,0.0,0.0,0.0,0.0,0.0,0.0,0.0,0.0,0.0,0.0,0.0,0.0,0.0,0.0,0.0,0.0,0.0,0.0,0.0,0.0,0.0,0.0,0.0,0.0,0.0,0.0,0.0,0.0,0.0,0.0,0.0,0.0,1.9157,2.1609,2.4706,2.5896,2.6301,2.5907,2.5178,2.3572,2.084,1.7916,0.0,0.0,0.0,0.0,0.0,0.0,0.0,0.0,0.0,0.0,0.0,0.0,0.0,0.0,0.0,0.0,0.0,0.0,0.0,0.0,0.0,0.0,0.0,0.0,0.0,0.0,0.0,0.0,0.0,0.0,0.0,0.0,0.0,0.0,0.0,0.0,0.0,0.0,0.0,0.0,0.0,0.0,0.0,0.0,0.0,0.0,0.0,0.0,0.0,0.0,0.0,0.0,0.0,0.0,0.0,0.0,0.0,0.0,0.0,0.0,0.0,0.0,0.0,0.0,0.0,0.0,0.0,0.0,0.0,0.0,0.0,0.0,0.0,0.0,0.0,0.0,0.0,0.0,0.0,0.0,0.0,0.0,0.0,0.0,0.0,0.0,0.0,0.0,0.0,0.0,0.0,0.0,0.0,0.0,0.0,0.0,0.0,0.0,0.0,0.0,0.0,0.0,2.0908,2.2709,2.404,2.5112,2.5447,2.4692,2.4075,2.2612,2.0073,1.7435,0.0,0.0,0.0,0.0,0.0,0.0,0.0,0.0,0.0,0.0,0.0,0.0,0.0,0.0,0.0,0.0,0.0,0.0,0.0,0.0,0.0,0.0,0.0,0.0,0.0,0.0,0.0,0.0,0.0,0.0,0.0,0.0,0.0,0.0,0.0,0.0,0.0,0.0,0.0,0.0,0.0,0.0,0.0,0.0,0.0,0.0,0.0,0.0,0.0,0.0,0.0,0.0,0.0,0.0,0.0,0.0,0.0,0.0,0.0,0.0,0.0,0.0,0.0,0.0,0.0,0.0,0.0,0.0,0.0,0.0,0.0,0.0,0.0,0.0,0.0,0.0,0.0,0.0,0.0,0.0,0.0,0.0,0.0,0.0,0.0,0.0,0.0,0.0,0.0,0.0,0.0,0.0,0.0,0.0,0.0,0.0,0.0,0.0,0.0,0.0,0.0,0.0,2.0757,2.2409,2.3706,2.4176,2.4365,2.4177,2.2967,2.1763,2.0621,1.7274,0.0,0.0,0.0,0.0,0.0,0.0,0.0,0.0,0.0,0.0,0.0,0.0,0.0,0.0,0.0,0.0,0.0,0.0,0.0,0.0,0.0,0.0,0.0,0.0,0.0,0.0,0.0,0.0,0.0,0.0,0.0,0.0,0.0,0.0,0.0,0.0,0.0,0.0,0.0,0.0,0.0,0.0,0.0,0.0,0.0,0.0,0.0,0.0,0.0,0.0,0.0,0.0,0.0,0.0,0.0,0.0,0.0,0.0,0.0,0.0,0.0,0.0,0.0,0.0,0.0,0.0,0.0,0.0,0.0,0.0,0.0,0.0,0.0,0.0,0.0,0.0,0.0,0.0,0.0,0.0,0.0,0.0,0.0,0.0,0.0,0.0,0.0,0.0,0.0,0.0,0.0,0.0,0.0,0.0,0.0,0.0,0.0,0.0,0.0,0.0,0.0,0.0,2.1295,2.2866,2.3505,2.4103,2.4144,2.3312,2.2426,2.1183,1.9454,0.0,0.0,0.0,0.0,0.0,0.0,0.0,0.0,0.0,0.0,0.0,0.0,0.0,0.0,0.0,0.0,0.0,0.0,0.0,0.0,0.0,0.0,0.0,0.0,0.0,0.0,0.0,0.0,0.0,0.0,0.0,0.0,0.0,0.0,0.0,0.0,0.0,0.0,0.0,0.0,0.0,0.0,0.0,0.0,0.0,0.0,0.0,0.0,0.0,0.0,0.0,0.0,0.0,0.0,0.0,0.0,0.0,0.0,0.0,0.0,0.0,0.0,0.0,0.0,0.0,0.0,0.0,0.0,0.0,0.0,0.0,0.0,0.0,0.0,0.0,0.0,0.0,0.0,0.0,0.0,0.0,0.0,0.0,0.0,0.0,0.0,0.0,0.0,0.0,0.0,0.0,0.0,0.0,0.0,0.0,0.0,0.0,0.0,0.0,0.0,0.0,0.0,1.8987,2.1371,2.2866,2.306,2.3824,2.3893,2.285,2.2096,2.0854,1.8919,0.0,0.0,0.0,0.0,0.0,0.0,0.0,0.0,0.0,0.0,0.0,0.0,0.0,0.0,0.0,0.0,0.0,0.0,0.0,0.0,0.0,0.0,0.0,0.0,0.0,0.0,0.0,0.0,0.0,0.0,0.0,0.0,0.0,0.0,0.0,0.0,0.0,0.0,0.0,0.0,0.0,0.0,0.0,0.0,0.0,0.0,0.0,0.0,0.0,0.0,0.0,0.0,0.0,0.0,0.0,0.0,0.0,0.0,0.0,0.0,0.0,0.0,0.0,0.0,0.0,0.0,0.0,0.0,0.0,0.0,0.0,0.0,0.0,0.0,0.0,0.0,0.0,0.0,0.0,0.0,0.0,0.0,0.0,0.0,0.0,0.0,0.0,0.0,0.0,0.0,0.0,0.0,0.0,0.0,0.0,0.0,0.0,0.0,0.0,0.0,0.0,0.0,1.865,2.0875,2.2259,2.2389,2.3188,2.3484,2.2948,2.198,2.0766,0.0,0.0,0.0,0.0,0.0,0.0,0.0,0.0,0.0,0.0,0.0,0.0,0.0,0.0,0.0,0.0,0.0,0.0,0.0,0.0,0.0,0.0,0.0,0.0,0.0,0.0,0.0,0.0,0.0,0.0,0.0,0.0,0.0,0.0,0.0,0.0,0.0,0.0,0.0,0.0,0.0,0.0,0.0,0.0,0.0,0.0,0.0,0.0,0.0,0.0,0.0,0.0,0.0,0.0,0.0,0.0,0.0,0.0,0.0,0.0,0.0,0.0,0.0,0.0,0.0,0.0,0.0,0.0,0.0,0.0,0.0,0.0,0.0,0.0,0.0,0.0,0.0,0.0,0.0,0.0,0.0,0.0,0.0,0.0,0.0,0.0,0.0,0.0,0.0,0.0,0.0,0.0,0.0,0.0,0.0,0.0,0.0,0.0,0.0,0.0,0.0,0.0,0.0,1.8698,2.1512,2.3047,2.2332,2.3318,2.3616,2.2484,2.2009,2.1116,1.9571,0.0,0.0,0.0,0.0,0.0,0.0,0.0,0.0,0.0,0.0,0.0,0.0,0.0,0.0,0.0,0.0,0.0,0.0,0.0,0.0,0.0,0.0,0.0,0.0,0.0,0.0,0.0,0.0,0.0,0.0,0.0,0.0,0.0,0.0,0.0,0.0,0.0,0.0,0.0,0.0,0.0,0.0,0.0,0.0,0.0,0.0,0.0,0.0,0.0,0.0,0.0,0.0,0.0,0.0,0.0,0.0,0.0,0.0,0.0,0.0,0.0,0.0,0.0,0.0,0.0,0.0,0.0,0.0,0.0,0.0,0.0,0.0,0.0,0.0,0.0,0.0,0.0,0.0,0.0,0.0,0.0,0.0,0.0,0.0,0.0,0.0,0.0,0.0,0.0,0.0,0.0,0.0,0.0,0.0,0.0,0.0,0.0,0.0,0.0,0.0,0.0,0.0,1.871,2.1638,2.3168,2.2282,2.3091,2.3389,2.2546,2.2192,2.1397,1.9984,0.0,0.0,0.0,0.0,0.0,0.0,0.0,0.0,0.0,0.0,0.0,0.0,0.0,0.0,0.0,0.0,0.0,0.0,0.0,0.0,0.0,0.0,0.0,0.0,0.0,0.0,0.0,0.0,0.0,0.0,0.0,0.0,0.0,0.0,0.0,0.0,0.0,0.0,0.0,0.0,0.0,0.0,0.0,0.0,0.0,0.0,0.0,0.0,0.0,0.0,0.0,0.0,0.0,0.0,0.0,0.0,0.0,0.0,0.0,0.0,0.0,0.0,0.0,0.0,0.0,0.0,0.0,0.0,0.0,0.0,0.0,0.0,0.0,0.0,0.0,0.0,0.0,0.0,0.0,0.0,0.0,0.0,0.0,0.0,0.0,0.0,0.0,0.0,0.0,0.0,0.0,0.0,0.0,0.0,0.0,0.0,0.0,0.0,0.0,0.0,0.0,0.0,1.8722,2.1368,2.2867,2.2258,2.2714,2.3001,2.2867,2.2439,2.1616,2.0401,0.0,0.0,0.0,0.0,0.0,0.0,0.0,0.0,0.0,0.0,0.0,0.0,0.0,0.0,0.0,0.0,0.0,0.0,0.0,0.0,0.0,0.0,0.0,0.0,0.0,0.0,0.0,0.0,0.0,0.0,0.0,0.0,0.0,0.0,0.0,0.0,0.0,0.0,0.0,0.0,0.0,0.0,0.0,0.0,0.0,0.0,0.0,0.0,0.0,0.0,0.0,0.0,0.0,0.0,0.0,0.0,0.0,0.0,0.0,0.0,1.5798,1.5498,0.0,0.0,0.0,0.0,0.0,0.0,0.0,0.0,0.0,0.0,0.0,0.0,0.0,0.0,0.0,0.0,0.0,0.0,0.0,0.0,0.0,0.0,0.0,0.0,0.0,0.0,0.0,0.0,0.0,0.0,0.0,0.0,0.0,0.0,0.0,0.0,0.0,0.0,0.0,0.0,1.877,2.1723,2.3276,2.2294,2.3071,2.3305,2.2567,2.2137,2.1453,2.0444,1.8356,0.0,0.0,0.0,0.0,0.0,0.0,0.0,0.0,0.0,0.0,0.0,0.0,0.0,0.0,0.0,0.0,0.0,0.0,0.0,0.0,0.0,0.0,0.0,0.0,0.0,0.0,0.0,0.0,0.0,0.0,0.0,0.0,0.0,0.0,0.0,0.0,0.0,0.0,0.0,0.0,0.0,0.0,0.0,0.0,0.0,0.0,0.0,0.0,0.0,0.0,0.0,0.0,0.0,0.0,0.0,0.0,0.0,0.0,0.0,1.7564,1.7095,0.0,0.0,0.0,0.0,0.0,0.0,0.0,0.0,0.0,0.0,0.0,0.0,0.0,0.0,0.0,0.0,0.0,0.0,0.0,0.0,0.0,0.0,0.0,0.0,0.0,0.0,0.0,0.0,0.0,0.0,0.0,0.0,0.0,0.0,0.0,0.0,0.0,0.0,0.0,0.0,1.9131,2.1759,2.3119,2.2282,2.2939,2.316,2.2462,2.2097,2.1531,2.0694,1.8808,0.0,0.0,0.0,0.0,0.0,0.0,0.0,0.0,0.0,0.0,0.0,0.0,0.0,0.0,0.0,0.0,0.0,0.0,0.0,0.0,0.0,0.0,0.0,0.0,0.0,0.0,0.0,0.0,0.0,0.0,0.0,0.0,0.0,0.0,0.0,0.0,0.0,0.0,0.0,0.0,0.0,0.0,0.0,0.0,0.0,0.0,0.0,0.0,0.0,0.0,0.0,0.0,0.0,1.7793,1.8379,1.8477,1.9189,1.9868,2.0371,1.9546,1.9098,1.904,1.9343,0.0,0.0,0.0,0.0,0.0,0.0,0.0,0.0,0.0,0.0,0.0,0.0,0.0,0.0,0.0,0.0,0.0,0.0,0.0,0.0,0.0,0.0,2.2462,2.1945,2.1813,2.1211,1.8999,0.0,0.0,0.0,0.0,0.0,0.0,0.0,0.0,0.0,0.0,0.0,1.9567,2.1759,2.2915,2.2258,2.2751,2.2923,2.2419,2.2119,2.162,2.0822,1.9322,1.7818,0.0,0.0,0.0,0.0,0.0,0.0,0.0,0.0,0.0,0.0,0.0,0.0,0.0,0.0,0.0,0.0,0.0,0.0,0.0,0.0,0.0,0.0,0.0,0.0,0.0,0.0,0.0,0.0,0.0,0.0,0.0,0.0,0.9006,0.9505,0.0,0.0,0.0,0.0,0.0,0.0,0.0,0.0,0.0,0.0,0.0,0.0,0.0,1.6248,1.6356,1.7564,1.8393,1.8867,1.9404,1.9863,2.0273,2.038,2.0761,2.1313,2.1366,0.0,2.1016,2.0697,0.0,0.0,0.0,0.0,0.0,0.0,0.0,0.0,0.0,0.0,0.0,0.0,0.0,0.0,0.0,0.0,0.0,0.0,0.0,0.0,0.0,0.0,2.4085,2.3613,2.3493,2.3396,2.3035,2.1488,1.9849,1.8782,1.8097,1.7352,0.0,0.0,0.0,0.0,0.0,0.0,1.9652,2.2084,2.3324,2.2294,2.3107,2.33,2.2301,2.1982,2.1403,2.0444,1.9761,1.8767,1.7295,1.7011,0.0,0.0,0.0,0.0,0.0,0.0,0.0,0.0,0.0,0.0,0.0,0.0,0.0,0.0,0.0,0.0,0.0,0.0,0.0,0.0,0.0,0.0,0.0,0.0,0.0,0.0,0.0,0.0,0.0,0.9446,1.0425,1.053,1.0975,1.1124,0.0,0.0,0.0,0.0,0.0,0.0,0.0,0.0,0.0,1.6028,1.7158,1.7993,1.8481,1.9533,2.0312,2.0752,2.1416,2.1826,2.2021,2.2266,2.2523,2.2784,2.2614,2.2444,2.2312,2.1732,2.1137,2.0588,0.0,0.0,0.0,0.0,2.025,2.0542,2.1466,2.1624,2.1499,2.1921,0.0,0.0,0.0,0.0,0.0,0.0,0.0,2.2125,2.2915,2.4242,2.5204,2.4386,2.4422,2.4482,2.3926,2.3071,2.2065,2.0995,1.9865,1.8843,1.8085,1.7051,0.0,0.0,0.0,1.9588,2.0959,2.271,2.3505,2.2714,2.3348,2.3372,2.2282,2.2091,2.1739,2.1076,2.0378,1.9521,1.8464,1.8081,1.7167,0.0,0.0,0.0,0.0,0.0,0.0,0.0,0.0,0.0,0.0,0.0,0.0,0.0,0.0,0.0,0.0,0.0,0.0,0.0,0.0,0.0,0.0,0.0,0.0,0.0,0.0,0.0,0.0,1.0742,1.1607,1.161,1.2164,1.243,0.0,0.0,0.0,0.0,0.0,0.0,1.5664,1.6101,1.6792,1.7842,1.8728,1.9535,2.0244,2.1043,2.1695,2.2133,2.2776,2.3138,2.3264,2.3638,2.3783,2.3764,2.3399,2.3254,2.3188,2.2443,2.1871,2.1361,2.0911,2.0704,2.0759,2.1262,2.1621,2.2069,2.3216,2.3641,2.3813,2.4412,2.4025,2.3232,2.2438,0.0,0.0,0.0,0.0,2.3701,2.4263,2.5336,2.6105,2.5288,2.5432,2.548,2.4589,2.4287,2.3842,2.263,2.1349,2.0225,1.9696,1.8722,0.0,1.9263,1.9865,2.0682,2.2017,2.3232,2.3746,2.3083,2.3493,2.3372,2.2282,2.2197,2.197,2.1371,2.0799,2.0062,1.9157,1.8891,1.8093,1.6641,0.0,0.0,0.0,0.0,0.0,0.0,0.0,0.0,0.0,0.0,0.0,0.0,0.0,0.0,0.0,0.0,0.0,0.0,0.0,0.0,0.0,0.0,0.0,0.0,0.0,0.0,0.0,0.0,0.0,1.2667,1.3208,0.0,0.0,0.0,0.0,1.4658,1.5859,1.657,1.6629,1.7962,1.8858,1.9189,2.0207,2.0893,2.1122,2.1823,2.2366,2.2746,2.29,2.3237,2.3653,2.3672,2.3691,2.3682,2.3663,2.3653,2.3613,2.2862,2.2423,2.217,2.1588,2.1497,2.1824,2.2819,2.3552,2.4235,2.5655,2.6219,2.6431,2.6655,2.5685,2.44,2.434,2.364,0.0,0.0,2.4747,2.5312,2.5841,2.643,2.6837,2.6789,2.6789,2.6657,2.6105,2.5588,2.4771,2.3232,2.2474,2.1909,2.1368,0.0,1.9865,2.0413,2.0983,2.1536,2.2113,2.3532,2.4097,2.3087,2.3493,2.3372,2.2282,2.2197,2.1753,2.0718,2.0844,2.035,1.8983,1.9503,1.9167,1.7747,1.6982,0.0,0.0,0.0,0.0,0.0,0.0,0.0,0.0,0.0,0.0,0.0,0.0,0.0,0.0,0.0,0.0,0.0,0.0,0.0,0.0,0.0,0.0,0.0,0.0,0.0,0.0,0.0,0.0,1.4068,1.478,0.0,1.5112,1.5584,1.6098,1.6645,1.7449,1.8216,1.8933,1.9466,1.9975,2.051,2.131,2.1684,2.16,2.2251,2.2696,2.2929,2.3301,2.3682,2.4108,2.4108,2.4108,2.4051,2.3786,2.3626,2.343,2.3148,2.2876,2.2526,2.2036,2.19,2.208,2.2882,2.3462,2.4118,2.5784,2.6527,2.6784,2.7248,2.6777,2.5973,2.5636,2.5276,2.5059,2.5432,2.5937,2.6357,2.6549,2.6994,2.7318,2.697,2.715,2.715,2.6286,2.5949,2.5552,2.465,2.3785,2.318,2.2987,2.2638,2.2445,2.265,2.2811,2.3111,2.3628,2.3893,2.3893,2.3553,2.3384,2.2999,2.2258,2.2197,2.1885,2.1163,2.0878,2.043,1.9758,1.9965,1.9634,1.8723,1.848,1.7444,0.0,0.0,0.0,0.0,0.0,0.0,0.0,0.0,0.0,0.0,0.0,0.0,0.0,0.0,0.0,0.0,0.0,0.0,0.0,0.0,0.0,0.0,0.0,0.0,0.0,1.3399,1.4638,1.536,1.6099,1.6603,1.6679,1.7048,1.7548,1.8199,1.8728,1.9428,2.0241,2.0486,2.0832,2.1367,2.1912,2.213,2.1991,2.2495,2.2858,2.3091,2.3458,2.388,2.4292,2.4292,2.4292,2.4225,2.3963,2.3746,2.3594,2.3455,2.3206,2.2945,2.2518,2.2423,2.2576,2.3016,2.3586,2.4313,2.606,2.6983,2.7443,2.7837,2.7714,2.7354,2.7019,2.6911,2.6911,2.6911,2.7176,2.7426,2.7426,2.7678,2.7858,2.751,2.769,2.7741,2.6839,2.6502,2.6226,2.5673,2.4735,2.4025,2.4025,2.3914,2.3806,2.3806,2.395,2.4145,2.447,2.4386,2.4191,2.3842,2.3493,2.2987,2.2258,2.2197,2.1897,2.1187,2.0815,2.037,1.989,2.0038,1.9883,1.9377,1.9118,1.7876,1.564,0.0,0.0,0.0,0.0,0.0,0.0,0.0,0.0,0.0,0.0,0.0,0.0,0.0,0.0,0.0,0.0,0.0,0.0,0.0,0.0,0.0,0.0,0.0,1.3086,1.441,1.5631,1.6438,1.7116,1.7622,1.7839,1.7884,1.8293,1.925,1.9723,2.012,2.0526,2.1076,2.1525,2.1802,2.1979,2.2185,2.2372,2.2588,2.2917,2.3317,2.3459,2.3758,2.4202,2.4202,2.4202,2.4202,2.4202,2.4202,2.4165,2.373,2.3508,2.3471,2.3068,2.3054,2.3289,2.3374,2.4023,2.5073,2.6646,2.7771,2.8519,2.8519,2.8519,2.8519,2.8507,2.8534,2.8534,2.851,2.851,2.851,2.851,2.851,2.851,2.851,2.851,2.8366,2.7837,2.7282,2.6753,2.6214,2.5264,2.4532,2.4542,2.4145,2.3854,2.3854,2.423,0.0,2.4508,2.4975,2.4903,2.3938,2.3794,2.336,2.2306,2.2185,2.1716,2.0682,2.0569,2.0173,1.9245,1.9708,1.9913,1.9725,1.8856,1.7364,1.5204,0.0,0.0,0.0,0.0,0.0,0.0,0.0,0.0,0.0,0.0,0.0,0.0,0.0,0.0,0.0,0.0,0.0,0.0,0.0,0.0,0.0,1.3395,1.432,1.4183,1.5325,1.6529,1.7522,1.8064,1.8614,1.9249,1.9453,1.9785,2.0339,2.0671,2.0925,2.1151,2.1308,2.1482,2.1743,2.1952,2.2192,2.2335,2.2592,2.2964,2.3439,2.3492,2.3758,2.4202,2.4202,2.4202,2.4202,2.4202,2.4202,2.4192,2.4082,2.3987,2.3914,2.3178,2.296,2.3036,2.3401,2.4584,2.6159,2.6933,2.7807,2.8595,2.8806,2.8974,2.9112,2.8869,2.8913,2.9003,2.8619,2.851,2.851,2.851,2.851,2.851,2.851,2.851,2.8366,2.7837,2.757,2.7224,2.6286,2.5865,2.554,2.5155,2.4975,2.4891,2.4891,2.5011,2.5095,2.5095,2.4879,2.4626,2.4338,2.3652,2.3119,2.283,2.2065,2.132,2.0651,2.0254,1.9763,1.9233,1.9539,1.985,2.012,1.9285,1.8464,0.0,0.0,0.0,0.0,0.0,0.0,0.0,0.0,0.0,0.0,0.0,0.0,0.0,0.0,0.0,0.0,0.0,0.0,0.0,0.0,0.0,0.0,1.4839,1.589,1.6033,1.6692,1.7475,1.8265,1.888,1.9372,1.9838,2.0154,2.0495,2.0893,2.1076,2.1262,2.1496,2.1514,2.1581,2.1687,2.2031,2.2234,2.2282,2.2806,2.3174,2.3499,2.3712,2.3923,2.4202,2.4202,2.4202,2.4202,2.4202,2.4202,2.4202,2.4202,2.4202,2.4156,0.0,0.0,0.0,0.0,2.4634,2.5754,2.6238,2.704,2.7842,2.8115,2.8591,2.906,2.896,2.9089,2.9232,2.8931,2.8679,2.851,2.851,2.851,2.851,2.851,2.851,2.8426,2.8114,2.7846,2.7536,2.6899,2.6406,0.0,2.5697,2.5456,2.5312,2.5312,2.5312,2.5312,2.5312,2.5035,2.4771,2.4508,2.3797,2.3252,2.3035,2.2209,0.0,0.0,0.0,1.9972,1.9629,2.0054,0.0,0.0,0.0,0.0,0.0,1.9424,0.0,0.0,1.8143,1.8854,0.0,0.0,0.0,0.0,0.0,0.0,0.0,0.0,0.0,0.0,0.0,0.0,0.0,0.0,0.0,0.0,1.6056,1.7358,1.8054,1.8191,1.8385,1.8742,1.9417,1.9902,1.9948,2.0314,2.075,2.1145,2.1181,2.1302,2.1668,2.1696,0.0,0.0,0.0,2.23,2.2346,2.3105,2.3517,2.3563,2.3978,2.4202,2.4202,2.4202,2.4202,2.4202,2.4202,2.4202,2.4202,2.4202,2.4202,2.4202,2.4202,2.4202,2.4205,2.4225,2.4402,2.4753,2.5193,0.0,0.0,2.7013,2.7767,2.861,2.889,2.9127,2.9294,2.9275,2.8879,2.851,2.851,2.851,2.851,2.851,2.851,2.851,2.851,2.8138,2.775,2.769,2.6887,2.6178,2.6105,2.5661,2.5312,2.5312,2.5312,2.5312,2.5312,2.5312,2.5131,2.4628,2.4109,0.0,2.3144,2.2474,2.1909,2.144,2.0911,2.0479,2.026,2.0828,2.0976,2.0578,2.0882,2.0906,2.0642,2.1403,2.2006,2.2396,2.1119,2.1417,0.0,0.0,0.0,0.0,0.0,0.0,0.0,0.0,0.0,0.0,0.0,0.0,0.0,0.0,0.0,1.5826,1.7312,1.8421,1.8577,1.8871,1.91,1.9173,1.9622,2.0012,2.0332,2.0759,2.1172,2.154,2.1568,2.1604,2.1687,2.1696,2.1696,2.1696,2.2071,2.2446,2.2785,2.3251,2.3712,2.4082,2.4165,0.0,2.4202,2.4202,2.4202,2.4202,2.4202,2.4202,2.4202,2.4202,2.4202,2.4202,2.4202,2.4202,2.4242,2.4396,2.4742,2.5189,2.5526,2.6004,2.6611,2.7045,2.7689,2.8399,2.8668,2.9051,0.0,2.9041,2.8757,2.851,2.851,2.851,2.851,2.851,2.851,2.851,2.851,2.8426,2.8234,2.7762,2.7162,2.6597,2.6178,2.5661,2.5312,2.5312,2.5312,2.5312,2.5312,2.5312,2.5264,2.5168,2.4326,2.3758,2.3661,2.2354,2.1512,2.1416,2.0911,2.0574,2.0511,2.0738,2.0932,2.1059,2.1591,2.2141,2.272,2.3258,2.4042,2.5048,2.3769,2.3354,0.0,0.0,0.0,0.0,0.0,0.0,0.0,0.0,0.0,0.0,0.0,1.317,1.4088,0.0,1.6505,1.7084,1.8229,1.9008,1.9008,1.9173,1.9375,1.9595,1.998,2.0383,2.0778,2.1138,2.1467,2.1678,2.1696,2.1696,2.1696,2.1696,2.1778,2.198,2.2382,2.2785,2.3197,2.3648,2.395,2.4202,2.4202,2.4202,2.4202,2.4202,2.4202,2.4202,2.4202,2.4202,2.4202,2.4202,2.4202,2.4202,2.4202,2.4202,2.4202,2.4291,2.4529,2.4775,2.4922,2.5206,2.5548,2.5936,2.6638,2.7432,2.7968,2.8433,2.8834,2.8911,2.8744,2.851,2.851,2.851,2.851,2.851,2.851,2.851,2.851,2.851,2.8426,2.8174,2.7438,2.6801,2.6562,2.5841,2.5312,2.5312,2.5312,2.5312,2.5312,2.5312,2.5312,2.5312,2.4614,2.4071,2.383,2.2558,2.1692,2.1416,2.1404,2.1284,2.1019,2.1319,2.1496,2.1494,2.1939,2.2615,2.3607,2.3966,2.5005,2.663,2.6009,2.5731,0.0,0.0,0.0,0.0,0.0,0.0,0.0,1.203,1.2437,1.3125,1.4107,1.4934,1.5359,1.6633,1.7752,1.8136,1.8834,1.9301,1.9301,1.9301,1.9485,1.9948,2.0287,2.0677,2.1071,2.1449,2.1696,2.1696,2.1696,2.1696,2.1696,2.1696,2.187,2.2272,2.2684,2.3096,2.3489,2.395,2.4202,2.4202,2.4202,2.4202,2.4202,2.4202,2.4202,2.4202,2.4202,2.4202,2.4202,2.4202,2.4202,2.4202,2.4202,2.4202,2.4202,2.4202,2.4202,2.4202,2.4202,2.4301,2.4489,2.4735,2.5489,2.6436,2.7258,2.7909,2.839,2.8853,2.8852,2.8643,2.8534,2.851,2.851,2.851,2.851,2.851,2.851,2.851,2.851,2.851,2.7618,2.6898,2.6898,2.5997,2.5312,2.5312,2.5312,2.5312,2.5312,2.5312,2.5312,2.5312,2.4831,2.4278,2.3697,2.2835,2.2125,2.1596,2.1957,2.2005,2.1572,2.2065,2.2261,2.2054,2.2457,2.3189,2.4249,2.4584,2.5772,2.7636,2.7806,2.7889,1.083,1.1287,1.1931,1.1979,1.2334,1.2847,0.0,1.3546,1.3781,1.4807,1.5315,1.5822,1.656,1.744,1.8145,1.8586,1.9017,1.9301,1.9301,1.9301,1.9586,2.0356,2.0451,2.0677,2.1071,2.1449,2.1696,2.1696,2.1696,2.1696,2.1696,2.1696,2.187,2.2272,2.2684,2.3096,2.3489,2.395,2.4202,2.4202,2.4202,2.4202,2.4202,2.4202,2.4202,2.4202,2.4202,2.4202,2.4202,2.4202,2.4202,2.4202,2.4202,2.4202,2.4202,2.4202,2.4202,2.4202,2.4202,2.4202,2.4251,2.4489,2.5109,2.5974,2.6935,2.7893,2.87,2.8913,2.9112,2.91,2.8631,2.851,2.851,2.851,2.851,2.851,2.851,2.851,2.851,2.851,2.7618,2.6898,2.6898,2.5997,2.5312,2.5312,2.5312,2.5312,2.5312,2.5312,2.5312,2.5312,2.4831,2.4133,2.318,2.2987,2.2666,2.2137,2.2161,2.2161,2.2101,2.265,2.2903,2.2862,2.3759,2.4672,2.5507,2.6116,2.7015,2.814,2.8843,2.8958,1.2041,1.25,1.3071,1.3594,1.4043,1.4457,1.4821,1.5218,1.5632,1.6132,1.6879,1.755,1.7899,1.8421,1.8861,1.9026,1.9191,1.9301,1.9301,1.9301,1.9522,2.0067,2.0383,2.0769,2.141,2.1586,2.1696,2.1696,2.1696,2.1696,2.1696,2.1906,2.2227,2.2629,2.3041,2.3444,2.3895,2.4119,2.433,2.4569,2.4569,2.4689,2.4909,2.4909,2.479,2.456,2.4312,2.4202,2.4202,2.4202,2.4202,2.4202,2.4202,2.4202,2.4202,2.4202,2.4202,2.4202,2.4202,2.4202,2.4251,2.443,2.4922,2.5635,2.6648,2.7693,2.8556,2.9074,2.9256,2.9256,2.9027,2.8739,2.851,2.851,2.851,2.851,2.851,2.851,2.851,2.851,2.7618,2.6898,2.6898,2.5997,2.5312,2.5312,2.5312,2.5312,2.5312,2.5312,2.5312,2.5312,2.4831,2.435,2.3917,2.3604,2.3372,2.3156,2.3144,2.3144,2.3144,2.336,2.3469,2.3469,2.3981,2.4608,2.5401,2.5821,2.6748,2.8206,2.8549,2.8928,1.293,1.3519,1.4109,1.4758,1.5255,1.5648,1.5791,1.6294,1.6749,1.6851,1.7688,1.8375,1.8375,1.8797,1.9136,1.9136,1.9228,1.9301,1.9301,1.9402,1.9622,2.0003,2.0438,2.0961,2.1623,2.1696,2.1696,2.1696,2.1696,2.1742,2.1851,2.2126,2.2519,2.305,2.3343,2.3739,2.4202,2.4202,2.4413,2.4785,2.4785,2.4986,2.5424,2.5424,2.5161,2.4766,2.4505,2.4312,2.4202,2.4202,2.4202,2.4202,2.4202,2.4202,2.4202,2.4202,2.4202,2.4202,2.4202,2.4202,2.4251,2.443,2.4913,2.5586,2.66,2.7732,2.8768,2.9315,2.9526,2.9484,2.934,2.8907,2.851,2.851,2.851,2.851,2.851,2.851,2.851,2.851,2.7738,2.7066,2.6922,2.6117,2.548,2.5336,2.5312,2.5312,2.5312,2.5312,2.5312,2.5312,2.4963,2.464,2.4496,2.4181,2.395,2.3806,2.3806,2.3806,2.3806,2.3938,2.3977,2.3977,2.4289,2.4772,2.547,2.571,2.6593,2.8016,2.8111,2.8643,1.3379,1.4305,1.5157,1.5186,1.5708,1.6232,1.6421,1.649,1.6563,1.6851,1.7238,1.7532,1.7532,1.8192,1.8733,1.8733,1.9054,1.9301,1.9301,1.965,2.0021,2.0415,2.0851,2.1255,2.165,2.1696,2.1696,2.1696,2.1696,2.1861,2.2245,2.2272,2.2648,2.3453,2.3489,2.3739,2.4202,2.4202,2.4413,2.4785,2.4785,2.4986,2.5424,2.5424,2.5161,2.4785,2.4766,2.4578,2.4202,2.4202,2.4202,2.4202,2.4202,2.4202,2.4202,2.4202,2.4202,2.4202,2.4202,2.4202,2.4251,2.443,2.502,2.5887,2.6897,2.8258,2.9499,2.9729,2.9914,2.9941,2.9436,2.8907,2.851,2.851,2.851,2.851,2.851,2.851,2.851,2.851,2.8065,2.7498,2.6982,2.6454,2.5901,2.5384,2.5312,2.5312,2.5312,2.5312,2.5312,2.5312,2.53,2.5083,2.4532,2.4506,2.429,2.383,2.3806,2.3806,2.3806,2.4242,2.446,2.446,2.5185,2.5767,2.6183,2.6488,2.6963,2.7524,2.7841,2.8298,1.4461,1.509,1.5702,1.6141,1.6429,1.6675,1.6902,1.7176,1.7274,1.6971,1.722,1.7495,1.7495,1.7715,1.8082,1.8623,1.8825,1.91,1.96,1.9802,2.0031,2.0466,2.0869,2.1163,2.131,2.1531,2.1696,2.1696,2.1934,2.2144,2.2272,2.2794,2.3206,2.348,2.3804,2.4064,2.4202,2.4202,2.4551,2.5179,2.5488,2.569,2.58,2.5277,2.4904,2.4766,2.4542,2.4339,2.4202,2.4202,2.4202,2.4202,2.4202,2.4202,2.4202,2.4202,2.4202,2.4202,2.4202,2.4202,2.4251,2.4637,2.545,2.6408,2.7421,2.8781,2.9977,3.0073,3.0067,2.9965,2.9436,2.8907,2.851,2.851,2.851,2.851,2.851,2.851,2.851,2.851,2.8089,2.7522,2.6994,2.6466,2.5913,2.5384,2.5312,2.5312,2.5312,2.5312,2.5312,2.5312,2.5312,2.524,2.5059,2.5035,2.4975,2.4807,2.4795,2.4795,2.4795,2.4951,2.5035,2.5035,2.5251,2.5606,2.6002,2.6094,2.6427,2.6973,2.7061,2.7497,1.5244,1.5842,1.6311,1.6633,1.6852,1.707,1.7079,1.7174,1.7158,1.6752,1.667,1.6679,1.6826,1.6972,1.7339,1.8146,1.8522,1.8999,1.9774,2.0012,2.025,2.0686,2.1089,2.1328,2.1328,2.1531,2.1696,2.1696,2.2053,2.2346,2.2492,2.3133,2.3563,2.3749,2.4064,2.4202,2.4202,2.4202,2.4542,2.517,2.5607,2.58,2.5782,2.5225,2.4913,2.4766,2.4542,2.4339,2.4202,2.4202,2.4202,2.4202,2.4202,2.4202,2.4202,2.4202,2.4202,2.4202,2.4202,2.4202,2.4301,2.4745,2.5693,2.6781,2.7704,2.9106,3.0373,3.0484,3.0307,3.0013,2.9677,2.9051,2.851,2.851,2.851,2.851,2.851,2.851,2.851,2.851,2.8234,2.7738,2.7018,2.631,2.5709,2.536,2.5312,2.5312,2.5312,2.5312,2.5312,2.5312,2.5312,2.5312,2.5312,2.5312,2.5312,2.5312,2.5312,2.5312,2.5312,2.5312,2.5312,2.5312,2.5312,2.543,2.5688,2.5688,2.5851,2.6186,2.6267,2.6645,1.5741,1.6505,1.7051,1.6643,1.7031,1.7385,1.6972,1.6569,1.6276,1.623,1.5588,1.5157,1.5551,1.5973,1.6532,1.7358,1.8164,1.8981,1.9774,2.0264,2.0668,2.1062,2.1484,2.1696,2.1696,2.1696,2.1696,2.1696,2.2071,2.2483,2.2885,2.3297,2.3749,2.4192,2.4202,2.4202,2.4202,2.422,2.4431,2.4785,2.5212,2.5387,2.5387,2.5368,2.5157,2.4748,2.4748,2.4578,2.4202,2.422,2.4238,2.4238,2.4257,2.4248,2.4238,2.4238,2.422,2.4202,2.4202,2.4202,2.4301,2.4735,2.5781,2.6972,2.7799,2.9233,3.0668,3.0892,3.0569,3.0122,3.0062,2.9304,2.8546,2.8522,2.851,2.851,2.851,2.851,2.851,2.851,2.8462,2.8114,2.7066,2.5997,2.5312,2.5312,2.5312,2.5312,2.5312,2.5312,2.5312,2.5312,2.5312,2.5312,2.5312,2.5312,2.5312,2.5312,2.5312,2.5312,2.5312,2.5312,2.5312,2.5312,2.5312,2.5312,2.5312,2.5312,2.5312,2.5312,2.55,2.5816,1.6562,1.7176,1.7543,1.7326,1.7375,1.7312,1.6624,1.6147,1.568,1.5093,1.4561,1.4323,1.4735,1.5139,1.5872,1.7266,1.7935,1.8621,1.9738,2.0264,2.0668,2.1062,2.1484,2.1696,2.1696,2.1696,2.1696,2.1696,2.2346,2.2794,2.2904,2.362,2.4101,2.4202,2.4202,2.4202,2.4202,2.4514,2.4675,2.4785,2.4886,2.4931,2.4922,2.4661,2.4459,2.4367,2.4367,2.4303,2.4229,2.4542,2.467,2.4707,2.5001,2.4937,2.467,2.467,2.4468,2.4202,2.4202,2.4202,2.4301,2.499,2.6071,2.7295,2.8247,2.96,3.0822,3.0655,3.0663,3.0494,2.9701,2.9304,2.9003,2.8607,2.851,2.851,2.851,2.851,2.851,2.851,2.7834,2.721,2.6946,2.5997,2.5312,2.5312,2.5312,2.5312,2.5312,2.5312,2.5312,2.5312,2.5312,2.5312,2.5312,2.5312,2.5312,2.5312,2.5312,2.5312,2.5312,2.5312,2.5312,2.5312,2.5312,2.5312,2.5312,2.5312,2.5312,2.5312,2.5347,2.5606,1.7166,1.7656,1.7843,1.7577,1.7495,1.7238,1.6266,1.5588,1.4946,1.4139,1.3506,1.324,1.3626,1.4029,1.4836,1.6441,1.7348,1.8275,1.9485,2.0154,2.0668,2.1062,2.1484,2.1696,2.1696,2.1696,2.176,2.1934,2.2547,2.2904,2.2904,2.3721,2.4202,2.4202,2.4202,2.4202,2.4202,2.444,2.456,2.456,2.4744,2.4785,2.4776,2.4587,2.4477,2.4477,2.4477,2.4477,2.4514,2.4918,2.5041,2.5111,2.5289,2.5133,2.4785,2.4785,2.4569,2.4202,2.4202,2.4202,2.4301,2.4941,2.5984,2.72,2.8107,2.952,3.0744,3.0741,3.0799,3.0735,3.0146,2.9641,2.922,2.8931,2.8679,2.851,2.851,2.851,2.851,2.851,2.7798,2.7174,2.6934,2.6226,2.5576,2.5348,2.5312,2.5312,2.5312,2.5312,2.5312,2.5312,2.5312,2.5312,2.5312,2.5312,2.5312,2.5312,2.5312,2.5312,2.5312,2.5312,2.5312,2.5312,2.5312,2.5312,2.5312,2.5312,2.5312,2.5312,2.5312,2.5418,1.7541,1.7926,1.7972,1.7532,1.7458,1.7147,1.5835,1.4919,1.4121,1.3305,1.2505,1.2073,1.2533,1.2955,1.3736,1.5349,1.6578,1.7761,1.8971,1.9888,2.0585,2.0979,2.1403,2.1696,2.1696,2.1742,2.1906,2.2254,2.2721,2.2986,2.2986,2.3749,2.4202,2.4202,2.4202,2.4202,2.4202,2.4257,2.4284,2.4293,2.4716,2.4858,2.4858,2.4803,2.4785,2.4785,2.4785,2.4785,2.4812,2.5313,2.5506,2.5454,2.5561,2.5289,2.4931,2.4876,2.4643,2.4275,2.422,2.4202,2.4301,2.4745,2.5684,2.6877,2.7694,2.9141,3.0578,3.0871,3.0997,3.1007,3.0934,3.0146,2.9388,2.9316,2.8895,2.851,2.851,2.851,2.851,2.851,2.8089,2.7522,2.6994,2.6466,2.5913,2.5384,2.5312,2.5312,2.5312,2.5312,2.5312,2.5312,2.5312,2.5312,2.5312,2.5312,2.5312,2.5312,2.5312,2.5312,2.5312,2.5312,2.5312,2.5312,2.5312,2.5312,2.5312,2.5312,2.5312,2.5312,2.5312,2.5312,1.7346,1.7807,1.7908,1.7193,1.7257,1.7009,1.5139,1.4093,1.3277,1.2478,1.166,1.132,1.2064,1.2533,1.3332,1.4937,1.5945,1.6945,1.8155,1.9271,2.0131,2.0576,2.1238,2.1696,2.1696,2.1989,2.2199,2.2272,2.2968,2.3398,2.3398,2.3895,2.4202,2.4202,2.4202,2.4202,2.4202,2.4551,2.4725,2.4675,2.5078,2.5323,2.5262,2.4931,2.4785,2.4785,2.4785,2.4785,2.484,2.5607,2.5911,2.5947,2.6243,2.6123,2.5764,2.5442,2.5014,2.4629,2.4321,2.4202,2.4301,2.4745,2.5441,2.632,2.7352,2.8749,3.0045,3.0532,3.1101,3.1476,3.1031,3.041,2.9845,2.94,2.8895,2.851,2.851,2.851,2.851,2.851,2.8089,2.7522,2.6994,2.6466,2.5913,2.5384,2.5312,2.5312,2.5312,2.5312,2.5312,2.5312,2.5312,2.5312,2.5312,2.5312,2.5312,2.5312,2.5312,2.5312,2.5312,2.5312,2.5312,2.5312,2.5312,2.5312,2.5312,2.5312,2.5312,2.5312,2.5312,2.5312,1.7375,1.7642,1.7651,1.7055,1.6899,1.6404,1.4598,1.358,1.2707,1.1678,1.0989,1.0717,1.1081,1.166,1.2542,1.3928,1.5194,1.6413,1.7623,1.8987,2.0031,2.0466,2.1193,2.1696,2.1696,2.2053,2.2373,2.2593,2.316,2.3499,2.3499,2.3932,2.4202,2.4202,2.4202,2.4202,2.4202,2.4624,2.4785,2.4785,2.5442,2.5617,2.5362,2.5221,2.4977,2.4794,2.5005,2.5087,2.5152,2.5958,2.6289,2.6307,2.6509,2.6334,2.5993,2.58,2.535,2.4748,2.4606,2.4385,2.4251,2.4449,2.5011,2.5809,2.6867,2.8236,2.9589,3.0204,3.1026,3.1657,3.1392,3.073,3.0025,2.9773,2.9088,2.851,2.851,2.851,2.851,2.851,2.8306,2.7969,2.7402,2.7078,2.6767,2.6189,2.5913,2.5721,2.5721,2.548,2.5312,2.5312,2.5312,2.5312,2.5312,2.5312,2.5312,2.5312,2.5312,2.5312,2.5312,2.5312,2.5312,2.5312,2.5312,2.5312,2.5312,2.5312,2.5312,2.5312,2.5312,2.5312,1.7266,1.7431,1.7358,1.6789,1.6413,1.5762,1.413,1.3084,1.2138,1.1113,1.0502,1.019,1.0272,1.0814,1.1651,1.2837,1.424,1.5661,1.7046,1.8641,1.9879,2.0448,2.1193,2.1696,2.1696,2.2126,2.2547,2.2885,2.3352,2.3627,2.3627,2.3978,2.4202,2.4202,2.4202,2.4202,2.4202,2.4707,2.4913,2.4913,2.5711,2.5938,2.5543,2.546,2.5161,2.4803,2.5106,2.5341,2.5479,2.616,2.6509,2.6591,2.6591,2.6389,2.614,2.6039,2.5571,2.4895,2.4812,2.456,2.4202,2.4202,2.4578,2.5246,2.6254,2.7626,2.9026,2.984,3.0847,3.1705,3.1705,3.0879,3.0025,2.9797,2.9112,2.851,2.851,2.851,2.851,2.851,2.851,2.8342,2.7774,2.7678,2.7498,2.697,2.6525,2.6238,2.6105,2.5733,2.5432,2.5324,2.5312,2.5312,2.5312,2.5312,2.5312,2.5312,2.5312,2.5312,2.5312,2.5312,2.5312,2.5312,2.5312,2.5312,2.5312,2.5312,2.536,2.548,2.548,2.554,1.6879,1.722,1.722,1.6083,1.5771,1.5322,1.3717,1.2443,1.1485,1.1002,1.0282,0.9868,1.0226,1.0355,1.0805,1.2018,1.2964,1.4194,1.6147,1.7816,1.9246,2.0383,2.1193,2.1696,2.1696,2.2391,2.2867,2.2904,2.3666,2.4146,2.4146,2.4183,2.4202,2.4202,2.4202,2.4202,2.4202,2.4973,2.5317,2.5326,2.6142,2.6307,2.5947,2.5589,2.5161,2.4785,2.4821,2.5041,2.5451,2.5892,2.6296,2.6591,2.6591,2.6564,2.6481,2.6149,2.5736,2.5313,2.4904,2.456,2.4202,2.4202,2.4251,2.4489,2.5499,2.6856,2.8215,2.9279,3.0623,3.1705,3.1705,3.0879,2.9845,2.8883,2.8582,2.851,2.851,2.851,2.851,2.851,2.851,2.8342,2.7774,2.7678,2.7498,2.697,2.6849,2.6633,2.6166,2.6057,2.5841,2.536,2.5312,2.5312,2.5312,2.5312,2.5312,2.5312,2.5312,2.5312,2.5312,2.5312,2.5312,2.5312,2.5312,2.5312,2.5312,2.5312,2.5552,2.6021,2.6021,2.6298,1.6474,1.6844,1.6908,1.5936,1.5515,1.4909,1.3314,1.2202,1.1329,1.0667,1.0089,0.9749,0.9905,1.0135,1.0612,1.1586,1.2634,1.3919,1.5689,1.7339,1.8715,1.9668,2.0714,2.1355,2.1355,2.2282,2.3105,2.3639,2.4018,2.4202,2.4202,2.4202,2.4202,2.4202,2.4202,2.4202,2.4202,2.478,2.5014,2.5074,2.5582,2.5647,2.5243,2.5087,2.4845,2.4468,2.4675,2.4876,2.5051,2.5488,2.5702,2.5876,2.6114,2.6269,2.6241,2.6076,2.5764,2.5359,2.4922,2.456,2.4202,2.4202,2.4301,2.4538,2.545,2.6713,2.8111,2.9187,3.0578,3.1705,3.1705,3.0879,2.9821,2.8763,2.851,2.851,2.851,2.851,2.851,2.851,2.851,2.845,2.8234,2.8198,2.8126,2.7909,2.757,2.7294,2.7103,2.6791,2.6477,2.6273,2.5709,2.5312,2.5312,2.5312,2.5312,2.5312,2.5312,2.5312,2.5312,2.5312,2.5312,2.5312,2.5312,2.5312,2.5312,2.5624,2.5889,2.6105,2.6442,2.6681,1.6171,1.6523,1.6569,1.5863,1.5304,1.4524,1.3038,1.1981,1.1127,1.0438,0.9978,0.9703,0.9703,0.9923,1.0383,1.1191,1.2248,1.3497,1.5111,1.6743,1.8054,1.8861,2.0017,2.0805,2.0924,2.2108,2.3187,2.3923,2.4137,2.4202,2.4202,2.4202,2.4202,2.4202,2.4202,2.4202,2.4202,2.4624,2.4785,2.4785,2.524,2.5212,2.4785,2.4785,2.4606,2.422,2.4514,2.4666,2.4803,2.5139,2.5313,2.5451,2.5727,2.5837,2.5837,2.5837,2.5589,2.5161,2.4876,2.456,2.4202,2.4251,2.439,2.4677,2.5557,2.6867,2.8215,2.9244,3.0578,3.1633,3.132,3.0694,2.9821,2.8763,2.851,2.851,2.851,2.851,2.851,2.851,2.851,2.851,2.851,2.851,2.851,2.851,2.8198,2.7897,2.7702,2.7366,2.7066,2.691,2.6213,2.5793,2.5793,2.5636,2.554,2.554,2.5396,2.5312,2.5312,2.5312,2.5384,2.554,2.554,2.5624,2.5793,2.6166,2.643,2.6586,2.6946,2.721,1.6048,1.6288,1.6221,1.579,1.5102,1.4194,1.2974,1.1776,1.08,1.0373,0.9978,0.9703,0.9703,0.9703,0.9969,1.0781,1.1577,1.2654,1.4295,1.5909,1.722,1.7999,1.917,2.0058,2.0484,2.1952,2.3068,2.3471,2.3923,2.4202,2.4202,2.4202,2.4202,2.4202,2.4202,2.4202,2.4202,2.4624,2.4785,2.4785,2.524,2.5212,2.4785,2.4785,2.4606,2.4202,2.4211,2.444,2.4785,2.4785,2.5014,2.5424,2.5372,2.5433,2.5433,2.5433,2.5124,2.4785,2.4785,2.456,2.4251,2.444,2.448,2.4677,2.5752,2.7115,2.8459,2.929,3.0578,3.1464,3.0374,3.0098,2.9821,2.8763,2.851,2.851,2.851,2.851,2.851,2.851,2.851,2.851,2.851,2.851,2.851,2.851,2.851,2.8318,2.775,2.7717,2.7474,2.6958,2.6885,2.6873,2.6873,2.6406,2.6093,2.6093,2.56,2.5312,2.5312,2.5312,2.5552,2.6081,2.6093,2.6358,2.6873,2.6885,2.715,2.7666,2.7678,2.7993,1.4455,1.5065,1.5322,1.4625,1.4268,1.369,1.2229,1.1366,1.0717,1.0024,0.9785,0.9703,0.9703,0.9703,0.996,1.0772,1.1592,1.2645,1.4286,1.59,1.7211,1.799,1.939,2.0662,2.1658,2.2437,2.3068,2.3462,2.3923,2.4202,2.4202,2.4202,2.4202,2.4202,2.4202,2.4202,2.4202,2.4339,2.4404,2.4404,2.4532,2.4523,2.4404,2.4404,2.433,2.4202,2.4202,2.4275,2.4404,2.4404,2.4477,2.4615,2.4909,2.4968,2.4968,2.4968,2.4886,2.4739,2.4505,2.4411,2.444,2.448,2.4735,2.5177,2.5907,2.7115,2.8691,3.0509,3.1339,3.1464,3.0362,3.0086,2.9821,2.8763,2.851,2.851,2.851,2.851,2.851,2.851,2.851,2.851,2.851,2.851,2.851,2.851,2.851,2.845,2.8282,2.8258,2.8198,2.8029,2.7978,2.7678,2.6958,2.6729,2.6502,2.6117,2.5937,2.5685,2.5324,2.5661,2.5925,2.6093,2.6478,2.6717,2.6898,2.7258,2.7702,2.8258,2.8258,2.8354,1.3505,1.4284,1.4636,1.396,1.3682,1.3182,1.1709,1.1073,1.0603,0.9882,0.9733,0.9733,0.9703,0.9703,0.996,1.0772,1.1592,1.2615,1.4066,1.5799,1.7376,1.8621,1.9783,2.0827,2.1777,2.2483,2.3004,2.3251,2.384,2.4202,2.4202,2.4202,2.4202,2.4202,2.4202,2.4202,2.4202,2.4202,2.4202,2.4202,2.4202,2.4202,2.4202,2.4202,2.4202,2.4202,2.4202,2.4202,0.0,2.4202,2.4202,2.4229,2.4496,2.4546,2.4546,2.4546,2.4546,2.456,2.4393,2.439,2.4529,2.4735,2.5226,2.5907,2.6791,2.7861,2.9165,3.1149,3.1705,3.1464,3.0362,3.0086,2.9821,2.8763,2.851,2.851,2.851,2.851,2.851,2.851,2.851,2.851,2.851,2.851,2.851,2.851,2.851,2.851,2.851,2.851,2.851,2.851,2.851,2.8246,2.7546,2.7306,2.7042,2.6731,2.6514,2.6262,2.5937,2.6238,2.6502,2.6707,2.7018,2.7294,2.7486,2.7861,2.8186,2.851,2.851,2.851,0.0,1.3808,1.4053,1.3639,1.3237,1.2635,1.1469,1.0877,0.0,0.9907,0.9803,0.9773,0.9759,0.9767,1.0043,1.0855,1.1678,1.2652,1.3865,1.578,1.7807,1.9738,2.0338,2.0714,2.1108,2.2199,2.2904,2.2904,2.3703,2.4202,2.4202,2.4202,2.4202,2.4202,2.4202,2.4202,2.4202,2.4202,2.4202,2.4202,2.4202,2.4202,2.4202,2.4202,2.4202,2.4202,2.4202,2.4202,2.4202,2.4202,2.4202,2.4202,2.4202,2.4202,2.4202,2.4202,2.4251,2.4301,2.444,2.4529,2.4637,2.5137,2.5868,2.6774,2.8272,2.9073,2.9806,3.1294,3.1705,3.1464,3.0362,3.0086,2.9821,2.8763,2.851,2.851,2.851,2.851,2.851,2.851,2.851,2.851,2.851,2.851,2.851,2.851,2.851,2.851,2.851,2.851,2.851,2.851,2.851,2.851,2.851,2.8026,2.7726,2.7678,2.7222,2.6934,2.6898,2.6934,2.7186,2.7678,2.7726,2.7978,2.851,2.851,2.851,2.851,2.851,2.851,1.1853,0.0,1.2827,1.2767,1.2638,1.2318,0.0,1.0803,1.0328,0.9887,0.9753,0.9805,1.0118,1.0422,1.0892,1.1678,1.2753,1.3911,1.5124,1.7266,1.9256,2.0668,2.0915,2.1135,2.1504,2.2373,2.2904,2.2904,2.3703,2.4202,2.4202,2.4202,2.4202,2.4202,2.4202,2.4202,2.4202,2.4202,2.4202,2.4202,2.4202,2.4202,2.4202,2.4202,2.4202,2.4202,2.4202,2.4202,2.4202,2.4202,2.4202,2.4202,2.4202,2.4301,2.444,2.444,2.4538,2.4735,2.4784,2.4932,2.5186,2.5489,2.6024,2.6774,2.8272,2.9073,2.9806,3.1294,3.1705,3.1464,3.0362,3.0086,2.9821,2.8763,2.851,2.851,2.851,2.851,2.851,2.851,2.851,2.851,2.851,2.851,2.851,2.851,2.851,2.851,2.851,2.851,2.851,2.851,2.851,2.851,2.851,2.8402,2.8162,2.7753,2.757,2.7318,2.691,2.7282,2.7558,2.7678,2.8114,2.8378,2.851,2.851,2.851,2.851,2.851,2.851,1.1408,1.2105,1.2594,1.2412,1.233,1.2077,1.1216,1.0626,1.0175,0.9869,0.9972,1.0212,1.0514,1.1112,1.1777,1.2533,1.3653,1.512,1.7073,1.8641,2.0044,2.1255,2.1392,2.144,2.1668,2.2254,2.262,2.262,2.3244,2.3602,2.3602,2.3602,2.3602,2.3602,2.3776,2.396,2.4202,2.4202,2.4202,2.4202,2.4202,2.4202,2.4202,2.4202,2.4202,2.4202,2.4202,2.4202,2.4202,2.4202,2.4202,2.4202,2.4291,2.439,2.4529,2.4637,2.4784,2.4932,2.5039,2.5323,2.5664,2.582,2.64,2.7251,2.8516,2.9314,3.0022,3.1053,3.1344,3.1103,3.0001,2.9725,2.952,2.8703,2.851,2.851,2.851,2.851,2.851,2.851,2.851,2.851,2.851,2.851,2.851,2.851,2.851,2.851,2.851,2.851,2.851,2.851,2.851,2.851,2.851,2.851,2.839,2.8102,2.8089,2.7957,2.7669,2.7894,2.8089,2.8089,2.8366,2.851,2.851,2.851,2.851,2.851,2.851,2.851,1.1371,1.223,1.2812,1.2476,1.235,1.2083,1.1289,1.0666,1.0211,1.0029,1.0341,1.0768,1.1025,1.1862,1.2733,1.3461,1.4735,1.6532,1.9045,1.9806,2.0497,2.165,2.1778,2.1806,2.187,2.2236,2.2465,2.2465,2.2858,2.3096,2.3096,2.3032,2.2995,2.2995,2.3316,2.3712,2.411,2.4165,2.4202,2.4202,2.4202,2.4202,2.4202,2.4202,2.4202,2.4202,2.4202,2.4202,2.4202,2.4202,2.4202,2.4251,2.443,2.4529,2.4637,2.4883,2.499,2.503,2.5284,2.5664,2.61,2.6235,2.6907,2.7857,2.8945,2.9738,3.0338,3.0763,3.097,3.0771,2.9797,2.9484,2.928,2.8751,2.857,2.851,2.851,2.851,2.851,2.851,2.851,2.851,2.851,2.851,2.851,2.851,2.851,2.851,2.851,2.851,2.851,2.851,2.851,2.851,2.851,2.851,2.851,2.851,2.851,2.851,2.851,2.851,2.851,2.851,2.851,2.851,2.851,2.851,2.851,2.851,2.851,2.851,1.1371,1.223,1.2949,1.3232,1.3037,1.272,1.2464,1.1694,1.0991,1.0845,1.0935,1.1197,1.1803,1.2681,1.3654,1.4664,1.6697,1.855,1.9637,2.0466,2.1255,2.208,2.219,2.2327,2.2684,2.3078,2.3306,2.3306,2.3739,2.4018,2.4018,2.3639,2.3407,2.3407,2.3462,2.3526,2.359,2.3978,2.4202,2.4202,2.4202,2.4202,2.4202,2.4202,2.4202,2.4202,2.4202,2.4202,2.4202,2.4202,2.4291,2.444,2.4489,2.4784,2.5186,2.5235,2.5382,2.5586,2.5635,2.582,2.6187,2.6829,2.7447,2.8222,2.9624,3.0283,3.0608,3.085,3.1247,3.144,3.0838,3.0302,2.9833,2.9304,2.8835,2.851,2.851,2.851,2.851,2.851,2.851,2.851,2.851,2.851,2.851,2.851,2.851,2.851,2.851,2.851,2.851,2.851,2.851,2.851,2.851,2.851,2.851,2.851,2.851,2.851,2.851,2.851,2.851,2.851,2.851,2.851,2.851,2.851,2.851,2.851,2.851,2.851,1.1371,1.223,1.3062,1.3656,1.3701,1.3445,1.301,1.2387,1.1846,1.1644,1.1906,1.2357,1.2954,1.4072,1.5452,1.7099,1.8302,1.9393,2.0378,2.0879,2.1328,2.1888,2.1961,2.2034,2.2227,2.241,2.2519,2.2519,2.274,2.285,2.285,2.2868,2.284,2.284,2.327,2.3499,2.3499,2.395,2.4202,2.4202,2.4202,2.4202,2.4202,2.4202,2.4202,2.4202,2.4202,2.4202,2.4202,2.4202,2.4341,2.4529,2.4686,2.4981,2.5333,2.544,2.5586,2.5693,2.5693,2.5965,2.6438,2.7163,2.7977,2.8839,3.0057,3.0701,3.1024,3.1285,3.1308,3.1163,3.0633,3.0266,2.9953,2.9424,2.9112,2.8859,2.857,2.851,2.851,2.851,2.851,2.851,2.851,2.851,2.851,2.851,2.851,2.851,2.851,2.851,2.851,2.851,2.851,2.851,2.851,2.851,2.851,2.851,2.851,2.851,2.851,2.851,2.851,2.851,2.851,2.851,2.851,2.851,2.851,2.851,2.851,2.851,1.1222,1.2074,1.291,1.3627,1.4036,1.4148,1.3659,1.3209,1.2868,1.2704,1.3094,1.3613,1.4087,1.5427,1.7058,1.8992,1.9457,1.9943,2.0961,2.119,2.141,2.1778,2.1833,2.187,2.197,2.198,2.198,2.198,2.198,2.198,2.198,2.2172,2.2327,2.2428,2.3032,2.3398,2.3499,2.395,2.4202,2.4202,2.4202,2.4202,2.4202,2.4202,2.4202,2.4202,2.4202,2.4202,2.4202,2.4202,2.4341,2.4627,2.4833,2.5088,2.544,2.5635,2.5693,2.5693,2.5693,2.6072,2.663,2.7542,2.8445,2.9393,3.0532,3.1116,3.1439,3.1661,3.1416,3.1007,3.0555,3.0362,3.017,2.9761,2.9484,2.9184,2.8787,2.8595,2.851,2.851,2.851,2.851,2.851,2.851,2.851,2.851,2.851,2.851,2.851,2.851,2.851,2.851,2.851,2.851,2.851,2.851,2.851,2.851,2.851,2.851,2.851,2.851,2.851,2.851,2.851,2.851,2.851,2.851,2.851,2.851,2.851,2.851,1.083,1.158,1.2369,1.2852,1.3893,1.4778,1.484,1.4506,1.4214,1.4317,1.4458,1.4656,1.4958,1.6337,1.7825,1.9091,1.9934,2.0585,2.1044,2.1403,2.1797,2.219,2.2282,2.2391,2.2785,2.2821,2.2821,2.2821,2.2821,2.2821,2.2821,2.2474,2.2455,2.2849,2.2922,2.3123,2.3489,2.395,2.4202,2.4202,2.4202,2.4202,2.4202,2.4202,2.4202,2.4202,2.4202,2.4202,2.4202,2.4202,2.4449,2.4883,2.4883,2.5235,2.5684,2.5684,2.5693,2.5693,2.5693,2.6072,2.6726,2.8179,2.8991,2.976,3.116,3.1661,3.1661,3.1705,3.1681,3.1645,3.1609,3.1235,3.0807,3.0771,3.0013,2.9292,2.9256,2.8859,2.851,2.851,2.851,2.851,2.851,2.851,2.851,2.851,2.851,2.851,2.851,2.851,2.851,2.851,2.851,2.851,2.851,2.851,2.851,2.851,2.851,2.851,2.851,2.851,2.851,2.851,2.851,2.851,2.851,2.851,2.851,2.851,2.851,2.851,1.1213,1.1963,1.2803,1.3486,1.4424,1.5128,1.4982,1.5224,1.551,1.5615,1.5924,1.6309,1.6649,1.754,1.8568,1.954,2.0154,2.075,2.1357,2.1595,2.1751,2.1897,2.1916,2.198,2.2135,2.2153,2.2153,2.2153,2.2153,2.2153,2.2153,2.2236,2.2355,2.251,2.2776,2.2977,2.3123,2.3279,2.3409,2.3409,2.3963,2.4202,2.4202,2.4202,2.4202,2.4202,2.4202,2.4202,2.4202,2.4341,2.4587,2.4932,2.5284,2.5538,2.5693,2.5693,2.5693,2.5693,2.5693,2.6072,2.6726,2.8226,2.9073,2.976,3.1261,3.1705,3.1705,3.1705,3.1705,3.1705,3.1705,3.156,3.1332,3.0995,3.0567,3.0098,2.9436,2.9136,2.8907,2.857,2.851,2.851,2.851,2.851,2.851,2.851,2.8787,2.9003,2.9003,2.9292,2.9364,2.9039,2.8703,2.851,2.851,2.851,2.851,2.851,2.851,2.851,2.851,2.851,2.851,2.851,2.851,2.851,2.851,2.851,2.851,2.851,2.851,2.851,1.1467,1.2132,1.2852,1.3539,1.4482,1.5235,1.5344,1.6002,1.6633,1.6751,1.7123,1.7555,1.7953,1.8376,1.9017,1.9921,2.0296,2.0763,2.1577,2.1696,2.1696,2.1696,2.1696,2.1696,2.1696,2.1696,2.1696,2.1696,2.1696,2.1696,2.1696,2.1952,2.2153,2.2318,2.2556,2.2776,2.2904,2.2904,2.2904,2.2913,2.3639,2.396,2.396,2.4137,2.4202,2.4202,2.4202,2.4251,2.4301,2.444,2.4686,2.5079,2.5538,2.5693,2.5693,2.5693,2.5693,2.5693,2.5693,2.6072,2.6726,2.8226,2.9073,2.976,3.1261,3.1705,3.1705,3.1705,3.1705,3.1705,3.1705,3.1705,3.1621,3.1247,3.1043,3.0718,2.9953,2.9665,2.9388,2.8871,2.8895,2.8955,2.8787,2.8895,2.9015,2.9015,2.9316,2.9544,2.9544,2.9869,2.9941,2.9581,2.922,2.8943,2.8775,2.8763,2.8691,2.8522,2.851,2.851,2.851,2.851,2.851,2.851,2.851,2.851,2.851,2.851,2.851,2.851,2.851,2.851,1.1477,1.1904,1.233,1.2793,1.3893,1.5108,1.6177,1.6921,1.747,1.778,1.7972,1.8228,1.865,1.8733,1.9118,2.0319,2.0479,2.0814,2.1577,2.1696,2.1696,2.1696,2.1696,2.1696,2.1696,2.1696,2.1696,2.1696,2.1696,2.1696,2.1696,2.1696,2.187,2.2263,2.2272,2.2474,2.2895,2.2895,2.2895,2.2904,2.3297,2.3489,2.3508,2.3969,2.4202,2.4202,2.4202,2.4291,2.448,2.4538,2.4833,2.5333,2.5586,2.5693,2.5693,2.5693,2.5693,2.5693,2.5693,2.6072,2.6774,2.8226,2.9084,2.976,3.125,3.1705,3.1705,3.1705,3.1705,3.1705,3.1705,3.1705,3.1705,3.1705,3.1308,3.0922,3.0922,3.0458,2.9941,2.94,2.9725,2.9917,2.9388,2.9737,3.0086,3.0086,3.0098,3.0098,3.0098,3.0098,3.0098,3.0098,3.0086,2.9869,2.9352,2.9304,2.9076,2.8546,2.851,2.851,2.851,2.851,2.851,2.851,2.851,2.851,2.851,2.851,2.851,2.851,2.8522,2.8522,1.2308,1.2803,1.3344,1.4404,1.541,1.6385,1.7294,1.7783,1.8301,1.9293,1.9429,1.947,1.9749,1.9918,2.014,2.0676,2.0878,2.1117,2.1623,2.1696,2.1696,2.1696,2.1696,2.1696,2.1696,2.1696,2.1696,2.1696,2.1696,2.1696,2.1696,2.1696,2.1742,2.1861,2.187,2.1925,2.2053,2.2053,2.2053,2.2062,2.2748,2.3224,2.3508,2.3969,2.4202,2.4202,2.4202,2.4291,2.4538,2.4883,2.5284,2.5586,2.5693,2.5693,2.5693,2.5693,2.583,2.5955,2.5955,2.6534,2.7441,2.862,2.9452,3.0216,3.1339,3.1705,3.1705,3.1705,3.1705,3.1705,3.1705,3.1705,3.1705,3.1705,3.1585,3.1368,3.0995,3.079,3.0374,2.9472,2.9725,2.9917,2.9388,2.9737,3.0086,3.0086,3.0398,3.0814,3.1199,3.0922,3.0639,3.0639,3.0314,3.0025,2.9869,2.9508,2.9232,2.9076,2.8715,2.851,2.851,2.851,2.851,2.851,2.851,2.851,2.851,2.851,2.851,2.8522,2.8895,2.9063,1.2661,1.3311,1.3997,1.5137,1.6211,1.7344,1.8711,1.9047,1.9306,2.0049,2.0259,2.0287,2.037,2.0449,2.0618,2.0944,2.1038,2.1255,2.1632,2.1696,2.1696,2.1696,2.1696,2.1696,2.1696,2.1696,2.1696,2.1696,2.1696,2.1696,2.1696,2.1696,2.1696,2.1696,2.1696,2.1696,2.1696,2.1696,2.1696,2.1705,2.2519,2.3032,2.3279,2.3895,2.4202,2.4202,2.4399,2.4548,2.4686,2.5235,2.5538,2.5693,2.5693,2.5693,2.5693,2.5693,2.5868,2.6139,2.6418,2.7088,2.7951,2.913,2.992,3.0532,3.1439,3.1705,3.1705,3.1705,3.1705,3.1705,3.1705,3.1705,3.1705,3.1705,3.1705,3.1621,3.1296,3.1235,3.0983,3.0086,3.035,3.0585,3.0013,3.0362,3.0754,3.0754,3.1031,3.1344,3.1669,3.1428,3.1235,3.1235,3.0946,3.0627,3.0422,3.011,2.9833,2.9629,2.9316,2.9136,2.9136,2.8739,2.851,2.851,2.851,2.851,2.851,2.851,2.8619,2.8835,2.9148,2.9412,1.2709,1.3555,1.4387,1.5332,1.6611,1.8144,2.0204,2.0547,2.0416,2.0392,2.0693,2.089,2.0706,2.0631,2.075,2.1151,2.1206,2.1344,2.1721,2.1731,2.1741,2.1741,2.1687,2.1696,2.1696,2.1696,2.1696,2.1696,2.1696,2.1696,2.1696,2.1696,2.1696,2.1696,2.1696,2.1696,2.1696,2.1696,2.1696,2.1705,2.2483,2.2849,2.2876,2.3767,2.4202,2.4251,2.4686,2.4932,2.4981,2.5489,2.5693,2.5693,2.5693,2.5684,2.5732,2.5732,2.5965,2.6332,2.701,2.7683,2.8409,2.9806,3.0419,3.0802,3.1484,3.1705,3.1705,3.1705,3.1705,3.1705,3.1705,3.1705,3.1705,3.1705,3.1705,3.1705,3.1705,3.1705,3.1548,3.1019,3.1344,3.1536,3.1007,3.1356,3.1705,3.1705,3.1705,3.1705,3.1705,3.1705,3.1705,3.1705,3.1705,3.1512,3.1031,3.0995,3.0735,3.0266,3.0146,3.0086,3.0086,2.916,2.8655,2.8655,2.8655,2.8655,2.8655,2.8655,2.8907,2.9364,2.9412,2.9701,1.3047,1.3994,1.5019,1.6572,1.8174,1.9668,2.0791,2.1317,2.1605,2.1738,2.1575,2.1512,2.1892,2.1685,2.159,2.207,2.2001,2.1994,2.2211,2.2097,2.2008,2.2008,2.183,2.1696,2.1696,2.1696,2.1696,2.1696,2.1696,2.1696,2.1696,2.1696,2.1696,2.1696,2.1696,2.1696,2.1696,2.1696,2.1696,2.1696,2.2181,2.2419,2.2455,2.3639,2.4301,2.443,2.4784,2.503,2.5235,2.5586,2.5693,2.5693,2.5693,2.582,2.6004,2.6004,2.6534,2.7336,2.7704,2.8549,2.96,3.0295,3.0802,3.1217,3.1572,3.1705,3.1705,3.1705,3.1705,3.1705,3.1705,3.1705,3.1705,3.1705,3.1705,3.1705,3.1705,3.1705,3.1548,3.1019,3.1344,3.1536,3.1007,3.1356,3.1705,3.1705,3.1705,3.1705,3.1705,3.1705,3.1705,3.1705,3.1705,3.1657,3.1548,3.1536,3.1488,3.138,3.0585,3.0086,3.0086,2.9869,2.9749,2.9749,2.9749,2.9749,2.9749,2.9749,2.9809,2.9929,3.0338,3.0603,1.291,1.4131,1.5605,1.7754,1.9111,2.0146,2.0995,2.1572,2.196,2.2262,2.2246,2.2133,2.2227,2.2132,2.2087,2.222,2.2264,2.2264,2.2397,2.2309,2.223,2.2097,2.1963,2.183,2.1687,2.1696,2.1696,2.1696,2.1696,2.1696,2.1696,2.1696,2.1696,2.1696,2.1696,2.1696,2.1696,2.1696,2.1696,2.1696,2.2089,2.2382,2.2602,2.3386,2.3816,2.396,2.4326,2.4689,2.5035,2.5324,2.5547,2.5693,2.5693,2.5868,2.6139,2.6504,2.7136,2.7904,2.8771,2.9566,3.0318,3.0937,3.1306,3.1528,3.1661,3.1705,3.1705,3.1705,3.1705,3.1705,3.1705,3.1705,3.1705,3.1705,3.1705,3.1705,3.1705,3.1705,3.1633,3.1356,3.1524,3.1621,3.1344,3.1524,3.1705,3.1705,3.1705,3.1705,3.1705,3.1705,3.1705,3.1705,3.1705,3.1705,3.1705,3.1705,3.1705,3.1705,3.1187,3.0886,3.0886,3.0886,3.0603,3.0098,3.0086,3.0086,3.0086,3.0086,3.0218,3.047,3.0747,3.1055,1.2641,1.4336,1.6406,1.8711,1.9658,2.0234,2.1015,2.1514,2.1914,2.2412,2.2679,2.2671,2.2274,2.2309,2.2353,2.223,2.2353,2.2485,2.252,2.2485,2.2397,2.223,2.2185,2.2052,2.182,2.1776,2.1785,2.1785,2.1741,2.1696,2.1696,2.1696,2.1696,2.1696,2.1696,2.1696,2.1696,2.1696,2.1696,2.1696,2.2025,2.2364,2.2693,2.3029,2.3243,2.3467,2.3858,2.4388,2.4908,2.5125,2.5475,2.583,2.583,2.6062,2.6428,2.7115,2.7778,2.8502,2.9818,3.0464,3.0847,3.1484,3.1705,3.1705,3.1705,3.1705,3.1705,3.1705,3.1705,3.1705,3.1705,3.1705,3.1705,3.1705,3.1705,3.1705,3.1705,3.1705,3.1705,3.1705,3.1705,3.1705,3.1705,3.1705,3.1705,3.1705,3.1705,3.1705,3.1705,3.1705,3.1705,3.1705,3.1705,3.1705,3.1705,3.1705,3.1705,3.1705,3.1705,3.1705,3.1705,3.1705,3.1296,3.0374,3.0362,3.0362,3.0362,3.0362,3.0579,3.1055,3.1055,3.1296,1.2539,1.5225,1.793,1.9014,1.992,2.0615,2.1073,2.1239,2.1512,2.2353,2.2679,2.2803,2.2715,2.253,2.2485,2.2671,2.2715,2.2794,2.296,2.2882,2.2759,2.2715,2.2485,2.2353,2.2309,2.2141,2.2052,2.2052,2.183,2.1696,2.1696,2.1696,2.1696,2.1696,2.1696,2.1696,2.1696,2.1696,2.1696,2.1696,2.1742,2.1797,2.1896,2.23,2.3045,2.3905,2.4229,2.4854,2.5644,2.5681,2.5999,2.64,2.64,2.6832,2.7441,2.7752,2.8653,2.9737,3.0352,3.0847,3.1261,3.1572,3.1705,3.1705,3.1705,3.1705,3.1705,3.1705,3.1705,3.1705,3.1705,3.1705,3.1705,3.1705,3.1705,3.1705,3.1705,3.1705,3.1705,3.1705,3.1705,3.1705,3.1705,3.1705,3.1705,3.1705,3.1705,3.1705,3.1705,3.1705,3.1705,3.1705,3.1705,3.1705,3.1705,3.1705,3.1705,3.1705,3.1705,3.1705,3.1705,3.1705,3.1645,3.15,3.15,3.15,3.15,3.15,3.1536,3.1609,3.1609,3.1633,1.3424,1.5586,1.7525,1.8617,1.9561,2.0254,2.0449,2.0839,2.1298,2.1678,2.224,2.2655,2.2799,2.2794,2.2794,2.2803,2.2882,2.3013,2.3101,2.3013,2.2925,2.2794,2.2706,2.2574,2.2388,2.2309,2.223,2.2097,2.2008,2.1874,2.1696,2.1696,2.1696,2.1696,2.1696,2.1696,2.1696,2.1696,2.1696,2.1696,2.1696,2.1785,2.1919,2.2264,2.2729,2.3387,2.4138,2.5056,2.6129,2.6473,2.7077,2.772,2.772,2.8013,2.8491,2.9037,2.9692,3.0363,3.0994,3.135,3.1528,3.1661,3.1705,3.1705,3.1705,3.1705,3.1705,3.1705,3.1705,3.1705,3.1705,3.1705,3.1705,3.1705,3.1705,3.1705,3.1705,3.1705,3.1705,3.1705,3.1705,3.1705,3.1705,3.1705,3.1705,3.1705,3.1705,3.1705,3.1705,3.1705,3.1705,3.1705,3.1705,3.1705,3.1705,3.1705,3.1705,3.1705,3.1705,3.1705,3.1705,3.1705,3.1705,3.1705,3.1705,3.1705,3.1705,3.1705,3.1705,3.1705,3.1705,3.1705,1.3737,1.5322,1.6648,1.7828,1.8841,1.9619,1.9727,2.0313,2.0927,2.1151,2.1707,2.2269,2.2674,2.2935,2.3047,2.2882,2.3013,2.3091,2.3091,2.3091,2.3057,2.2882,2.2882,2.2794,2.2618,2.253,2.2441,2.2274,2.223,2.2097,2.1909,2.183,2.1785,2.1785,2.1741,2.1696,2.1696,2.1696,2.1696,2.1696,2.1785,2.1919,2.2097,2.2397,2.2618,2.2925,2.395,2.5157,2.6438,2.7061,2.7884,2.8795,2.8877,2.9119,2.9452,3.0091,3.0509,3.0847,3.1484,3.1705,3.1705,3.1705,3.1705,3.1705,3.1705,3.1705,3.1705,3.1705,3.1705,3.1705,3.1705,3.1705,3.1705,3.1705,3.1705,3.1705,3.1705,3.1705,3.1705,3.1705,3.1705,3.1705,3.1705,3.1705,3.1705,3.1705,3.1705,3.1705,3.1705,3.1705,3.1705,3.1705,3.1705,3.1705,3.1705,3.1705,3.1705,3.1705,3.1705,3.1705,3.1705,3.1705,3.1705,3.1705,3.1705,3.1705,3.1705,3.1705,3.1705,3.1705,3.1705,3.1705,1.2739,1.4209,1.5664,1.658,1.774,1.8773,1.9228,1.9668,2.0215,2.1025,2.1229,2.1512,2.235,2.2828,2.3091,2.3101,2.3091,2.3091,2.3091,2.3091,2.3091,2.3101,2.3091,2.3091,2.3047,2.2882,2.275,2.2759,2.253,2.2397,2.2353,2.2176,2.2097,2.2097,2.183,2.1696,2.1696,2.1696,2.1696,2.1696,2.1963,2.2097,2.2097,2.2583,2.2882,2.3144,2.3894,2.5134,2.6617,2.7083,2.8018,2.9128,2.9347,2.976,3.017,3.0476,3.0892,3.1306,3.1617,3.1705,3.1705,3.1705,3.1705,3.1705,3.1705,3.1705,3.1705,3.1705,3.1705,3.1705,3.1705,3.1705,3.1705,3.1705,3.1705,3.1705,3.1705,3.1705,3.1705,3.1705,3.1705,3.1705,3.1705,3.1705,3.1705,3.1705,3.1705,3.1705,3.1705,3.1705,3.1705,3.1705,3.1705,3.1705,3.1705,3.1705,3.1705,3.1705,3.1705,3.1705,3.1705,3.1705,3.1705,3.1705,3.1705,3.1705,3.1705,3.1705,3.1705,3.1705,3.1705,3.1705,1.2148,1.3115,1.4062,1.5205,1.624,1.7178,1.79,1.8809,1.9678,2.0264,2.08,2.1288,2.16,2.2223,2.2779,2.3052,2.3091,2.3091,2.3091,2.3091,2.3091,2.3091,2.3091,2.3091,2.3091,2.3047,2.2925,2.2794,2.2706,2.2574,2.2397,2.2309,2.222,2.2097,2.2008,2.1874,2.1696,2.1696,2.1785,2.1963,2.2052,2.2274,2.2539,2.2706,2.3057,2.358,2.4024,2.4968,2.6312,2.7353,2.85,2.9677,3.0178,3.0687,3.116,3.125,3.1395,3.1572,3.1661,3.1705,3.1705,3.1705,3.1705,3.1705,3.1705,3.1705,3.1705,3.1705,3.1705,3.1705,3.1705,3.1705,3.1705,3.1705,3.1705,3.1705,3.1705,3.1705,3.1705,3.1705,3.1705,3.1705,3.1705,3.1705,3.1705,3.1705,3.1705,3.1705,3.1705,3.1705,3.1705,3.1705,3.1705,3.1705,3.1705,3.1705,3.1705,3.1705,3.1705,3.1705,3.1705,3.1705,3.1705,3.1705,3.1705,3.1705,3.1705,3.1705,3.1705,3.1705,3.1705,3.1705,1.1492,1.2109,1.2739,1.3893,1.4813,1.5684,1.6741,1.7822,1.8848,1.9561,2.0283,2.0839,2.1142,2.1658,2.2266,2.2789,2.3003,2.3091,2.3091,2.3091,2.3091,2.3091,2.3091,2.3091,2.3091,2.3091,2.3057,2.2925,2.2882,2.2838,2.2652,2.2574,2.2397,2.2097,2.2097,2.1963,2.1696,2.1785,2.1919,2.2097,2.2274,2.2495,2.2803,2.2882,2.3188,2.3711,2.4143,2.5037,2.6282,2.7437,2.8711,3.0074,3.0651,3.1247,3.1705,3.1705,3.1705,3.1705,3.1705,3.1705,3.1705,3.1705,3.1705,3.1705,3.1705,3.1705,3.1705,3.1705,3.1705,3.1705,3.1705,3.1849,3.1994,3.1994,3.1985,3.2022,3.2022,3.1874,3.1705,3.1705,3.1705,3.1705,3.1705,3.1705,3.1705,3.1705,3.1705,3.1705,3.1705,3.1705,3.1705,3.1705,3.1705,3.1705,3.1705,3.1705,3.1705,3.1705,3.1705,3.1705,3.1705,3.1705,3.1705,3.1705,3.1705,3.1705,3.1705,3.1705,3.1705,3.1705,3.1705,3.1705,0.0,0.0,0.0,1.2631,1.3457,1.4387,1.5723,1.6721,1.7738,1.8965,1.958,2.0118,2.0995,2.1181,2.1463,2.2334,2.2789,2.3081,2.3091,2.3091,2.3091,2.3091,2.3091,2.3091,2.3091,2.3091,2.3091,2.3091,2.3091,2.3091,2.3091,2.2925,2.2583,2.2097,2.2097,2.1963,2.1696,2.1963,2.2097,2.2097,2.2583,2.2803,2.2803,2.3013,2.3232,2.3547,2.4209,2.5263,2.6647,2.7395,2.8668,3.0225,3.0671,3.1223,3.1705,3.1705,3.1705,3.1705,3.1705,3.1705,3.1705,3.1705,3.1705,3.1705,3.1705,3.1705,3.1705,3.1705,3.1705,3.1705,3.1705,3.2082,3.2491,3.2478,3.2599,3.2719,3.2743,3.2166,3.1705,3.1705,3.1705,3.1705,3.1705,3.1705,3.1705,3.1705,3.1705,3.1705,3.1705,3.1705,3.1705,3.1705,3.1705,3.1705,3.1705,3.1705,3.1705,3.1705,3.1705,3.1705,3.1705,3.1705,3.1705,3.1705,3.1705,3.1705,3.1705,3.1705,3.1705,3.1705,3.1705,3.1705,1.0332,0.0,0.0,0.0,0.0,0.0,1.3994,1.539,1.6741,1.7705,1.874,1.9629,2.0176,2.0761,2.1268,2.1512,2.2165,2.275,2.3052,2.3091,2.3091,2.3091,2.3091,2.3091,2.3091,2.3091,2.3091,2.3091,2.3091,2.3091,2.3091,2.2925,2.2662,2.2309,2.2185,2.1963,2.1696,2.1963,2.2185,2.2309,2.2662,2.2882,2.3013,2.3057,2.3319,2.3754,2.411,2.4849,2.5901,2.6896,2.8168,2.9468,3.009,3.091,3.1705,3.1705,3.1705,3.1705,3.1705,3.1705,3.1705,3.1705,3.1705,3.1705,3.1705,3.1705,3.1705,3.1705,3.1705,3.1705,3.1705,3.2082,3.2394,3.1985,3.2322,3.2791,3.3068,3.2358,3.1705,3.1705,3.1705,3.1705,3.1705,3.1705,3.1705,3.1705,3.1705,3.1705,3.1705,3.1705,3.1705,3.1705,3.1705,3.1705,3.1705,3.1705,3.1705,3.1705,3.1705,3.1705,3.1705,3.1705,3.1705,3.1705,3.1705,3.1705,3.1705,3.1705,3.1705,3.1705,3.1705,3.1705,1.0762,1.0841,1.0939,1.1326,0.0,0.0,1.3311,1.4561,1.5801,1.6682,1.7852,1.8887,1.927,1.9913,2.0478,2.0615,2.126,2.1914,2.2529,2.2617,2.2617,2.2617,2.2773,2.2838,2.2838,2.2994,2.3091,2.3091,2.3091,2.3091,2.3091,2.3013,2.275,2.2388,2.2264,2.2052,2.1696,2.2043,2.2264,2.2397,2.275,2.2969,2.3091,2.3091,2.3309,2.3711,2.4143,2.4647,2.5274,2.6216,2.7562,2.9013,2.9567,3.0508,3.1528,3.1661,3.1705,3.1705,3.1705,3.1705,3.1705,3.1705,3.1705,3.1705,3.1705,3.1705,3.1705,3.1705,3.1705,3.1705,3.1705,3.2238,3.2707,3.2214,3.2875,3.3657,3.3885,3.3428,3.2719,3.1874,3.1705,3.1705,3.1705,3.1705,3.1705,3.1705,3.1705,3.1705,3.1705,3.1705,3.1705,3.1705,3.1705,3.1705,3.1705,3.1705,3.1705,3.1705,3.1705,3.1705,3.1705,3.1705,3.1705,3.1705,3.1705,3.1705,3.1705,3.1705,3.1705,3.1705,3.1705,3.1705,1.1731,1.1731,1.1819,1.2116,1.2242,0.0,1.3178,1.4033,1.4901,1.5713,1.6846,1.7861,1.8305,1.8779,1.9209,1.9629,2.0068,2.0732,2.168,2.1855,2.1885,2.1885,2.2217,2.2441,2.2441,2.2822,2.3023,2.3023,2.3062,2.3091,2.3091,2.3091,2.2882,2.2441,2.2441,2.222,2.1776,2.2176,2.2388,2.2441,2.2872,2.3091,2.3091,2.3091,2.3232,2.3547,2.4166,2.4541,2.484,2.5453,2.6854,2.8643,2.9106,3.0083,3.1178,3.1548,3.1705,3.1705,3.1705,3.1705,3.1705,3.1705,3.1705,3.1705,3.1705,3.1705,3.1705,3.1705,3.1705,3.1705,3.1705,3.2442,3.3152,3.2851,3.3837,3.4775,3.4775,3.4775,3.427,3.2382,3.2066,3.2066,3.2066,3.2066,3.2066,3.2066,3.2066,3.1982,3.1741,3.1705,3.1705,3.1705,3.1705,3.1705,3.1705,3.1705,3.1705,3.1705,3.1705,3.1741,3.1825,3.1813,3.1837,3.1886,3.1849,3.1789,3.1705,3.1705,3.1705,3.1705,3.1789,3.1813,1.2651,1.2651,1.2559,1.2272,1.2467,0.0,1.2496,1.3145,1.3896,1.4377,1.5264,1.6162,1.6931,1.7461,1.7891,1.8311,1.874,1.9524,2.1103,2.167,2.1885,2.1885,2.1963,2.2012,2.2012,2.2383,2.2637,2.2637,2.2906,2.3091,2.3091,2.3091,2.296,2.2706,2.253,2.2353,2.2264,2.2353,2.253,2.2715,2.2969,2.3091,2.3091,2.3091,2.3232,2.3503,2.3797,2.4186,2.4572,2.4946,2.5989,2.7446,2.8462,2.9393,3.0317,3.1316,3.1705,3.1705,3.1705,3.1705,3.1705,3.1705,3.1705,3.1705,3.1705,3.1705,3.1705,3.1705,3.1705,3.1705,3.1705,3.225,3.2887,3.3128,3.403,3.4775,3.4775,3.4775,3.4655,3.4282,3.421,3.421,3.421,3.421,3.421,3.421,3.421,3.3597,3.1922,3.1705,3.1705,3.1705,3.1705,3.1705,3.1705,3.1705,3.1705,3.1705,3.1705,3.1925,3.2491,3.2394,3.2539,3.2959,3.2671,3.2238,3.1705,3.1705,3.1705,3.1717,3.225,3.2454,1.4141,1.3994,1.3721,1.3266,1.3159,0.0,0.0,1.3047,1.3564,1.3753,1.464,1.5517,1.5966,1.6611,1.7129,1.7301,1.7734,1.8389,1.9436,2.0361,2.0986,2.1201,2.1426,2.1562,2.1562,2.1953,2.2285,2.249,2.2705,2.2877,2.3081,2.3091,2.3013,2.2803,2.2671,2.253,2.2397,2.253,2.2671,2.2803,2.3013,2.3091,2.3091,2.3091,2.3178,2.3319,2.3406,2.3667,2.4024,2.4519,2.5232,2.6289,2.7908,2.9161,3.0176,3.128,3.1705,3.1705,3.1705,3.1705,3.1705,3.1705,3.1705,3.1705,3.1705,3.1705,3.1705,3.1705,3.1705,3.1705,3.1705,3.2334,3.3056,3.3236,3.4078,3.4775,3.4775,3.4775,3.4775,3.4775,3.4775,3.4775,3.4775,3.4775,3.4775,3.4775,3.4775,3.4066,3.1982,3.1705,3.1705,3.1705,3.1705,3.1705,3.1705,3.1705,3.1705,3.1705,3.1705,3.1985,3.2695,3.2587,3.2659,3.2996,3.2466,3.2022,3.1705,3.2731,3.2984,3.2536,3.2839,3.2971,1.5664,1.5361,1.4902,1.4358,1.3919,1.3496,0.0,0.0,0.0,1.3506,1.4394,1.5195,1.5273,1.5781,1.6229,1.6317,1.665,1.7061,1.7559,1.8603,1.9551,2.0273,2.0644,2.0849,2.0927,2.1377,2.1807,2.2236,2.2266,2.2409,2.2838,2.2925,2.2887,2.2766,2.2799,2.2706,2.253,2.2706,2.2803,2.2838,2.3013,2.3091,2.3091,2.3091,2.3091,2.3091,2.3091,2.3276,2.3634,2.4294,2.4935,2.5753,2.7691,2.9072,3.0134,3.1301,3.1705,3.1705,3.1705,3.1705,3.1705,3.1705,3.1705,3.1705,3.1705,3.1705,3.1705,3.1705,3.1705,3.1705,3.1705,3.2355,3.3032,3.3236,3.4078,3.4775,3.4775,3.4775,3.4775,3.4775,3.4775,3.4775,3.4775,3.4775,3.4643,3.4282,3.4222,3.3597,3.1934,3.1705,3.1705,3.1705,3.1705,3.1705,3.1705,3.1705,3.1705,3.1705,3.1705,3.1925,3.2503,3.2791,3.3008,3.3082,3.2563,3.2319,3.2319,3.3994,3.4402,3.3585,3.3585,3.3537,1.6551,1.626,1.5752,1.494,1.4385,1.3831,1.3066,0.0,1.3506,1.3506,0.0,1.4367,1.4785,0.0,0.0,1.4941,1.5049,1.539,1.6202,1.6758,1.7642,1.9248,1.9482,1.9658,2.0029,2.0459,2.0898,2.1307,2.1337,2.1572,2.2002,2.2383,2.2545,2.2545,2.2698,2.2882,2.3013,2.2882,2.2882,2.3057,2.3101,2.3091,2.3091,2.3091,2.3091,2.3091,2.3091,2.3363,2.3841,2.4498,2.5583,2.6925,2.8191,2.8884,2.9425,3.1069,3.1705,3.1705,3.1705,3.1705,3.1705,3.1705,3.1705,3.1705,3.1705,3.1705,3.1705,3.1705,3.1705,3.1705,3.1705,3.1801,3.2138,3.3056,3.4078,3.4775,3.4775,3.4775,3.4775,3.4775,3.4775,3.4775,3.4775,3.4775,3.4186,3.2355,3.2066,3.1982,3.1741,3.1705,3.1705,3.1705,3.1705,3.1705,3.1705,3.1705,3.1705,3.1705,3.1705,3.1741,3.1825,3.3573,3.4571,3.4534,3.4511,3.4463,3.4475,3.4667,3.4715,3.4655,3.4655,3.4354,1.7876,1.7344,1.6594,1.543,1.4611,1.3948,1.3379,1.3379,1.3574,1.3792,0.0,0.0,0.0,0.0,0.0,0.0,1.4813,1.494,1.5302,1.5478,1.6328,1.8311,1.876,1.8975,1.9114,1.9121,1.9365,2.0059,2.0107,2.0518,2.1455,2.2148,2.251,2.251,2.279,2.3013,2.3091,2.3013,2.3013,2.3091,2.3091,2.3091,2.3091,2.3091,2.3091,2.3091,2.3091,2.3363,2.3874,2.4956,2.6082,2.7343,2.892,2.9702,3.0123,3.1253,3.1705,3.1705,3.1705,3.1705,3.1705,3.1705,3.1705,3.1705,3.1705,3.1705,3.1705,3.1705,3.1705,3.1705,3.1705,3.2175,3.2671,3.2899,3.3921,3.4775,3.4775,3.4775,3.4775,3.4775,3.4775,3.4775,3.4775,3.4775,3.4474,3.3633,3.3501,3.3056,3.1874,3.1705,3.1705,3.1705,3.1705,3.1705,3.1705,3.2791,3.3501,3.3501,3.3501,3.3236,3.2635,3.4042,3.4775,3.4775,3.4775,3.4775,3.4775,3.4775,3.4775,3.4775,3.4775,3.4667,1.8724,1.8018,1.707,1.5742,1.4738,1.3997,1.3578,1.3603,1.3812,1.4348,1.4834,0.0,0.0,0.0,1.5273,1.4882,0.0,1.4434,1.4434,1.4434,1.5146,1.707,1.7891,1.8208,1.8091,1.8022,1.8262,1.8896,1.9043,1.9629,2.0771,2.1658,2.2217,2.2334,2.2744,2.2984,2.3091,2.3091,2.3091,2.3091,2.3091,2.3091,2.3091,2.3091,2.3091,2.3091,2.3091,2.3363,2.3874,2.5242,2.6497,2.7705,2.9413,3.0421,3.0981,3.1484,3.1705,3.1705,3.1705,3.1705,3.1705,3.1705,3.1705,3.1705,3.1705,3.1705,3.1705,3.1705,3.1705,3.1705,3.1705,3.2415,3.3056,3.302,3.3789,3.4595,3.4787,3.4775,3.4775,3.4775,3.4775,3.4775,3.4775,3.4775,3.4775,3.4775,3.4775,3.4066,3.1982,3.1705,3.1705,3.1705,3.1705,3.1705,3.1705,3.3609,3.4775,3.4775,3.4775,3.4487,3.3741,3.4426,3.4775,3.4775,3.4775,3.4775,3.4775,3.4775,3.4775,3.4775,3.4775,3.4775,1.8724,1.8018,1.707,1.5742,1.4738,1.3997,1.3578,1.3792,1.4328,1.5167,1.5723,1.6183,1.656,1.5946,0.0,0.0,0.0,0.0,0.0,1.3545,1.4033,1.5342,1.6631,1.7256,1.6804,1.7496,1.8018,1.8047,1.8393,1.8997,1.9902,2.0752,2.1434,2.1894,2.2314,2.2734,2.3091,2.3091,2.3091,2.3091,2.3091,2.3091,2.3091,2.3091,2.3091,2.3091,2.3091,2.3363,2.3874,2.5242,2.6696,2.819,2.9555,3.0723,3.1693,3.1705,3.1705,3.1705,3.1705,3.1705,3.1705,3.1705,3.1705,3.1705,3.1705,3.1705,3.1705,3.1705,3.1705,3.1705,3.1705,3.2094,3.2731,3.3583,3.3812,3.3994,3.4679,3.4775,3.4775,3.4775,3.4775,3.4775,3.4775,3.4775,3.4775,3.4775,3.4775,3.4066,3.1982,3.1705,3.1705,3.1705,3.1705,3.1705,3.1705,3.3609,3.4775,3.4775,3.4775,3.4763,3.4727,3.4763,3.4775,3.4775,3.4775,3.4775,3.4775,3.4775,3.4775,3.4775,3.4775,3.4775,1.964,1.9072,1.834,1.7041,1.6279,1.5634,1.4932,1.5098,1.5576,1.6132,1.6631,1.707,1.75,1.6833,0.0,0.0,0.0,0.0,0.0,1.3096,1.3359,1.4072,1.5293,1.6016,1.5869,1.6123,1.6502,1.7087,1.7262,1.7964,1.9424,2.0322,2.0996,2.1405,2.2139,2.2578,2.2682,2.2955,2.3091,2.3091,2.3091,2.3091,2.3091,2.3091,2.3091,2.3091,2.3091,2.3363,2.3874,2.5242,2.6696,2.8213,2.9567,3.0778,3.1705,3.1705,3.1705,3.1705,3.1705,3.1705,3.1705,3.1705,3.1705,3.1705,3.1705,3.1705,3.1705,3.1705,3.1705,3.1705,3.1705,3.2346,3.3092,3.338,3.397,3.4535,3.4727,3.4775,3.4775,3.4775,3.4775,3.4775,3.4775,3.4775,3.4775,3.4775,3.4775,3.4571,3.3849,3.3753,3.3753,3.3753,3.3753,3.3753,3.3753,3.4414,3.4775,3.4775,3.4775,3.4775,3.4775,3.4775,3.4775,3.4775,3.4775,3.4775,3.4775,3.4775,3.4775,3.4775,3.4775,3.4775,2.0547,2.0068,1.9509,1.8374,1.7617,1.697,1.6279,1.6369,1.6692,1.71,1.7529,1.7959,1.8389,1.7764,1.6872,0.0,0.0,0.0,0.0,1.3008,1.3154,1.3271,1.4277,1.4991,1.5176,1.5322,1.5713,1.6436,1.6609,1.7321,1.876,1.9648,2.0381,2.0977,2.1836,2.2363,2.251,2.2886,2.3091,2.3091,2.3091,2.3091,2.3091,2.3091,2.3091,2.3091,2.3091,2.3363,2.3937,2.5466,2.6893,2.8268,2.9811,3.0946,3.1705,3.1705,3.1705,3.1705,3.1705,3.1705,3.1705,3.1705,3.1705,3.1705,3.1705,3.1705,3.1705,3.1705,3.1705,3.1705,3.1705,3.2334,3.3056,3.3236,3.3933,3.4546,3.4739,3.4775,3.4775,3.4775,3.4775,3.4775,3.4775,3.4775,3.4775,3.4775,3.4775,3.4775,3.4775,3.4775,3.4775,3.4775,3.4775,3.4775,3.4775,3.4775,3.4775,3.4775,3.4775,3.4775,3.4775,3.4775,3.4775,3.4775,3.4775,3.4775,3.4775,3.4775,3.4775,3.4775,3.4775,3.4775]}]]